﻿<?xml version="1.0" encoding="utf-8"?><gpx creator="Garmin Desktop App" version="1.1" xsi:schemaLocation="http://www.topografix.com/GPX/1/1 http://www.topografix.com/GPX/1/1/gpx.xsd http://www.garmin.com/xmlschemas/WaypointExtension/v1 http://www8.garmin.com/xmlschemas/WaypointExtensionv1.xsd http://www.garmin.com/xmlschemas/TrackPointExtension/v1 http://www.garmin.com/xmlschemas/TrackPointExtensionv1.xsd http://www.garmin.com/xmlschemas/GpxExtensions/v3 http://www8.garmin.com/xmlschemas/GpxExtensionsv3.xsd http://www.garmin.com/xmlschemas/ActivityExtension/v1 http://www8.garmin.com/xmlschemas/ActivityExtensionv1.xsd http://www.garmin.com/xmlschemas/AdventuresExtensions/v1 http://www8.garmin.com/xmlschemas/AdventuresExtensionv1.xsd http://www.garmin.com/xmlschemas/PressureExtension/v1 http://www.garmin.com/xmlschemas/PressureExtensionv1.xsd http://www.garmin.com/xmlschemas/TripExtensions/v1 http://www.garmin.com/xmlschemas/TripExtensionsv1.xsd http://www.garmin.com/xmlschemas/TripMetaDataExtensions/v1 http://www.garmin.com/xmlschemas/TripMetaDataExtensionsv1.xsd http://www.garmin.com/xmlschemas/ViaPointTransportationModeExtensions/v1 http://www.garmin.com/xmlschemas/ViaPointTransportationModeExtensionsv1.xsd http://www.garmin.com/xmlschemas/CreationTimeExtension/v1 http://www.garmin.com/xmlschemas/CreationTimeExtensionsv1.xsd http://www.garmin.com/xmlschemas/AccelerationExtension/v1 http://www.garmin.com/xmlschemas/AccelerationExtensionv1.xsd http://www.garmin.com/xmlschemas/PowerExtension/v1 http://www.garmin.com/xmlschemas/PowerExtensionv1.xsd http://www.garmin.com/xmlschemas/VideoExtension/v1 http://www.garmin.com/xmlschemas/VideoExtensionv1.xsd" xmlns="http://www.topografix.com/GPX/1/1" xmlns:xsi="http://www.w3.org/2001/XMLSchema-instance" xmlns:wptx1="http://www.garmin.com/xmlschemas/WaypointExtension/v1" xmlns:gpxtrx="http://www.garmin.com/xmlschemas/GpxExtensions/v3" xmlns:gpxtpx="http://www.garmin.com/xmlschemas/TrackPointExtension/v1" xmlns:gpxx="http://www.garmin.com/xmlschemas/GpxExtensions/v3" xmlns:trp="http://www.garmin.com/xmlschemas/TripExtensions/v1" xmlns:adv="http://www.garmin.com/xmlschemas/AdventuresExtensions/v1" xmlns:prs="http://www.garmin.com/xmlschemas/PressureExtension/v1" xmlns:tmd="http://www.garmin.com/xmlschemas/TripMetaDataExtensions/v1" xmlns:vptm="http://www.garmin.com/xmlschemas/ViaPointTransportationModeExtensions/v1" xmlns:ctx="http://www.garmin.com/xmlschemas/CreationTimeExtension/v1" xmlns:gpxacc="http://www.garmin.com/xmlschemas/AccelerationExtension/v1" xmlns:gpxpx="http://www.garmin.com/xmlschemas/PowerExtension/v1" xmlns:vidx1="http://www.garmin.com/xmlschemas/VideoExtension/v1">

  <metadata>
    <link href="http://www.garmin.com">
      <text>Garmin International</text>
    </link>
    <time>2021-08-04T14:11:16Z</time>
    <bounds maxlat="50.546577405184507" maxlon="6.400939766317606" minlat="50.446445597335696" minlon="6.279769297689199" />
  </metadata>

  <trk>
    <name>Drôfterhof Rômerhof  26 km</name>
    <extensions>
      <gpxx:TrackExtension>
        <gpxx:DisplayColor>Red</gpxx:DisplayColor>
      </gpxx:TrackExtension>
    </extensions>
    <trkseg>
      <trkpt lat="50.446445597335696" lon="6.40030181966722">
        <ele>600.08000000000004</ele>
        <time>2019-04-25T07:12:29Z</time>
      </trkpt>
      <trkpt lat="50.446486752480268" lon="6.400179443880916">
        <ele>601</ele>
        <time>2019-04-25T07:12:47Z</time>
      </trkpt>
      <trkpt lat="50.446566129103303" lon="6.40016108751297">
        <ele>602</ele>
        <time>2019-04-25T07:13:10Z</time>
      </trkpt>
      <trkpt lat="50.446697138249874" lon="6.400318751111627">
        <ele>602.12</ele>
        <time>2019-04-25T07:13:28Z</time>
      </trkpt>
      <trkpt lat="50.446745418012142" lon="6.400371808558703">
        <ele>602.14999999999998</ele>
        <time>2019-04-25T07:13:33Z</time>
      </trkpt>
      <trkpt lat="50.446815742179751" lon="6.400491334497929">
        <ele>599.94000000000005</ele>
        <time>2019-04-25T07:13:42Z</time>
      </trkpt>
      <trkpt lat="50.446958737447858" lon="6.40065117739141">
        <ele>601.83000000000004</ele>
        <time>2019-04-25T07:16:21Z</time>
      </trkpt>
      <trkpt lat="50.447046579793096" lon="6.400742707774043">
        <ele>599.61000000000001</ele>
        <time>2019-04-25T07:16:31Z</time>
      </trkpt>
      <trkpt lat="50.447201728820801" lon="6.400818061083555">
        <ele>597.99000000000001</ele>
        <time>2019-04-25T07:16:47Z</time>
      </trkpt>
      <trkpt lat="50.447419993579388" lon="6.400939766317606">
        <ele>597.33000000000004</ele>
        <time>2019-04-25T07:17:08Z</time>
      </trkpt>
      <trkpt lat="50.447648065164685" lon="6.400925265625119">
        <ele>597.38999999999999</ele>
        <time>2019-04-25T07:17:25Z</time>
      </trkpt>
      <trkpt lat="50.44782810844481" lon="6.400841111317277">
        <ele>597.42999999999995</ele>
        <time>2019-04-25T07:17:38Z</time>
      </trkpt>
      <trkpt lat="50.447874795645475" lon="6.400762908160687">
        <ele>597.46000000000004</ele>
        <time>2019-04-25T07:17:44Z</time>
      </trkpt>
      <trkpt lat="50.448047211393714" lon="6.400602981448174">
        <ele>597.52999999999997</ele>
        <time>2019-04-25T07:17:59Z</time>
      </trkpt>
      <trkpt lat="50.44817017391324" lon="6.400483287870884">
        <ele>597.62</ele>
        <time>2019-04-25T07:18:15Z</time>
      </trkpt>
      <trkpt lat="50.448270086199045" lon="6.400448000058532">
        <ele>597.66999999999996</ele>
        <time>2019-04-25T07:18:27Z</time>
      </trkpt>
      <trkpt lat="50.448493799194694" lon="6.400481024757028">
        <ele>597.75</ele>
        <time>2019-04-25T07:18:45Z</time>
      </trkpt>
      <trkpt lat="50.448616342619061" lon="6.400404497981072">
        <ele>597.80999999999995</ele>
        <time>2019-04-25T07:18:58Z</time>
      </trkpt>
      <trkpt lat="50.448692617937922" lon="6.400289665907621">
        <ele>597.84000000000003</ele>
        <time>2019-04-25T07:19:07Z</time>
      </trkpt>
      <trkpt lat="50.44880342669785" lon="6.400119680911303">
        <ele>597.88999999999999</ele>
        <time>2019-04-25T07:19:21Z</time>
      </trkpt>
      <trkpt lat="50.448861513286829" lon="6.399925472214818">
        <ele>597.91999999999996</ele>
        <time>2019-04-25T07:19:35Z</time>
      </trkpt>
      <trkpt lat="50.44888012111187" lon="6.399814914911985">
        <ele>597.92999999999995</ele>
        <time>2019-04-25T07:19:43Z</time>
      </trkpt>
      <trkpt lat="50.448883473873138" lon="6.399733945727348">
        <ele>597.92999999999995</ele>
        <time>2019-04-25T07:20:10Z</time>
      </trkpt>
      <trkpt lat="50.448884814977646" lon="6.399732688441873">
        <ele>601</ele>
        <time>2019-04-25T07:20:11Z</time>
      </trkpt>
      <trkpt lat="50.448882803320885" lon="6.399727324023843">
        <ele>600.99000000000001</ele>
        <time>2019-04-25T07:20:12Z</time>
      </trkpt>
      <trkpt lat="50.448882719501853" lon="6.399586005136371">
        <ele>598.65999999999997</ele>
        <time>2019-04-25T07:20:38Z</time>
      </trkpt>
      <trkpt lat="50.448871990665793" lon="6.399284088984132">
        <ele>597</ele>
        <time>2019-04-25T07:20:58Z</time>
      </trkpt>
      <trkpt lat="50.448839636519551" lon="6.398902712389827">
        <ele>594.39999999999998</ele>
        <time>2019-04-25T07:21:20Z</time>
      </trkpt>
      <trkpt lat="50.448783729225397" lon="6.398617811501026">
        <ele>592.13999999999999</ele>
        <time>2019-04-25T07:21:32Z</time>
      </trkpt>
      <trkpt lat="50.448773419484496" lon="6.398577746003866">
        <ele>591.15999999999997</ele>
        <time>2019-04-25T07:21:34Z</time>
      </trkpt>
      <trkpt lat="50.448687169700861" lon="6.398271135985851">
        <ele>591.41999999999996</ele>
        <time>2019-04-25T07:21:50Z</time>
      </trkpt>
      <trkpt lat="50.448632938787341" lon="6.398078352212906">
        <ele>590.28999999999996</ele>
        <time>2019-04-25T07:22:05Z</time>
      </trkpt>
      <trkpt lat="50.448636710643768" lon="6.398075167089701">
        <ele>590.47000000000003</ele>
        <time>2019-04-25T07:22:28Z</time>
      </trkpt>
      <trkpt lat="50.448628077283502" lon="6.398060582578182">
        <ele>590.59000000000003</ele>
        <time>2019-04-25T07:22:52Z</time>
      </trkpt>
      <trkpt lat="50.448623551055789" lon="6.398063013330102">
        <ele>590.73000000000002</ele>
        <time>2019-04-25T07:23:24Z</time>
      </trkpt>
      <trkpt lat="50.448622461408377" lon="6.398070137947798">
        <ele>593.29999999999995</ele>
        <time>2019-04-25T07:24:28Z</time>
      </trkpt>
      <trkpt lat="50.44855959713459" lon="6.397854639217258">
        <ele>590.87</ele>
        <time>2019-04-25T07:25:07Z</time>
      </trkpt>
      <trkpt lat="50.448494805023074" lon="6.397475861012936">
        <ele>589.87</ele>
        <time>2019-04-25T07:25:26Z</time>
      </trkpt>
      <trkpt lat="50.448503857478499" lon="6.397170089185238">
        <ele>588.88999999999999</ele>
        <time>2019-04-25T07:25:41Z</time>
      </trkpt>
      <trkpt lat="50.448510479182005" lon="6.396945454180241">
        <ele>585.76999999999998</ele>
        <time>2019-04-25T07:25:51Z</time>
      </trkpt>
      <trkpt lat="50.448500923812389" lon="6.39661512337625">
        <ele>586.62</ele>
        <time>2019-04-25T07:26:07Z</time>
      </trkpt>
      <trkpt lat="50.448481645435095" lon="6.396384872496128">
        <ele>584.27999999999997</ele>
        <time>2019-04-25T07:26:21Z</time>
      </trkpt>
      <trkpt lat="50.448429426178336" lon="6.395975751802325">
        <ele>582.34000000000003</ele>
        <time>2019-04-25T07:26:40Z</time>
      </trkpt>
      <trkpt lat="50.448381984606385" lon="6.395698646083474">
        <ele>581.57000000000005</ele>
        <time>2019-04-25T07:26:52Z</time>
      </trkpt>
      <trkpt lat="50.448331106454134" lon="6.395532852038741">
        <ele>578.60000000000002</ele>
        <time>2019-04-25T07:27:01Z</time>
      </trkpt>
      <trkpt lat="50.448322976008058" lon="6.395491613075137">
        <ele>582.63</ele>
        <time>2019-04-25T07:27:03Z</time>
      </trkpt>
      <trkpt lat="50.448318868875504" lon="6.395471412688494">
        <ele>582.65999999999997</ele>
        <time>2019-04-25T07:27:04Z</time>
      </trkpt>
      <trkpt lat="50.448315180838108" lon="6.395448781549931">
        <ele>575.03999999999996</ele>
        <time>2019-04-25T07:27:05Z</time>
      </trkpt>
      <trkpt lat="50.448309145867825" lon="6.395425479859114">
        <ele>582.32000000000005</ele>
        <time>2019-04-25T07:27:06Z</time>
      </trkpt>
      <trkpt lat="50.448277713730931" lon="6.395289860665798">
        <ele>579.53999999999996</ele>
        <time>2019-04-25T07:27:12Z</time>
      </trkpt>
      <trkpt lat="50.448206132277846" lon="6.394980316981673">
        <ele>579.75999999999999</ele>
        <time>2019-04-25T07:27:26Z</time>
      </trkpt>
      <trkpt lat="50.448189955204725" lon="6.394894486293197">
        <ele>579.78999999999996</ele>
        <time>2019-04-25T07:27:30Z</time>
      </trkpt>
      <trkpt lat="50.448084343224764" lon="6.394503805786371">
        <ele>579.75</ele>
        <time>2019-04-25T07:27:48Z</time>
      </trkpt>
      <trkpt lat="50.44798593968153" lon="6.394104659557343">
        <ele>577.95000000000005</ele>
        <time>2019-04-25T07:28:07Z</time>
      </trkpt>
      <trkpt lat="50.447871945798397" lon="6.39365647919476">
        <ele>578.05999999999995</ele>
        <time>2019-04-25T07:28:28Z</time>
      </trkpt>
      <trkpt lat="50.447820648550987" lon="6.393307959660888">
        <ele>576.21000000000004</ele>
        <time>2019-04-25T07:28:45Z</time>
      </trkpt>
      <trkpt lat="50.447809919714928" lon="6.393228834494948">
        <ele>574.98000000000002</ele>
        <time>2019-04-25T07:28:49Z</time>
      </trkpt>
      <trkpt lat="50.447793155908585" lon="6.393083240836859">
        <ele>576.82000000000005</ele>
        <time>2019-04-25T07:28:56Z</time>
      </trkpt>
      <trkpt lat="50.447744876146317" lon="6.392678059637547">
        <ele>576.88999999999999</ele>
        <time>2019-04-25T07:29:15Z</time>
      </trkpt>
      <trkpt lat="50.447772620245814" lon="6.392429787665606">
        <ele>576.98000000000002</ele>
        <time>2019-04-25T07:29:27Z</time>
      </trkpt>
      <trkpt lat="50.447794077917933" lon="6.39238846488297">
        <ele>576.97000000000003</ele>
        <time>2019-04-25T07:29:30Z</time>
      </trkpt>
      <trkpt lat="50.447986191138625" lon="6.392462896183133">
        <ele>578.25</ele>
        <time>2019-04-25T07:29:45Z</time>
      </trkpt>
      <trkpt lat="50.448199342936277" lon="6.392644196748734">
        <ele>578.38999999999999</ele>
        <time>2019-04-25T07:30:01Z</time>
      </trkpt>
      <trkpt lat="50.448379134759307" lon="6.392847038805485">
        <ele>578.32000000000005</ele>
        <time>2019-04-25T07:30:17Z</time>
      </trkpt>
      <trkpt lat="50.448440825566649" lon="6.392876291647553">
        <ele>578.34000000000003</ele>
        <time>2019-04-25T07:30:21Z</time>
      </trkpt>
      <trkpt lat="50.448714829981327" lon="6.393033117055893">
        <ele>578.57000000000005</ele>
        <time>2019-04-25T07:30:40Z</time>
      </trkpt>
      <trkpt lat="50.449110120534897" lon="6.393455984070897">
        <ele>578.57000000000005</ele>
        <time>2019-04-25T07:30:56Z</time>
      </trkpt>
      <trkpt lat="50.449298713356256" lon="6.392939910292625">
        <ele>578.65999999999997</ele>
        <time>2019-04-25T07:31:13Z</time>
      </trkpt>
      <trkpt lat="50.44933014549315" lon="6.391850430518389">
        <ele>580.41999999999996</ele>
        <time>2019-04-25T07:31:31Z</time>
      </trkpt>
      <trkpt lat="50.449335258454084" lon="6.391444075852633">
        <ele>581.38999999999999</ele>
        <time>2019-04-25T07:31:51Z</time>
      </trkpt>
      <trkpt lat="50.449413042515516" lon="6.391106955707073">
        <ele>584.14999999999998</ele>
        <time>2019-04-25T07:32:07Z</time>
      </trkpt>
      <trkpt lat="50.449468027800322" lon="6.390767656266689">
        <ele>586.60000000000002</ele>
        <time>2019-04-25T07:32:22Z</time>
      </trkpt>
      <trkpt lat="50.449517732486129" lon="6.390606891363859">
        <ele>587.36000000000001</ele>
        <time>2019-04-25T07:32:34Z</time>
      </trkpt>
      <trkpt lat="50.449546817690134" lon="6.390387872233987">
        <ele>591.29999999999995</ele>
        <time>2019-04-25T07:32:46Z</time>
      </trkpt>
      <trkpt lat="50.449554361402988" lon="6.390317799523473">
        <ele>591.27999999999997</ele>
        <time>2019-04-25T07:32:49Z</time>
      </trkpt>
      <trkpt lat="50.449555953964591" lon="6.39020330272615">
        <ele>591.34000000000003</ele>
        <time>2019-04-25T07:32:55Z</time>
      </trkpt>
      <trkpt lat="50.449575819075108" lon="6.39011294580996">
        <ele>591.33000000000004</ele>
        <time>2019-04-25T07:33:00Z</time>
      </trkpt>
      <trkpt lat="50.449655698612332" lon="6.389868278056383">
        <ele>591.38999999999999</ele>
        <time>2019-04-25T07:33:17Z</time>
      </trkpt>
      <trkpt lat="50.449696434661746" lon="6.38939511962235">
        <ele>592.10000000000002</ele>
        <time>2019-04-25T07:33:36Z</time>
      </trkpt>
      <trkpt lat="50.449655782431364" lon="6.389010222628713">
        <ele>592.84000000000003</ele>
        <time>2019-04-25T07:33:52Z</time>
      </trkpt>
      <trkpt lat="50.449697943404317" lon="6.388798747211695">
        <ele>592.66999999999996</ele>
        <time>2019-04-25T07:34:06Z</time>
      </trkpt>
      <trkpt lat="50.449706828221679" lon="6.388701433315873">
        <ele>590.34000000000003</ele>
        <time>2019-04-25T07:34:14Z</time>
      </trkpt>
      <trkpt lat="50.449707247316837" lon="6.388440672308207">
        <ele>589.5</ele>
        <time>2019-04-25T07:34:33Z</time>
      </trkpt>
      <trkpt lat="50.449840519577265" lon="6.388143533840776">
        <ele>587.63</ele>
        <time>2019-04-25T07:34:52Z</time>
      </trkpt>
      <trkpt lat="50.449982173740864" lon="6.387888807803392">
        <ele>584.71000000000004</ele>
        <time>2019-04-25T07:35:10Z</time>
      </trkpt>
      <trkpt lat="50.450104549527168" lon="6.387683283537626">
        <ele>581.77999999999997</ele>
        <time>2019-04-25T07:35:25Z</time>
      </trkpt>
      <trkpt lat="50.450226254761219" lon="6.387436268851161">
        <ele>578.95000000000005</ele>
        <time>2019-04-25T07:35:39Z</time>
      </trkpt>
      <trkpt lat="50.450301440432668" lon="6.387191684916616">
        <ele>578.08000000000004</ele>
        <time>2019-04-25T07:35:50Z</time>
      </trkpt>
      <trkpt lat="50.450306134298444" lon="6.387174669653177">
        <ele>578.07000000000005</ele>
        <time>2019-04-25T07:35:51Z</time>
      </trkpt>
      <trkpt lat="50.450357431545854" lon="6.386880213394761">
        <ele>577.97000000000003</ele>
        <time>2019-04-25T07:36:05Z</time>
      </trkpt>
      <trkpt lat="50.450483243912458" lon="6.386569915339351">
        <ele>576.77999999999997</ele>
        <time>2019-04-25T07:36:22Z</time>
      </trkpt>
      <trkpt lat="50.450591957196593" lon="6.386445863172412">
        <ele>575.82000000000005</ele>
        <time>2019-04-25T07:36:30Z</time>
      </trkpt>
      <trkpt lat="50.450737215578556" lon="6.386422729119659">
        <ele>574.09000000000003</ele>
        <time>2019-04-25T07:36:40Z</time>
      </trkpt>
      <trkpt lat="50.451037203893065" lon="6.386517528444529">
        <ele>573.13</ele>
        <time>2019-04-25T07:36:56Z</time>
      </trkpt>
      <trkpt lat="50.451140552759171" lon="6.386825731024146">
        <ele>573.02999999999997</ele>
        <time>2019-04-25T07:37:07Z</time>
      </trkpt>
      <trkpt lat="50.451170895248652" lon="6.387057071551681">
        <ele>575.21000000000004</ele>
        <time>2019-04-25T07:37:18Z</time>
      </trkpt>
      <trkpt lat="50.451180869713426" lon="6.387377930805087">
        <ele>577.64999999999998</ele>
        <time>2019-04-25T07:37:32Z</time>
      </trkpt>
      <trkpt lat="50.451230742037296" lon="6.387601643800736">
        <ele>579.13</ele>
        <time>2019-04-25T07:37:43Z</time>
      </trkpt>
      <trkpt lat="50.451233759522438" lon="6.387897944077849">
        <ele>582.50999999999999</ele>
        <time>2019-04-25T07:37:57Z</time>
      </trkpt>
      <trkpt lat="50.451252283528447" lon="6.388019230216742">
        <ele>583.35000000000002</ele>
        <time>2019-04-25T07:38:03Z</time>
      </trkpt>
      <trkpt lat="50.451227473095059" lon="6.388478055596352">
        <ele>584.29999999999995</ele>
        <time>2019-04-25T07:38:18Z</time>
      </trkpt>
      <trkpt lat="50.451207691803575" lon="6.388557683676481">
        <ele>584.25999999999999</ele>
        <time>2019-04-25T07:38:22Z</time>
      </trkpt>
      <trkpt lat="50.451234178617597" lon="6.388955153524876">
        <ele>587.13999999999999</ele>
        <time>2019-04-25T07:38:40Z</time>
      </trkpt>
      <trkpt lat="50.451244739815593" lon="6.389235025271773">
        <ele>588.75999999999999</ele>
        <time>2019-04-25T07:38:56Z</time>
      </trkpt>
      <trkpt lat="50.45127734541893" lon="6.389376679435372">
        <ele>590.47000000000003</ele>
        <time>2019-04-25T07:39:04Z</time>
      </trkpt>
      <trkpt lat="50.451317159458995" lon="6.389467036351562">
        <ele>590.46000000000004</ele>
        <time>2019-04-25T07:39:09Z</time>
      </trkpt>
      <trkpt lat="50.451449258252978" lon="6.389779010787606">
        <ele>593.98000000000002</ele>
        <time>2019-04-25T07:39:25Z</time>
      </trkpt>
      <trkpt lat="50.451528383418918" lon="6.390011189505458">
        <ele>595.63</ele>
        <time>2019-04-25T07:39:38Z</time>
      </trkpt>
      <trkpt lat="50.451586805284023" lon="6.390281170606613">
        <ele>598.91999999999996</ele>
        <time>2019-04-25T07:39:50Z</time>
      </trkpt>
      <trkpt lat="50.451591582968831" lon="6.390310004353523">
        <ele>598.91999999999996</ele>
        <time>2019-04-25T07:39:51Z</time>
      </trkpt>
      <trkpt lat="50.451734075322747" lon="6.390765979886055">
        <ele>601.28999999999996</ele>
        <time>2019-04-25T07:40:08Z</time>
      </trkpt>
      <trkpt lat="50.451966421678662" lon="6.390910651534796">
        <ele>604.97000000000003</ele>
        <time>2019-04-25T07:40:26Z</time>
      </trkpt>
      <trkpt lat="50.452182339504361" lon="6.390852984040976">
        <ele>608.03999999999996</ele>
        <time>2019-04-25T07:40:41Z</time>
      </trkpt>
      <trkpt lat="50.452196756377816" lon="6.390852397307754">
        <ele>608.05999999999995</ele>
        <time>2019-04-25T07:40:42Z</time>
      </trkpt>
      <trkpt lat="50.452449638396502" lon="6.390749216079712">
        <ele>611.80999999999995</ele>
        <time>2019-04-25T07:41:00Z</time>
      </trkpt>
      <trkpt lat="50.452760942280293" lon="6.390621894970536">
        <ele>613.94000000000005</ele>
        <time>2019-04-25T07:41:21Z</time>
      </trkpt>
      <trkpt lat="50.452960515394807" lon="6.390554420650005">
        <ele>614.90999999999997</ele>
        <time>2019-04-25T07:41:35Z</time>
      </trkpt>
      <trkpt lat="50.453040562570095" lon="6.390442522242665">
        <ele>616.01999999999998</ele>
        <time>2019-04-25T07:41:43Z</time>
      </trkpt>
      <trkpt lat="50.453037796542048" lon="6.390354176983237">
        <ele>617.22000000000003</ele>
        <time>2019-04-25T07:41:47Z</time>
      </trkpt>
      <trkpt lat="50.453000161796808" lon="6.390124093741179">
        <ele>618.53999999999996</ele>
        <time>2019-04-25T07:41:58Z</time>
      </trkpt>
      <trkpt lat="50.452970741316676" lon="6.389731736853719">
        <ele>619.47000000000003</ele>
        <time>2019-04-25T07:42:15Z</time>
      </trkpt>
      <trkpt lat="50.452973088249564" lon="6.389670968055725">
        <ele>619.47000000000003</ele>
        <time>2019-04-25T07:42:18Z</time>
      </trkpt>
      <trkpt lat="50.452950457111001" lon="6.38925195671618">
        <ele>621.47000000000003</ele>
        <time>2019-04-25T07:42:38Z</time>
      </trkpt>
      <trkpt lat="50.452933525666595" lon="6.388851553201675">
        <ele>621.52999999999997</ele>
        <time>2019-04-25T07:42:57Z</time>
      </trkpt>
      <trkpt lat="50.452896896749735" lon="6.388322068378329">
        <ele>621.59000000000003</ele>
        <time>2019-04-25T07:43:22Z</time>
      </trkpt>
      <trkpt lat="50.452834451571107" lon="6.387962065637112">
        <ele>621.71000000000004</ele>
        <time>2019-04-25T07:43:39Z</time>
      </trkpt>
      <trkpt lat="50.452826321125031" lon="6.387833235785365">
        <ele>623.12</ele>
        <time>2019-04-25T07:43:45Z</time>
      </trkpt>
      <trkpt lat="50.452790949493647" lon="6.387475915253162">
        <ele>620.60000000000002</ele>
        <time>2019-04-25T07:44:01Z</time>
      </trkpt>
      <trkpt lat="50.452789776027203" lon="6.387456301599741">
        <ele>620.61000000000001</ele>
        <time>2019-04-25T07:44:02Z</time>
      </trkpt>
      <trkpt lat="50.45288641937077" lon="6.38711373321712">
        <ele>620.69000000000005</ele>
        <time>2019-04-25T07:44:21Z</time>
      </trkpt>
      <trkpt lat="50.452986750751734" lon="6.386751132085919">
        <ele>619.96000000000004</ele>
        <time>2019-04-25T07:44:39Z</time>
      </trkpt>
      <trkpt lat="50.453091273084283" lon="6.386395152658224">
        <ele>620.03999999999996</ele>
        <time>2019-04-25T07:44:56Z</time>
      </trkpt>
      <trkpt lat="50.453207781538367" lon="6.386065408587456">
        <ele>620.11000000000001</ele>
        <time>2019-04-25T07:45:13Z</time>
      </trkpt>
      <trkpt lat="50.453236699104309" lon="6.3859629817307">
        <ele>620.20000000000005</ele>
        <time>2019-04-25T07:45:28Z</time>
      </trkpt>
      <trkpt lat="50.453293025493622" lon="6.385859549045563">
        <ele>620.29999999999995</ele>
        <time>2019-04-25T07:45:48Z</time>
      </trkpt>
      <trkpt lat="50.453334683552384" lon="6.385761229321361">
        <ele>617.16999999999996</ele>
        <time>2019-04-25T07:45:53Z</time>
      </trkpt>
      <trkpt lat="50.453340467065573" lon="6.385741196572781">
        <ele>622.46000000000004</ele>
        <time>2019-04-25T07:45:54Z</time>
      </trkpt>
      <trkpt lat="50.453344658017159" lon="6.385719906538725">
        <ele>622.47000000000003</ele>
        <time>2019-04-25T07:45:55Z</time>
      </trkpt>
      <trkpt lat="50.453509194776416" lon="6.385348336771131">
        <ele>623.35000000000002</ele>
        <time>2019-04-25T07:46:15Z</time>
      </trkpt>
      <trkpt lat="50.453650346025825" lon="6.385028483346105">
        <ele>623.39999999999998</ele>
        <time>2019-04-25T07:46:33Z</time>
      </trkpt>
      <trkpt lat="50.453762076795101" lon="6.38469354249537">
        <ele>623.45000000000005</ele>
        <time>2019-04-25T07:46:51Z</time>
      </trkpt>
      <trkpt lat="50.453824857249856" lon="6.384401684626937">
        <ele>625.65999999999997</ele>
        <time>2019-04-25T07:47:05Z</time>
      </trkpt>
      <trkpt lat="50.453899959102273" lon="6.384161962196231">
        <ele>623.35000000000002</ele>
        <time>2019-04-25T07:47:17Z</time>
      </trkpt>
      <trkpt lat="50.45401026494801" lon="6.383841605857015">
        <ele>626.05999999999995</ele>
        <time>2019-04-25T07:47:33Z</time>
      </trkpt>
      <trkpt lat="50.454016467556357" lon="6.383822746574879">
        <ele>626.04999999999995</ele>
        <time>2019-04-25T07:47:34Z</time>
      </trkpt>
      <trkpt lat="50.454143285751343" lon="6.383444890379906">
        <ele>627.05999999999995</ele>
        <time>2019-04-25T07:47:54Z</time>
      </trkpt>
      <trkpt lat="50.454219141975045" lon="6.383097628131509">
        <ele>627.13999999999999</ele>
        <time>2019-04-25T07:48:10Z</time>
      </trkpt>
      <trkpt lat="50.454273205250502" lon="6.382848937064409">
        <ele>629.08000000000004</ele>
        <time>2019-04-25T07:48:23Z</time>
      </trkpt>
      <trkpt lat="50.45429265126586" lon="6.38277760706842">
        <ele>626.80999999999995</ele>
        <time>2019-04-25T07:48:27Z</time>
      </trkpt>
      <trkpt lat="50.454378314316273" lon="6.382544673979282">
        <ele>625.80999999999995</ele>
        <time>2019-04-25T07:48:39Z</time>
      </trkpt>
      <trkpt lat="50.454597165808082" lon="6.382437469437718">
        <ele>625.95000000000005</ele>
        <time>2019-04-25T07:48:56Z</time>
      </trkpt>
      <trkpt lat="50.454733036458492" lon="6.382416682317853">
        <ele>628.26999999999998</ele>
        <time>2019-04-25T07:49:05Z</time>
      </trkpt>
      <trkpt lat="50.454965801909566" lon="6.38226849026978">
        <ele>629.40999999999997</ele>
        <time>2019-04-25T07:49:22Z</time>
      </trkpt>
      <trkpt lat="50.455095637589693" lon="6.382057936862111">
        <ele>629.45000000000005</ele>
        <time>2019-04-25T07:49:35Z</time>
      </trkpt>
      <trkpt lat="50.455122878775001" lon="6.381982583552599">
        <ele>629.46000000000004</ele>
        <time>2019-04-25T07:49:39Z</time>
      </trkpt>
      <trkpt lat="50.455147689208388" lon="6.381939332932234">
        <ele>629.47000000000003</ele>
        <time>2019-04-25T07:49:42Z</time>
      </trkpt>
      <trkpt lat="50.455194292590022" lon="6.381737999618053">
        <ele>629.5</ele>
        <time>2019-04-25T07:49:52Z</time>
      </trkpt>
      <trkpt lat="50.455284900963306" lon="6.381386881694198">
        <ele>629.53999999999996</ele>
        <time>2019-04-25T07:50:09Z</time>
      </trkpt>
      <trkpt lat="50.455362601205707" lon="6.381073147058487">
        <ele>630.35000000000002</ele>
        <time>2019-04-25T07:50:24Z</time>
      </trkpt>
      <trkpt lat="50.455450192093849" lon="6.380794364959002">
        <ele>630.30999999999995</ele>
        <time>2019-04-25T07:50:38Z</time>
      </trkpt>
      <trkpt lat="50.45546536333859" lon="6.380718089640141">
        <ele>630.29999999999995</ele>
        <time>2019-04-25T07:50:42Z</time>
      </trkpt>
      <trkpt lat="50.455528814345598" lon="6.380472080782056">
        <ele>631.03999999999996</ele>
        <time>2019-04-25T07:50:55Z</time>
      </trkpt>
      <trkpt lat="50.45563836582005" lon="6.380116520449519">
        <ele>631.84000000000003</ele>
        <time>2019-04-25T07:51:12Z</time>
      </trkpt>
      <trkpt lat="50.455669043585658" lon="6.380041418597102">
        <ele>630.15999999999997</ele>
        <time>2019-04-25T07:51:16Z</time>
      </trkpt>
      <trkpt lat="50.455687735229731" lon="6.379978638142347">
        <ele>632.51999999999998</ele>
        <time>2019-04-25T07:51:19Z</time>
      </trkpt>
      <trkpt lat="50.455819498747587" lon="6.379577564075589">
        <ele>633.35000000000002</ele>
        <time>2019-04-25T07:51:38Z</time>
      </trkpt>
      <trkpt lat="50.455957632511854" lon="6.379228206351399">
        <ele>633.33000000000004</ele>
        <time>2019-04-25T07:51:57Z</time>
      </trkpt>
      <trkpt lat="50.456069028005004" lon="6.378935426473618">
        <ele>634.25</ele>
        <time>2019-04-25T07:52:13Z</time>
      </trkpt>
      <trkpt lat="50.45617438852787" lon="6.378661505877972">
        <ele>635.30999999999995</ele>
        <time>2019-04-25T07:52:28Z</time>
      </trkpt>
      <trkpt lat="50.456204479560256" lon="6.3786047603935">
        <ele>635.33000000000004</ele>
        <time>2019-04-25T07:52:32Z</time>
      </trkpt>
      <trkpt lat="50.456269020214677" lon="6.378482636064291">
        <ele>635.30999999999995</ele>
        <time>2019-04-25T07:52:39Z</time>
      </trkpt>
      <trkpt lat="50.456421738490462" lon="6.378172505646944">
        <ele>636.13</ele>
        <time>2019-04-25T07:52:57Z</time>
      </trkpt>
      <trkpt lat="50.45652424916625" lon="6.377815268933773">
        <ele>636.11000000000001</ele>
        <time>2019-04-25T07:53:14Z</time>
      </trkpt>
      <trkpt lat="50.456535900011659" lon="6.377772772684693">
        <ele>632.25</ele>
        <time>2019-04-25T07:53:16Z</time>
      </trkpt>
      <trkpt lat="50.456541767343879" lon="6.377749973908067">
        <ele>636.44000000000005</ele>
        <time>2019-04-25T07:53:17Z</time>
      </trkpt>
      <trkpt lat="50.456594321876764" lon="6.377515699714422">
        <ele>634.34000000000003</ele>
        <time>2019-04-25T07:53:29Z</time>
      </trkpt>
      <trkpt lat="50.45666397549212" lon="6.377191487699747">
        <ele>634.36000000000001</ele>
        <time>2019-04-25T07:53:45Z</time>
      </trkpt>
      <trkpt lat="50.456721223890781" lon="6.376759652048349">
        <ele>632.58000000000004</ele>
        <time>2019-04-25T07:54:05Z</time>
      </trkpt>
      <trkpt lat="50.456746872514486" lon="6.376433009281755">
        <ele>632.62</ele>
        <time>2019-04-25T07:54:21Z</time>
      </trkpt>
      <trkpt lat="50.456807557493448" lon="6.375979715958238">
        <ele>632.62</ele>
        <time>2019-04-25T07:54:42Z</time>
      </trkpt>
      <trkpt lat="50.456846784800291" lon="6.375553077086806">
        <ele>631.80999999999995</ele>
        <time>2019-04-25T07:55:01Z</time>
      </trkpt>
      <trkpt lat="50.45689070597291" lon="6.375216878950596">
        <ele>630.03999999999996</ele>
        <time>2019-04-25T07:55:17Z</time>
      </trkpt>
      <trkpt lat="50.456961281597614" lon="6.374778840690851">
        <ele>629.29999999999995</ele>
        <time>2019-04-25T07:55:36Z</time>
      </trkpt>
      <trkpt lat="50.457074102014303" lon="6.374466195702553">
        <ele>628.47000000000003</ele>
        <time>2019-04-25T07:55:51Z</time>
      </trkpt>
      <trkpt lat="50.457240315154195" lon="6.37411423958838">
        <ele>628.50999999999999</ele>
        <time>2019-04-25T07:56:10Z</time>
      </trkpt>
      <trkpt lat="50.457375347614288" lon="6.373848030343652">
        <ele>628.52999999999997</ele>
        <time>2019-04-25T07:56:25Z</time>
      </trkpt>
      <trkpt lat="50.457518342882395" lon="6.373557429760695">
        <ele>628.57000000000005</ele>
        <time>2019-04-25T07:56:41Z</time>
      </trkpt>
      <trkpt lat="50.457635605707765" lon="6.373393395915628">
        <ele>627.80999999999995</ele>
        <time>2019-04-25T07:56:52Z</time>
      </trkpt>
      <trkpt lat="50.45781422406435" lon="6.37315409258008">
        <ele>624.51999999999998</ele>
        <time>2019-04-25T07:57:09Z</time>
      </trkpt>
      <trkpt lat="50.457826964557171" lon="6.37314235791564">
        <ele>628.13999999999999</ele>
        <time>2019-04-25T07:57:10Z</time>
      </trkpt>
      <trkpt lat="50.458018910139799" lon="6.372954603284597">
        <ele>625.20000000000005</ele>
        <time>2019-04-25T07:57:26Z</time>
      </trkpt>
      <trkpt lat="50.458060400560498" lon="6.372902635484934">
        <ele>627.5</ele>
        <time>2019-04-25T07:57:30Z</time>
      </trkpt>
      <trkpt lat="50.458199959248304" lon="6.372779589146376">
        <ele>623.85000000000002</ele>
        <time>2019-04-25T07:57:41Z</time>
      </trkpt>
      <trkpt lat="50.45821244828403" lon="6.372768776491284">
        <ele>623.86000000000001</ele>
        <time>2019-04-25T07:57:42Z</time>
      </trkpt>
      <trkpt lat="50.458225440233946" lon="6.372758131474257">
        <ele>627.91999999999996</ele>
        <time>2019-04-25T07:57:43Z</time>
      </trkpt>
      <trkpt lat="50.458238432183862" lon="6.372748073190451">
        <ele>627.97000000000003</ele>
        <time>2019-04-25T07:57:44Z</time>
      </trkpt>
      <trkpt lat="50.458289477974176" lon="6.37270457111299">
        <ele>625.27999999999997</ele>
        <time>2019-04-25T07:57:48Z</time>
      </trkpt>
      <trkpt lat="50.45833021402359" lon="6.37266643345356">
        <ele>628.40999999999997</ele>
        <time>2019-04-25T07:58:04Z</time>
      </trkpt>
      <trkpt lat="50.458332560956478" lon="6.372664840891957">
        <ele>628.42999999999995</ele>
        <time>2019-04-25T07:58:05Z</time>
      </trkpt>
      <trkpt lat="50.45839961618185" lon="6.372604575008154">
        <ele>628.41999999999996</ele>
        <time>2019-04-25T07:58:12Z</time>
      </trkpt>
      <trkpt lat="50.458580497652292" lon="6.372415060177445">
        <ele>626.13999999999999</ele>
        <time>2019-04-25T07:58:28Z</time>
      </trkpt>
      <trkpt lat="50.458743441849947" lon="6.372204422950745">
        <ele>626.17999999999995</ele>
        <time>2019-04-25T07:58:44Z</time>
      </trkpt>
      <trkpt lat="50.458864392712712" lon="6.37211917899549">
        <ele>626.20000000000005</ele>
        <time>2019-04-25T07:58:51Z</time>
      </trkpt>
      <trkpt lat="50.459015015512705" lon="6.372006526216865">
        <ele>625.41999999999996</ele>
        <time>2019-04-25T07:59:13Z</time>
      </trkpt>
      <trkpt lat="50.459010824561119" lon="6.371990097686648">
        <ele>625.44000000000005</ele>
        <time>2019-04-25T07:59:14Z</time>
      </trkpt>
      <trkpt lat="50.45901233330369" lon="6.371972747147083">
        <ele>625.42999999999995</ele>
        <time>2019-04-25T07:59:15Z</time>
      </trkpt>
      <trkpt lat="50.459018619731069" lon="6.371956905350089">
        <ele>625.45000000000005</ele>
        <time>2019-04-25T07:59:16Z</time>
      </trkpt>
      <trkpt lat="50.459028007462621" lon="6.3719442486763">
        <ele>625.45000000000005</ele>
        <time>2019-04-25T07:59:17Z</time>
      </trkpt>
      <trkpt lat="50.459038401022553" lon="6.37193301692605">
        <ele>625.46000000000004</ele>
        <time>2019-04-25T07:59:18Z</time>
      </trkpt>
      <trkpt lat="50.45904946513474" lon="6.371921617537737">
        <ele>625.46000000000004</ele>
        <time>2019-04-25T07:59:19Z</time>
      </trkpt>
      <trkpt lat="50.459316680207849" lon="6.37156798504293">
        <ele>625.52999999999997</ele>
        <time>2019-04-25T07:59:44Z</time>
      </trkpt>
      <trkpt lat="50.459488090127707" lon="6.371239582076669">
        <ele>625.58000000000004</ele>
        <time>2019-04-25T08:00:05Z</time>
      </trkpt>
      <trkpt lat="50.459652626886964" lon="6.370907155796886">
        <ele>624.80999999999995</ele>
        <time>2019-04-25T08:00:25Z</time>
      </trkpt>
      <trkpt lat="50.459773074835539" lon="6.370657291263342">
        <ele>624.08000000000004</ele>
        <time>2019-04-25T08:00:40Z</time>
      </trkpt>
      <trkpt lat="50.459972061216831" lon="6.370262922719121">
        <ele>624.12</ele>
        <time>2019-04-25T08:01:03Z</time>
      </trkpt>
      <trkpt lat="50.460079181939363" lon="6.370001155883074">
        <ele>623.36000000000001</ele>
        <time>2019-04-25T08:01:18Z</time>
      </trkpt>
      <trkpt lat="50.460085971280932" lon="6.369988583028317">
        <ele>623.36000000000001</ele>
        <time>2019-04-25T08:01:19Z</time>
      </trkpt>
      <trkpt lat="50.460090832784772" lon="6.369972070679069">
        <ele>623.37</ele>
        <time>2019-04-25T08:01:20Z</time>
      </trkpt>
      <trkpt lat="50.46009611338377" lon="6.369955223053694">
        <ele>623.37</ele>
        <time>2019-04-25T08:01:21Z</time>
      </trkpt>
      <trkpt lat="50.460102399811149" lon="6.369938459247351">
        <ele>623.37</ele>
        <time>2019-04-25T08:01:22Z</time>
      </trkpt>
      <trkpt lat="50.460110111162066" lon="6.369921527802944">
        <ele>623.37</ele>
        <time>2019-04-25T08:01:23Z</time>
      </trkpt>
      <trkpt lat="50.460136262699962" lon="6.369893616065383">
        <ele>623.37</ele>
        <time>2019-04-25T08:01:25Z</time>
      </trkpt>
      <trkpt lat="50.460153445601463" lon="6.369854724034667">
        <ele>623.38</ele>
        <time>2019-04-25T08:01:27Z</time>
      </trkpt>
      <trkpt lat="50.460160318762064" lon="6.369834188371897">
        <ele>623.38</ele>
        <time>2019-04-25T08:01:28Z</time>
      </trkpt>
      <trkpt lat="50.460165850818157" lon="6.369812060147524">
        <ele>623.38</ele>
        <time>2019-04-25T08:01:29Z</time>
      </trkpt>
      <trkpt lat="50.460172556340694" lon="6.369792027398944">
        <ele>623.38</ele>
        <time>2019-04-25T08:01:30Z</time>
      </trkpt>
      <trkpt lat="50.460178172215819" lon="6.369771994650364">
        <ele>623.38</ele>
        <time>2019-04-25T08:01:31Z</time>
      </trkpt>
      <trkpt lat="50.460183788090944" lon="6.369750704616308">
        <ele>623.38999999999999</ele>
        <time>2019-04-25T08:01:32Z</time>
      </trkpt>
      <trkpt lat="50.460260063409805" lon="6.369462534785271">
        <ele>623.47000000000003</ele>
        <time>2019-04-25T08:02:17Z</time>
      </trkpt>
      <trkpt lat="50.460262661799788" lon="6.369421714916825">
        <ele>623.47000000000003</ele>
        <time>2019-04-25T08:02:19Z</time>
      </trkpt>
      <trkpt lat="50.46026274561882" lon="6.369401514530182">
        <ele>623.47000000000003</ele>
        <time>2019-04-25T08:02:20Z</time>
      </trkpt>
      <trkpt lat="50.460261907428503" lon="6.369382906705141">
        <ele>623.47000000000003</ele>
        <time>2019-04-25T08:02:21Z</time>
      </trkpt>
      <trkpt lat="50.460261572152376" lon="6.369366310536861">
        <ele>623.48000000000002</ele>
        <time>2019-04-25T08:02:22Z</time>
      </trkpt>
      <trkpt lat="50.460285628214478" lon="6.369057772681117">
        <ele>622.70000000000005</ele>
        <time>2019-04-25T08:02:38Z</time>
      </trkpt>
      <trkpt lat="50.46029057353735" lon="6.368975546211004">
        <ele>619.87</ele>
        <time>2019-04-25T08:02:44Z</time>
      </trkpt>
      <trkpt lat="50.46029057353735" lon="6.368975546211004">
        <ele>623.01999999999998</ele>
        <time>2019-04-25T08:02:45Z</time>
      </trkpt>
      <trkpt lat="50.460300715640187" lon="6.368944784626365">
        <ele>623.01999999999998</ele>
        <time>2019-04-25T08:02:46Z</time>
      </trkpt>
      <trkpt lat="50.46034631319344" lon="6.368593499064446">
        <ele>622.95000000000005</ele>
        <time>2019-04-25T08:03:02Z</time>
      </trkpt>
      <trkpt lat="50.460344217717648" lon="6.368555864319205">
        <ele>623.02999999999997</ele>
        <time>2019-04-25T08:03:03Z</time>
      </trkpt>
      <trkpt lat="50.460336841642857" lon="6.36824925430119">
        <ele>620.71000000000004</ele>
        <time>2019-04-25T08:03:16Z</time>
      </trkpt>
      <trkpt lat="50.460309851914644" lon="6.367785148322582">
        <ele>620.65999999999997</ele>
        <time>2019-04-25T08:03:36Z</time>
      </trkpt>
      <trkpt lat="50.46033063903451" lon="6.367421876639128">
        <ele>620.52999999999997</ele>
        <time>2019-04-25T08:03:54Z</time>
      </trkpt>
      <trkpt lat="50.460380762815475" lon="6.367037482559681">
        <ele>620.40999999999997</ele>
        <time>2019-04-25T08:04:11Z</time>
      </trkpt>
      <trkpt lat="50.460386965423822" lon="6.367020383477211">
        <ele>620.38999999999999</ele>
        <time>2019-04-25T08:04:12Z</time>
      </trkpt>
      <trkpt lat="50.460391407832503" lon="6.366969924420118">
        <ele>620.35000000000002</ele>
        <time>2019-04-25T08:04:15Z</time>
      </trkpt>
      <trkpt lat="50.460389899089932" lon="6.36694653891027">
        <ele>620.35000000000002</ele>
        <time>2019-04-25T08:04:16Z</time>
      </trkpt>
      <trkpt lat="50.460392665117979" lon="6.366905719041824">
        <ele>620.33000000000004</ele>
        <time>2019-04-25T08:04:18Z</time>
      </trkpt>
      <trkpt lat="50.460396017879248" lon="6.366886273026466">
        <ele>620.35000000000002</ele>
        <time>2019-04-25T08:04:19Z</time>
      </trkpt>
      <trkpt lat="50.460406830534339" lon="6.36684444732964">
        <ele>620.29999999999995</ele>
        <time>2019-04-25T08:04:21Z</time>
      </trkpt>
      <trkpt lat="50.460433484986424" lon="6.366655519232154">
        <ele>620.23000000000002</ele>
        <time>2019-04-25T08:04:28Z</time>
      </trkpt>
      <trkpt lat="50.460546975955367" lon="6.366137685254216">
        <ele>619.63</ele>
        <time>2019-04-25T08:05:46Z</time>
      </trkpt>
      <trkpt lat="50.46055493876338" lon="6.366115640848875">
        <ele>619.63</ele>
        <time>2019-04-25T08:05:47Z</time>
      </trkpt>
      <trkpt lat="50.460551334545016" lon="6.366028720512986">
        <ele>619.66999999999996</ele>
        <time>2019-04-25T08:05:52Z</time>
      </trkpt>
      <trkpt lat="50.460547478869557" lon="6.366010028868914">
        <ele>619.66999999999996</ele>
        <time>2019-04-25T08:05:53Z</time>
      </trkpt>
      <trkpt lat="50.46054613776505" lon="6.365974908694625">
        <ele>619.70000000000005</ele>
        <time>2019-04-25T08:05:55Z</time>
      </trkpt>
      <trkpt lat="50.460547311231494" lon="6.365956217050552">
        <ele>619.69000000000005</ele>
        <time>2019-04-25T08:05:56Z</time>
      </trkpt>
      <trkpt lat="50.460538174957037" lon="6.365670980885625">
        <ele>615.86000000000001</ele>
        <time>2019-04-25T08:06:11Z</time>
      </trkpt>
      <trkpt lat="50.460538845509291" lon="6.365651283413172">
        <ele>618.91999999999996</ele>
        <time>2019-04-25T08:06:12Z</time>
      </trkpt>
      <trkpt lat="50.460532559081912" lon="6.365542989224196">
        <ele>618.91999999999996</ele>
        <time>2019-04-25T08:06:18Z</time>
      </trkpt>
      <trkpt lat="50.460453266277909" lon="6.365358335897327">
        <ele>616.44000000000005</ele>
        <time>2019-04-25T08:06:29Z</time>
      </trkpt>
      <trkpt lat="50.460276491940022" lon="6.365089612081647">
        <ele>615.50999999999999</ele>
        <time>2019-04-25T08:06:47Z</time>
      </trkpt>
      <trkpt lat="50.460179932415485" lon="6.365000512450934">
        <ele>612.19000000000005</ele>
        <time>2019-04-25T08:06:58Z</time>
      </trkpt>
      <trkpt lat="50.460172053426504" lon="6.364994728937745">
        <ele>616.40999999999997</ele>
        <time>2019-04-25T08:06:59Z</time>
      </trkpt>
      <trkpt lat="50.460084630176425" lon="6.364923398941755">
        <ele>613.96000000000004</ele>
        <time>2019-04-25T08:07:09Z</time>
      </trkpt>
      <trkpt lat="50.459915064275265" lon="6.364765902981162">
        <ele>614.02999999999997</ele>
        <time>2019-04-25T08:07:29Z</time>
      </trkpt>
      <trkpt lat="50.459687244147062" lon="6.364368684589863">
        <ele>610.65999999999997</ele>
        <time>2019-04-25T08:07:51Z</time>
      </trkpt>
      <trkpt lat="50.459599150344729" lon="6.36407095938921">
        <ele>608.32000000000005</ele>
        <time>2019-04-25T08:08:11Z</time>
      </trkpt>
      <trkpt lat="50.459487587213516" lon="6.363664101809263">
        <ele>605.75999999999999</ele>
        <time>2019-04-25T08:08:31Z</time>
      </trkpt>
      <trkpt lat="50.459410892799497" lon="6.363336117938161">
        <ele>603.92999999999995</ele>
        <time>2019-04-25T08:08:52Z</time>
      </trkpt>
      <trkpt lat="50.459404774010181" lon="6.363207623362541">
        <ele>599.67999999999995</ele>
        <time>2019-04-25T08:09:03Z</time>
      </trkpt>
      <trkpt lat="50.459393123164773" lon="6.363176526501775">
        <ele>603.27999999999997</ele>
        <time>2019-04-25T08:09:04Z</time>
      </trkpt>
      <trkpt lat="50.459262784570456" lon="6.362801855430007">
        <ele>601</ele>
        <time>2019-04-25T08:09:17Z</time>
      </trkpt>
      <trkpt lat="50.459237303584814" lon="6.362346047535539">
        <ele>598.37</ele>
        <time>2019-04-25T08:09:39Z</time>
      </trkpt>
      <trkpt lat="50.459127752110362" lon="6.361964670941234">
        <ele>596.63999999999999</ele>
        <time>2019-04-25T08:10:00Z</time>
      </trkpt>
      <trkpt lat="50.459082657471299" lon="6.361728720366955">
        <ele>593.91999999999996</ele>
        <time>2019-04-25T08:10:14Z</time>
      </trkpt>
      <trkpt lat="50.458922311663628" lon="6.361362179741263">
        <ele>592.50999999999999</ele>
        <time>2019-04-25T08:10:30Z</time>
      </trkpt>
      <trkpt lat="50.458776634186506" lon="6.360921794548631">
        <ele>589.99000000000001</ele>
        <time>2019-04-25T08:10:53Z</time>
      </trkpt>
      <trkpt lat="50.458679320290685" lon="6.360531952232122">
        <ele>587.42999999999995</ele>
        <time>2019-04-25T08:11:14Z</time>
      </trkpt>
      <trkpt lat="50.458536073565483" lon="6.360116712749004">
        <ele>584.90999999999997</ele>
        <time>2019-04-25T08:11:33Z</time>
      </trkpt>
      <trkpt lat="50.458428701385856" lon="6.359667861834168">
        <ele>582.24000000000001</ele>
        <time>2019-04-25T08:11:53Z</time>
      </trkpt>
      <trkpt lat="50.458395844325423" lon="6.359506594017148">
        <ele>580.45000000000005</ele>
        <time>2019-04-25T08:12:02Z</time>
      </trkpt>
      <trkpt lat="50.458337422460318" lon="6.359309451654553">
        <ele>578.98000000000002</ele>
        <time>2019-04-25T08:12:15Z</time>
      </trkpt>
      <trkpt lat="50.458212615922093" lon="6.359134940430522">
        <ele>578.13</ele>
        <time>2019-04-25T08:12:26Z</time>
      </trkpt>
      <trkpt lat="50.457941209897399" lon="6.358666811138392">
        <ele>575.70000000000005</ele>
        <time>2019-04-25T08:12:46Z</time>
      </trkpt>
      <trkpt lat="50.457780696451664" lon="6.358407726511359">
        <ele>573.13</ele>
        <time>2019-04-25T08:13:04Z</time>
      </trkpt>
      <trkpt lat="50.457531251013279" lon="6.357989050447941">
        <ele>570.53999999999996</ele>
        <time>2019-04-25T08:13:28Z</time>
      </trkpt>
      <trkpt lat="50.457503674551845" lon="6.357915122061968">
        <ele>570.54999999999995</ele>
        <time>2019-04-25T08:13:32Z</time>
      </trkpt>
      <trkpt lat="50.457289097830653" lon="6.357557130977511">
        <ele>567.89999999999998</ele>
        <time>2019-04-25T08:13:52Z</time>
      </trkpt>
      <trkpt lat="50.457156579941511" lon="6.357371052727103">
        <ele>565.30999999999995</ele>
        <time>2019-04-25T08:14:06Z</time>
      </trkpt>
      <trkpt lat="50.457041747868061" lon="6.357236942276359">
        <ele>563.52999999999997</ele>
        <time>2019-04-25T08:14:17Z</time>
      </trkpt>
      <trkpt lat="50.456800935789943" lon="6.356950281187892">
        <ele>562.65999999999997</ele>
        <time>2019-04-25T08:14:41Z</time>
      </trkpt>
      <trkpt lat="50.456686690449715" lon="6.356629673391581">
        <ele>561.87</ele>
        <time>2019-04-25T08:14:53Z</time>
      </trkpt>
      <trkpt lat="50.456608403474092" lon="6.356176128610969">
        <ele>560.90999999999997</ele>
        <time>2019-04-25T08:15:11Z</time>
      </trkpt>
      <trkpt lat="50.456602284684777" lon="6.356155509129167">
        <ele>560.89999999999998</ele>
        <time>2019-04-25T08:15:12Z</time>
      </trkpt>
      <trkpt lat="50.456599099561572" lon="6.356130028143525">
        <ele>560.89999999999998</ele>
        <time>2019-04-25T08:15:13Z</time>
      </trkpt>
      <trkpt lat="50.456597423180938" lon="6.356107061728835">
        <ele>560.88999999999999</ele>
        <time>2019-04-25T08:15:14Z</time>
      </trkpt>
      <trkpt lat="50.456590466201305" lon="6.356083424761891">
        <ele>560.89999999999998</ele>
        <time>2019-04-25T08:15:15Z</time>
      </trkpt>
      <trkpt lat="50.456579066812992" lon="6.356060290709138">
        <ele>560.89999999999998</ele>
        <time>2019-04-25T08:15:16Z</time>
      </trkpt>
      <trkpt lat="50.456568254157901" lon="6.356043107807636">
        <ele>560.89999999999998</ele>
        <time>2019-04-25T08:15:17Z</time>
      </trkpt>
      <trkpt lat="50.45656330883503" lon="6.356025002896786">
        <ele>560.89999999999998</ele>
        <time>2019-04-25T08:15:18Z</time>
      </trkpt>
      <trkpt lat="50.456556268036366" lon="6.356001114472747">
        <ele>560.88999999999999</ele>
        <time>2019-04-25T08:15:19Z</time>
      </trkpt>
      <trkpt lat="50.456583090126514" lon="6.35576038621366">
        <ele>559.83000000000004</ele>
        <time>2019-04-25T08:15:32Z</time>
      </trkpt>
      <trkpt lat="50.456660035997629" lon="6.355339614674449">
        <ele>559.74000000000001</ele>
        <time>2019-04-25T08:15:53Z</time>
      </trkpt>
      <trkpt lat="50.45668208040297" lon="6.354954214766622">
        <ele>558.88999999999999</ele>
        <time>2019-04-25T08:16:09Z</time>
      </trkpt>
      <trkpt lat="50.456678308546543" lon="6.354842316359282">
        <ele>558.86000000000001</ele>
        <time>2019-04-25T08:16:13Z</time>
      </trkpt>
      <trkpt lat="50.456675626337528" lon="6.354819349944592">
        <ele>558.85000000000002</ele>
        <time>2019-04-25T08:16:14Z</time>
      </trkpt>
      <trkpt lat="50.456665651872754" lon="6.354753971099854">
        <ele>558.84000000000003</ele>
        <time>2019-04-25T08:16:17Z</time>
      </trkpt>
      <trkpt lat="50.456647127866745" lon="6.354676270857453">
        <ele>558.82000000000005</ele>
        <time>2019-04-25T08:16:20Z</time>
      </trkpt>
      <trkpt lat="50.456642266362906" lon="6.354653891175985">
        <ele>558.80999999999995</ele>
        <time>2019-04-25T08:16:21Z</time>
      </trkpt>
      <trkpt lat="50.456638913601637" lon="6.354630924761295">
        <ele>558.80999999999995</ele>
        <time>2019-04-25T08:16:22Z</time>
      </trkpt>
      <trkpt lat="50.456662718206644" lon="6.354431016370654">
        <ele>557.85000000000002</ele>
        <time>2019-04-25T08:16:30Z</time>
      </trkpt>
      <trkpt lat="50.4566840082407" lon="6.354327080771327">
        <ele>557.84000000000003</ele>
        <time>2019-04-25T08:16:35Z</time>
      </trkpt>
      <trkpt lat="50.456686271354556" lon="6.35430570691824">
        <ele>557.84000000000003</ele>
        <time>2019-04-25T08:16:36Z</time>
      </trkpt>
      <trkpt lat="50.456687863916159" lon="6.354273185133934">
        <ele>557.84000000000003</ele>
        <time>2019-04-25T08:16:37Z</time>
      </trkpt>
      <trkpt lat="50.456717284396291" lon="6.353336926549673">
        <ele>556.17999999999995</ele>
        <time>2019-04-25T08:17:14Z</time>
      </trkpt>
      <trkpt lat="50.45672164298594" lon="6.353318570181727">
        <ele>556.16999999999996</ele>
        <time>2019-04-25T08:17:15Z</time>
      </trkpt>
      <trkpt lat="50.456724409013987" lon="6.353290323168039">
        <ele>556.17999999999995</ele>
        <time>2019-04-25T08:17:16Z</time>
      </trkpt>
      <trkpt lat="50.456720888614655" lon="6.353262746706605">
        <ele>556.16999999999996</ele>
        <time>2019-04-25T08:17:17Z</time>
      </trkpt>
      <trkpt lat="50.456717116758227" lon="6.353236762806773">
        <ele>556.17999999999995</ele>
        <time>2019-04-25T08:17:18Z</time>
      </trkpt>
      <trkpt lat="50.456710662692785" lon="6.353094605728984">
        <ele>556.16999999999996</ele>
        <time>2019-04-25T08:17:24Z</time>
      </trkpt>
      <trkpt lat="50.456714099273086" lon="6.353074740618467">
        <ele>556.14999999999998</ele>
        <time>2019-04-25T08:17:25Z</time>
      </trkpt>
      <trkpt lat="50.456712758168578" lon="6.353051941841841">
        <ele>556.15999999999997</ele>
        <time>2019-04-25T08:17:26Z</time>
      </trkpt>
      <trkpt lat="50.456711836159229" lon="6.353024868294597">
        <ele>556.15999999999997</ele>
        <time>2019-04-25T08:17:27Z</time>
      </trkpt>
      <trkpt lat="50.4567133449018" lon="6.35299963876605">
        <ele>556.15999999999997</ele>
        <time>2019-04-25T08:17:28Z</time>
      </trkpt>
      <trkpt lat="50.456713261082768" lon="6.352972649037838">
        <ele>556.15999999999997</ele>
        <time>2019-04-25T08:17:29Z</time>
      </trkpt>
      <trkpt lat="50.45670504681766" lon="6.352944821119309">
        <ele>556.15999999999997</ele>
        <time>2019-04-25T08:17:30Z</time>
      </trkpt>
      <trkpt lat="50.456700604408979" lon="6.352920262143016">
        <ele>556.14999999999998</ele>
        <time>2019-04-25T08:17:31Z</time>
      </trkpt>
      <trkpt lat="50.45669817365706" lon="6.352897882461548">
        <ele>556.15999999999997</ele>
        <time>2019-04-25T08:17:32Z</time>
      </trkpt>
      <trkpt lat="50.456685600802302" lon="6.352609042078257">
        <ele>555.34000000000003</ele>
        <time>2019-04-25T08:17:45Z</time>
      </trkpt>
      <trkpt lat="50.456684678792953" lon="6.352251386269927">
        <ele>554.51999999999998</ele>
        <time>2019-04-25T08:17:59Z</time>
      </trkpt>
      <trkpt lat="50.456686522811651" lon="6.35218215174973">
        <ele>554.51999999999998</ele>
        <time>2019-04-25T08:18:02Z</time>
      </trkpt>
      <trkpt lat="50.456688702106476" lon="6.352157592773438">
        <ele>554.51999999999998</ele>
        <time>2019-04-25T08:18:03Z</time>
      </trkpt>
      <trkpt lat="50.456690965220332" lon="6.352130435407162">
        <ele>554.51999999999998</ele>
        <time>2019-04-25T08:18:04Z</time>
      </trkpt>
      <trkpt lat="50.456692054867744" lon="6.352092549204826">
        <ele>554.5</ele>
        <time>2019-04-25T08:18:06Z</time>
      </trkpt>
      <trkpt lat="50.456694653257728" lon="6.352072935551405">
        <ele>554.50999999999999</ele>
        <time>2019-04-25T08:18:07Z</time>
      </trkpt>
      <trkpt lat="50.456695072352886" lon="6.35205508209765">
        <ele>554.5</ele>
        <time>2019-04-25T08:18:08Z</time>
      </trkpt>
      <trkpt lat="50.456693563610315" lon="6.352035971358419">
        <ele>554.49000000000001</ele>
        <time>2019-04-25T08:18:09Z</time>
      </trkpt>
      <trkpt lat="50.456694234162569" lon="6.352010490372777">
        <ele>554.48000000000002</ele>
        <time>2019-04-25T08:18:10Z</time>
      </trkpt>
      <trkpt lat="50.456673866137862" lon="6.351668424904347">
        <ele>553.59000000000003</ele>
        <time>2019-04-25T08:18:23Z</time>
      </trkpt>
      <trkpt lat="50.456686522811651" lon="6.351426774635911">
        <ele>552.84000000000003</ele>
        <time>2019-04-25T08:18:33Z</time>
      </trkpt>
      <trkpt lat="50.456688534468412" lon="6.351405316963792">
        <ele>552.85000000000002</ele>
        <time>2019-04-25T08:18:34Z</time>
      </trkpt>
      <trkpt lat="50.456718541681767" lon="6.351006757467985">
        <ele>552.05999999999995</ele>
        <time>2019-04-25T08:18:51Z</time>
      </trkpt>
      <trkpt lat="50.456714769825339" lon="6.350895529612899">
        <ele>552.04999999999995</ele>
        <time>2019-04-25T08:18:56Z</time>
      </trkpt>
      <trkpt lat="50.456729605793953" lon="6.350754546001554">
        <ele>550.27999999999997</ele>
        <time>2019-04-25T08:19:04Z</time>
      </trkpt>
      <trkpt lat="50.456774113699794" lon="6.35061414912343">
        <ele>550.26999999999998</ele>
        <time>2019-04-25T08:19:11Z</time>
      </trkpt>
      <trkpt lat="50.456830523908138" lon="6.350522367283702">
        <ele>550.23000000000002</ele>
        <time>2019-04-25T08:19:19Z</time>
      </trkpt>
      <trkpt lat="50.456856340169907" lon="6.350466459989548">
        <ele>550.23000000000002</ele>
        <time>2019-04-25T08:19:23Z</time>
      </trkpt>
      <trkpt lat="50.456889951601624" lon="6.350409127771854">
        <ele>550.21000000000004</ele>
        <time>2019-04-25T08:19:27Z</time>
      </trkpt>
      <trkpt lat="50.456902272999287" lon="6.350390771403909">
        <ele>549.41999999999996</ele>
        <time>2019-04-25T08:19:28Z</time>
      </trkpt>
      <trkpt lat="50.457079885527492" lon="6.35023545473814">
        <ele>549.37</ele>
        <time>2019-04-25T08:19:43Z</time>
      </trkpt>
      <trkpt lat="50.45724056661129" lon="6.35002875700593">
        <ele>549.25</ele>
        <time>2019-04-25T08:19:58Z</time>
      </trkpt>
      <trkpt lat="50.457427063956857" lon="6.349922306835651">
        <ele>549.00999999999999</ele>
        <time>2019-04-25T08:20:16Z</time>
      </trkpt>
      <trkpt lat="50.457670306786895" lon="6.349846702069044">
        <ele>548.02999999999997</ele>
        <time>2019-04-25T08:20:31Z</time>
      </trkpt>
      <trkpt lat="50.457786899060011" lon="6.349700856953859">
        <ele>547.92999999999995</ele>
        <time>2019-04-25T08:20:41Z</time>
      </trkpt>
      <trkpt lat="50.457875747233629" lon="6.349573116749525">
        <ele>547.09000000000003</ele>
        <time>2019-04-25T08:20:48Z</time>
      </trkpt>
      <trkpt lat="50.457916902378201" lon="6.349508492276073">
        <ele>547.05999999999995</ele>
        <time>2019-04-25T08:20:51Z</time>
      </trkpt>
      <trkpt lat="50.458034919574857" lon="6.349360216408968">
        <ele>546.98000000000002</ele>
        <time>2019-04-25T08:21:00Z</time>
      </trkpt>
      <trkpt lat="50.458140699192882" lon="6.349233482033014">
        <ele>546.91999999999996</ele>
        <time>2019-04-25T08:21:08Z</time>
      </trkpt>
      <trkpt lat="50.458294674754143" lon="6.349083613604307">
        <ele>546.05999999999995</ele>
        <time>2019-04-25T08:21:20Z</time>
      </trkpt>
      <trkpt lat="50.458655934780836" lon="6.34837525896728">
        <ele>543.88999999999999</ele>
        <time>2019-04-25T08:21:59Z</time>
      </trkpt>
      <trkpt lat="50.458766240626574" lon="6.34797309525311">
        <ele>542.85000000000002</ele>
        <time>2019-04-25T08:22:14Z</time>
      </trkpt>
      <trkpt lat="50.458776382729411" lon="6.347932443022728">
        <ele>542.83000000000004</ele>
        <time>2019-04-25T08:22:16Z</time>
      </trkpt>
      <trkpt lat="50.458814017474651" lon="6.347756003960967">
        <ele>542.76999999999998</ele>
        <time>2019-04-25T08:22:22Z</time>
      </trkpt>
      <trkpt lat="50.458828769624233" lon="6.347642932087183">
        <ele>542.74000000000001</ele>
        <time>2019-04-25T08:22:26Z</time>
      </trkpt>
      <trkpt lat="50.458822650834918" lon="6.347300782799721">
        <ele>542.64999999999998</ele>
        <time>2019-04-25T08:22:41Z</time>
      </trkpt>
      <trkpt lat="50.45883254148066" lon="6.347121996805072">
        <ele>542.62</ele>
        <time>2019-04-25T08:22:49Z</time>
      </trkpt>
      <trkpt lat="50.458861710503697" lon="6.347007332369685">
        <ele>542.60000000000002</ele>
        <time>2019-04-25T08:22:54Z</time>
      </trkpt>
      <trkpt lat="50.458938321098685" lon="6.346625285223126">
        <ele>541.65999999999997</ele>
        <time>2019-04-25T08:23:13Z</time>
      </trkpt>
      <trkpt lat="50.459040077403188" lon="6.346285147592425">
        <ele>541.61000000000001</ele>
        <time>2019-04-25T08:23:28Z</time>
      </trkpt>
      <trkpt lat="50.459164883941412" lon="6.345958923920989">
        <ele>539.88999999999999</ele>
        <time>2019-04-25T08:23:44Z</time>
      </trkpt>
      <trkpt lat="50.459224982187152" lon="6.345813330262899">
        <ele>539.05999999999995</ele>
        <time>2019-04-25T08:23:51Z</time>
      </trkpt>
      <trkpt lat="50.459245350211859" lon="6.345787430182099">
        <ele>539.04999999999995</ele>
        <time>2019-04-25T08:23:53Z</time>
      </trkpt>
      <trkpt lat="50.459349872544408" lon="6.345465146005154">
        <ele>538.16999999999996</ele>
        <time>2019-04-25T08:24:10Z</time>
      </trkpt>
      <trkpt lat="50.459454227238894" lon="6.345296837389469">
        <ele>538.13999999999999</ele>
        <time>2019-04-25T08:24:20Z</time>
      </trkpt>
      <trkpt lat="50.459515415132046" lon="6.345215952023864">
        <ele>538.10000000000002</ele>
        <time>2019-04-25T08:24:26Z</time>
      </trkpt>
      <trkpt lat="50.459779696539044" lon="6.344858799129725">
        <ele>538.02999999999997</ele>
        <time>2019-04-25T08:24:49Z</time>
      </trkpt>
      <trkpt lat="50.460039116442204" lon="6.344649083912373">
        <ele>537.95000000000005</ele>
        <time>2019-04-25T08:25:07Z</time>
      </trkpt>
      <trkpt lat="50.460321921855211" lon="6.344551183283329">
        <ele>537.17999999999995</ele>
        <time>2019-04-25T08:25:26Z</time>
      </trkpt>
      <trkpt lat="50.460582934319973" lon="6.344287907704711">
        <ele>534.73000000000002</ele>
        <time>2019-04-25T08:25:44Z</time>
      </trkpt>
      <trkpt lat="50.460793990641832" lon="6.343817850574851">
        <ele>533.86000000000001</ele>
        <time>2019-04-25T08:26:06Z</time>
      </trkpt>
      <trkpt lat="50.461006471887231" lon="6.343425745144486">
        <ele>532.94000000000005</ele>
        <time>2019-04-25T08:26:27Z</time>
      </trkpt>
      <trkpt lat="50.46114519238472" lon="6.343119889497757">
        <ele>532.96000000000004</ele>
        <time>2019-04-25T08:26:42Z</time>
      </trkpt>
      <trkpt lat="50.461283074691892" lon="6.342749493196607">
        <ele>532.97000000000003</ele>
        <time>2019-04-25T08:27:00Z</time>
      </trkpt>
      <trkpt lat="50.461387177929282" lon="6.342324111610651">
        <ele>531.92999999999995</ele>
        <time>2019-04-25T08:27:18Z</time>
      </trkpt>
      <trkpt lat="50.461534028872848" lon="6.341854892671108">
        <ele>531.95000000000005</ele>
        <time>2019-04-25T08:27:38Z</time>
      </trkpt>
      <trkpt lat="50.461670570075512" lon="6.341543672606349">
        <ele>531.04999999999995</ele>
        <time>2019-04-25T08:27:54Z</time>
      </trkpt>
      <trkpt lat="50.461835358291864" lon="6.341309230774641">
        <ele>531.07000000000005</ele>
        <time>2019-04-25T08:28:09Z</time>
      </trkpt>
      <trkpt lat="50.462034344673157" lon="6.341035729274154">
        <ele>530.16999999999996</ele>
        <time>2019-04-25T08:28:26Z</time>
      </trkpt>
      <trkpt lat="50.462243976071477" lon="6.34084889665246">
        <ele>529.32000000000005</ele>
        <time>2019-04-25T08:28:43Z</time>
      </trkpt>
      <trkpt lat="50.462502054870129" lon="6.340740351006389">
        <ele>529.29999999999995</ele>
        <time>2019-04-25T08:29:01Z</time>
      </trkpt>
      <trkpt lat="50.462712440639734" lon="6.340677570551634">
        <ele>528.24000000000001</ele>
        <time>2019-04-25T08:29:17Z</time>
      </trkpt>
      <trkpt lat="50.462896004319191" lon="6.340645467862487">
        <ele>528.14999999999998</ele>
        <time>2019-04-25T08:29:30Z</time>
      </trkpt>
      <trkpt lat="50.463063390925527" lon="6.340682683512569">
        <ele>527.27999999999997</ele>
        <time>2019-04-25T08:29:41Z</time>
      </trkpt>
      <trkpt lat="50.463095074519515" lon="6.340690981596708">
        <ele>527.25</ele>
        <time>2019-04-25T08:29:43Z</time>
      </trkpt>
      <trkpt lat="50.463402606546879" lon="6.340833473950625">
        <ele>526.20000000000005</ele>
        <time>2019-04-25T08:30:03Z</time>
      </trkpt>
      <trkpt lat="50.463621709495783" lon="6.341022569686174">
        <ele>526.01999999999998</ele>
        <time>2019-04-25T08:30:22Z</time>
      </trkpt>
      <trkpt lat="50.46368071809411" lon="6.341096749529243">
        <ele>524.65999999999997</ele>
        <time>2019-04-25T08:30:28Z</time>
      </trkpt>
      <trkpt lat="50.463771326467395" lon="6.341208983212709">
        <ele>526.07000000000005</ele>
        <time>2019-04-25T08:30:36Z</time>
      </trkpt>
      <trkpt lat="50.463949274271727" lon="6.341335885226727">
        <ele>525.90999999999997</ele>
        <time>2019-04-25T08:30:46Z</time>
      </trkpt>
      <trkpt lat="50.463979532942176" lon="6.341351559385657">
        <ele>525.89999999999998</ele>
        <time>2019-04-25T08:30:48Z</time>
      </trkpt>
      <trkpt lat="50.46412143856287" lon="6.341556161642075">
        <ele>525.76999999999998</ele>
        <time>2019-04-25T08:31:01Z</time>
      </trkpt>
      <trkpt lat="50.464127138257027" lon="6.341588431969285">
        <ele>523.36000000000001</ele>
        <time>2019-04-25T08:31:03Z</time>
      </trkpt>
      <trkpt lat="50.464422097429633" lon="6.341930413618684">
        <ele>522.38</ele>
        <time>2019-04-25T08:31:22Z</time>
      </trkpt>
      <trkpt lat="50.464653270319104" lon="6.342102326452732">
        <ele>521.44000000000005</ele>
        <time>2019-04-25T08:31:36Z</time>
      </trkpt>
      <trkpt lat="50.464893244206905" lon="6.342165442183614">
        <ele>518.84000000000003</ele>
        <time>2019-04-25T08:31:51Z</time>
      </trkpt>
      <trkpt lat="50.465139672160149" lon="6.342183463275433">
        <ele>517.02999999999997</ele>
        <time>2019-04-25T08:32:11Z</time>
      </trkpt>
      <trkpt lat="50.465346118435264" lon="6.342245237901807">
        <ele>515.15999999999997</ele>
        <time>2019-04-25T08:32:32Z</time>
      </trkpt>
      <trkpt lat="50.465605957433581" lon="6.342474650591612">
        <ele>513.13999999999999</ele>
        <time>2019-04-25T08:32:54Z</time>
      </trkpt>
      <trkpt lat="50.465746186673641" lon="6.342536676675081">
        <ele>512.16999999999996</ele>
        <time>2019-04-25T08:33:03Z</time>
      </trkpt>
      <trkpt lat="50.465947017073631" lon="6.342662321403623">
        <ele>510.99000000000001</ele>
        <time>2019-04-25T08:33:19Z</time>
      </trkpt>
      <trkpt lat="50.466210376471281" lon="6.342737339437008">
        <ele>508.94</ele>
        <time>2019-04-25T08:33:41Z</time>
      </trkpt>
      <trkpt lat="50.466430652886629" lon="6.342807412147522">
        <ele>507.74000000000001</ele>
        <time>2019-04-25T08:33:57Z</time>
      </trkpt>
      <trkpt lat="50.466707088053226" lon="6.342915622517467">
        <ele>506.5</ele>
        <time>2019-04-25T08:34:16Z</time>
      </trkpt>
      <trkpt lat="50.467040603980422" lon="6.343135898932815">
        <ele>505.98000000000002</ele>
        <time>2019-04-25T08:34:37Z</time>
      </trkpt>
      <trkpt lat="50.467333132401109" lon="6.343248803168535">
        <ele>504.76999999999998</ele>
        <time>2019-04-25T08:34:55Z</time>
      </trkpt>
      <trkpt lat="50.467646699398756" lon="6.34339808486402">
        <ele>503.49000000000001</ele>
        <time>2019-04-25T08:35:16Z</time>
      </trkpt>
      <trkpt lat="50.46789949759841" lon="6.343565974384546">
        <ele>502.95999999999998</ele>
        <time>2019-04-25T08:35:37Z</time>
      </trkpt>
      <trkpt lat="50.468175262212753" lon="6.343668149784207">
        <ele>502.50999999999999</ele>
        <time>2019-04-25T08:35:54Z</time>
      </trkpt>
      <trkpt lat="50.468546831980348" lon="6.343769151717424">
        <ele>501.94</ele>
        <time>2019-04-25T08:36:15Z</time>
      </trkpt>
      <trkpt lat="50.468561919406056" lon="6.34376797825098">
        <ele>501.92000000000002</ele>
        <time>2019-04-25T08:36:16Z</time>
      </trkpt>
      <trkpt lat="50.468860231339931" lon="6.34377091191709">
        <ele>501.54000000000002</ele>
        <time>2019-04-25T08:36:31Z</time>
      </trkpt>
      <trkpt lat="50.46902191825211" lon="6.343757836148143">
        <ele>501.19</ele>
        <time>2019-04-25T08:36:47Z</time>
      </trkpt>
      <trkpt lat="50.469082435593009" lon="6.343788849189878">
        <ele>503.07999999999998</ele>
        <time>2019-04-25T08:37:05Z</time>
      </trkpt>
      <trkpt lat="50.469085788354278" lon="6.343785747885704">
        <ele>500.57999999999998</ele>
        <time>2019-04-25T08:37:07Z</time>
      </trkpt>
      <trkpt lat="50.469191148877144" lon="6.343834362924099">
        <ele>497.27999999999997</ele>
        <time>2019-04-25T08:37:22Z</time>
      </trkpt>
      <trkpt lat="50.469287624582648" lon="6.343710646033287">
        <ele>501.01999999999998</ele>
        <time>2019-04-25T08:37:45Z</time>
      </trkpt>
      <trkpt lat="50.46928427182138" lon="6.343692038208246">
        <ele>498.44999999999999</ele>
        <time>2019-04-25T08:37:54Z</time>
      </trkpt>
      <trkpt lat="50.469286283478141" lon="6.343704275786877">
        <ele>496.14999999999998</ele>
        <time>2019-04-25T08:37:59Z</time>
      </trkpt>
      <trkpt lat="50.469286451116204" lon="6.343704359605908">
        <ele>500.20999999999998</ele>
        <time>2019-04-25T08:38:00Z</time>
      </trkpt>
      <trkpt lat="50.469287624582648" lon="6.343707628548145">
        <ele>500.23000000000002</ele>
        <time>2019-04-25T08:38:01Z</time>
      </trkpt>
      <trkpt lat="50.46934143640101" lon="6.343779042363167">
        <ele>501.18000000000001</ele>
        <time>2019-04-25T08:38:28Z</time>
      </trkpt>
      <trkpt lat="50.469345794990659" lon="6.343777617439628">
        <ele>502.49000000000001</ele>
        <time>2019-04-25T08:38:30Z</time>
      </trkpt>
      <trkpt lat="50.469378232955933" lon="6.343764122575522">
        <ele>500.05000000000001</ele>
        <time>2019-04-25T08:38:38Z</time>
      </trkpt>
      <trkpt lat="50.469440510496497" lon="6.343737635761499">
        <ele>500.06999999999999</ele>
        <time>2019-04-25T08:38:42Z</time>
      </trkpt>
      <trkpt lat="50.46963119879365" lon="6.343628587201238">
        <ele>499.38</ele>
        <time>2019-04-25T08:38:58Z</time>
      </trkpt>
      <trkpt lat="50.469775786623359" lon="6.343546779826284">
        <ele>499.5</ele>
        <time>2019-04-25T08:39:15Z</time>
      </trkpt>
      <trkpt lat="50.47006169334054" lon="6.343519706279039">
        <ele>499.57999999999998</ele>
        <time>2019-04-25T08:39:33Z</time>
      </trkpt>
      <trkpt lat="50.470350533723831" lon="6.343487687408924">
        <ele>499.63999999999999</ele>
        <time>2019-04-25T08:39:51Z</time>
      </trkpt>
      <trkpt lat="50.470540970563889" lon="6.343428678810597">
        <ele>499.63999999999999</ele>
        <time>2019-04-25T08:40:05Z</time>
      </trkpt>
      <trkpt lat="50.47066317871213" lon="6.343328431248665">
        <ele>499.62</ele>
        <time>2019-04-25T08:40:14Z</time>
      </trkpt>
      <trkpt lat="50.470876665785909" lon="6.34318895637989">
        <ele>499.56</ele>
        <time>2019-04-25T08:40:30Z</time>
      </trkpt>
      <trkpt lat="50.470919664949179" lon="6.343147298321128">
        <ele>499.55000000000001</ele>
        <time>2019-04-25T08:40:34Z</time>
      </trkpt>
      <trkpt lat="50.471059223636985" lon="6.34288058616221">
        <ele>499.5</ele>
        <time>2019-04-25T08:40:47Z</time>
      </trkpt>
      <trkpt lat="50.471072718501091" lon="6.342871785163879">
        <ele>499.5</ele>
        <time>2019-04-25T08:40:48Z</time>
      </trkpt>
      <trkpt lat="50.471096942201257" lon="6.342799700796604">
        <ele>499.49000000000001</ele>
        <time>2019-04-25T08:40:50Z</time>
      </trkpt>
      <trkpt lat="50.47116014175117" lon="6.342743961140513">
        <ele>499.45999999999998</ele>
        <time>2019-04-25T08:40:55Z</time>
      </trkpt>
      <trkpt lat="50.471307579427958" lon="6.342567689716816">
        <ele>499.38</ele>
        <time>2019-04-25T08:41:10Z</time>
      </trkpt>
      <trkpt lat="50.471496926620603" lon="6.342394184321165">
        <ele>499.29000000000002</ele>
        <time>2019-04-25T08:41:25Z</time>
      </trkpt>
      <trkpt lat="50.471658445894718" lon="6.342242052778602">
        <ele>498.43000000000001</ele>
        <time>2019-04-25T08:41:39Z</time>
      </trkpt>
      <trkpt lat="50.471787191927433" lon="6.341970060020685">
        <ele>498.32999999999998</ele>
        <time>2019-04-25T08:41:52Z</time>
      </trkpt>
      <trkpt lat="50.471866149455309" lon="6.341683901846409">
        <ele>497.38999999999999</ele>
        <time>2019-04-25T08:42:01Z</time>
      </trkpt>
      <trkpt lat="50.47189305536449" lon="6.341627910733223">
        <ele>497.38</ele>
        <time>2019-04-25T08:42:04Z</time>
      </trkpt>
      <trkpt lat="50.472031775861979" lon="6.341403611004353">
        <ele>497.33999999999997</ele>
        <time>2019-04-25T08:42:18Z</time>
      </trkpt>
      <trkpt lat="50.472154067829251" lon="6.341094234958291">
        <ele>497.31</ele>
        <time>2019-04-25T08:42:31Z</time>
      </trkpt>
      <trkpt lat="50.472174100577831" lon="6.340966494753957">
        <ele>497.29000000000002</ele>
        <time>2019-04-25T08:42:35Z</time>
      </trkpt>
      <trkpt lat="50.472166137769818" lon="6.340892985463142">
        <ele>497.27999999999997</ele>
        <time>2019-04-25T08:42:38Z</time>
      </trkpt>
      <trkpt lat="50.472168484702706" lon="6.340843783691526">
        <ele>497.27999999999997</ele>
        <time>2019-04-25T08:42:40Z</time>
      </trkpt>
      <trkpt lat="50.472195474430919" lon="6.340601965785027">
        <ele>497.20999999999998</ele>
        <time>2019-04-25T08:42:51Z</time>
      </trkpt>
      <trkpt lat="50.472197402268648" lon="6.340488307178021">
        <ele>496.31999999999999</ele>
        <time>2019-04-25T08:42:56Z</time>
      </trkpt>
      <trkpt lat="50.47226001508534" lon="6.340227378532291">
        <ele>496.25999999999999</ele>
        <time>2019-04-25T08:43:09Z</time>
      </trkpt>
      <trkpt lat="50.472311312332749" lon="6.340098381042481">
        <ele>496.19999999999999</ele>
        <time>2019-04-25T08:43:18Z</time>
      </trkpt>
      <trkpt lat="50.472414828836918" lon="6.339850276708603">
        <ele>496.10000000000002</ele>
        <time>2019-04-25T08:43:31Z</time>
      </trkpt>
      <trkpt lat="50.472421366721392" lon="6.339767295867205">
        <ele>496.07999999999998</ele>
        <time>2019-04-25T08:43:33Z</time>
      </trkpt>
      <trkpt lat="50.472504179924726" lon="6.339443000033498">
        <ele>495.89999999999998</ele>
        <time>2019-04-25T08:43:48Z</time>
      </trkpt>
      <trkpt lat="50.472628818824887" lon="6.339144436642528">
        <ele>495.75</ele>
        <time>2019-04-25T08:44:02Z</time>
      </trkpt>
      <trkpt lat="50.472654886543751" lon="6.338960956782103">
        <ele>495.70999999999998</ele>
        <time>2019-04-25T08:44:06Z</time>
      </trkpt>
      <trkpt lat="50.47284197062254" lon="6.33870966732502">
        <ele>495.55000000000001</ele>
        <time>2019-04-25T08:44:23Z</time>
      </trkpt>
      <trkpt lat="50.472915647551417" lon="6.338690388947725">
        <ele>495.51999999999998</ele>
        <time>2019-04-25T08:44:28Z</time>
      </trkpt>
      <trkpt lat="50.473098456859589" lon="6.338611347600818">
        <ele>495.43000000000001</ele>
        <time>2019-04-25T08:44:45Z</time>
      </trkpt>
      <trkpt lat="50.473154867067933" lon="6.338582765311003">
        <ele>495.41000000000003</ele>
        <time>2019-04-25T08:44:50Z</time>
      </trkpt>
      <trkpt lat="50.473287384957075" lon="6.338525516912341">
        <ele>495.38999999999999</ele>
        <time>2019-04-25T08:44:58Z</time>
      </trkpt>
      <trkpt lat="50.473339939489961" lon="6.338514871895313">
        <ele>494.45999999999998</ele>
        <time>2019-04-25T08:45:02Z</time>
      </trkpt>
      <trkpt lat="50.473509756848216" lon="6.338441530242562">
        <ele>494.38999999999999</ele>
        <time>2019-04-25T08:45:17Z</time>
      </trkpt>
      <trkpt lat="50.473674712702632" lon="6.338467095047236">
        <ele>493.56</ele>
        <time>2019-04-25T08:45:29Z</time>
      </trkpt>
      <trkpt lat="50.47393212094903" lon="6.338390316814184">
        <ele>493.5</ele>
        <time>2019-04-25T08:45:44Z</time>
      </trkpt>
      <trkpt lat="50.474141500890255" lon="6.338312616571784">
        <ele>492.64999999999998</ele>
        <time>2019-04-25T08:46:02Z</time>
      </trkpt>
      <trkpt lat="50.474254572764039" lon="6.338333236053586">
        <ele>492.64999999999998</ele>
        <time>2019-04-25T08:46:12Z</time>
      </trkpt>
      <trkpt lat="50.4744603484869" lon="6.338494503870606">
        <ele>491.75</ele>
        <time>2019-04-25T08:46:30Z</time>
      </trkpt>
      <trkpt lat="50.474766539409757" lon="6.338738417252898">
        <ele>492.99000000000001</ele>
        <time>2019-04-25T08:46:46Z</time>
      </trkpt>
      <trkpt lat="50.475009782239795" lon="6.338945114985108">
        <ele>490.68000000000001</ele>
        <time>2019-04-25T08:47:01Z</time>
      </trkpt>
      <trkpt lat="50.475024953484535" lon="6.3389559276402">
        <ele>490.60000000000002</ele>
        <time>2019-04-25T08:47:02Z</time>
      </trkpt>
      <trkpt lat="50.47514196485281" lon="6.33915432728827">
        <ele>490.72000000000003</ele>
        <time>2019-04-25T08:47:15Z</time>
      </trkpt>
      <trkpt lat="50.475189657881856" lon="6.339295729994774">
        <ele>487.25999999999999</ele>
        <time>2019-04-25T08:47:21Z</time>
      </trkpt>
      <trkpt lat="50.475196363404393" lon="6.339319702237845">
        <ele>491.76999999999998</ele>
        <time>2019-04-25T08:47:22Z</time>
      </trkpt>
      <trkpt lat="50.475284541025758" lon="6.339502511546016">
        <ele>491.69999999999999</ele>
        <time>2019-04-25T08:47:30Z</time>
      </trkpt>
      <trkpt lat="50.475368276238441" lon="6.339579457417131">
        <ele>487.93000000000001</ele>
        <time>2019-04-25T08:47:35Z</time>
      </trkpt>
      <trkpt lat="50.475528538227081" lon="6.339761009439826">
        <ele>490.48000000000002</ele>
        <time>2019-04-25T08:47:46Z</time>
      </trkpt>
      <trkpt lat="50.475565418601036" lon="6.33977978490293">
        <ele>485.56999999999999</ele>
        <time>2019-04-25T08:47:48Z</time>
      </trkpt>
      <trkpt lat="50.47561889514327" lon="6.339819766581059">
        <ele>487.43000000000001</ele>
        <time>2019-04-25T08:47:52Z</time>
      </trkpt>
      <trkpt lat="50.475627360865474" lon="6.339838793501258">
        <ele>487.41000000000003</ele>
        <time>2019-04-25T08:47:53Z</time>
      </trkpt>
      <trkpt lat="50.47564085572958" lon="6.339860334992409">
        <ele>489.93000000000001</ele>
        <time>2019-04-25T08:47:55Z</time>
      </trkpt>
      <trkpt lat="50.475767338648438" lon="6.340032918378711">
        <ele>489.73000000000002</ele>
        <time>2019-04-25T08:48:04Z</time>
      </trkpt>
      <trkpt lat="50.475824922323227" lon="6.340101901441813">
        <ele>489.75999999999999</ele>
        <time>2019-04-25T08:48:09Z</time>
      </trkpt>
      <trkpt lat="50.475897341966629" lon="6.340170046314597">
        <ele>489.86000000000001</ele>
        <time>2019-04-25T08:48:15Z</time>
      </trkpt>
      <trkpt lat="50.476014269515872" lon="6.340278759598732">
        <ele>489.86000000000001</ele>
        <time>2019-04-25T08:48:29Z</time>
      </trkpt>
      <trkpt lat="50.476033799350262" lon="6.340306084603071">
        <ele>487.50999999999999</ele>
        <time>2019-04-25T08:48:32Z</time>
      </trkpt>
      <trkpt lat="50.476168747991323" lon="6.340430891141295">
        <ele>487.60000000000002</ele>
        <time>2019-04-25T08:48:49Z</time>
      </trkpt>
      <trkpt lat="50.476377457380295" lon="6.34059970267117">
        <ele>487.60000000000002</ele>
        <time>2019-04-25T08:49:08Z</time>
      </trkpt>
      <trkpt lat="50.476494552567601" lon="6.340678576380014">
        <ele>487.57999999999998</ele>
        <time>2019-04-25T08:49:15Z</time>
      </trkpt>
      <trkpt lat="50.47680577263236" lon="6.340913353487849">
        <ele>486.74000000000001</ele>
        <time>2019-04-25T08:49:35Z</time>
      </trkpt>
      <trkpt lat="50.476978356018662" lon="6.341013014316559">
        <ele>485.95999999999998</ele>
        <time>2019-04-25T08:49:48Z</time>
      </trkpt>
      <trkpt lat="50.477142473682761" lon="6.3411317858845">
        <ele>485.97000000000003</ele>
        <time>2019-04-25T08:49:57Z</time>
      </trkpt>
      <trkpt lat="50.477313799783587" lon="6.341232284903526">
        <ele>484.23000000000002</ele>
        <time>2019-04-25T08:50:10Z</time>
      </trkpt>
      <trkpt lat="50.477509768679738" lon="6.341417860239744">
        <ele>484.25999999999999</ele>
        <time>2019-04-25T08:50:25Z</time>
      </trkpt>
      <trkpt lat="50.477843033149838" lon="6.341698989272118">
        <ele>484.12</ele>
        <time>2019-04-25T08:50:45Z</time>
      </trkpt>
      <trkpt lat="50.47803564928472" lon="6.341865370050073">
        <ele>483.25</ele>
        <time>2019-04-25T08:50:57Z</time>
      </trkpt>
      <trkpt lat="50.480676954612136" lon="6.341883726418018">
        <ele>475.56</ele>
        <time>2019-04-25T08:53:49Z</time>
      </trkpt>
      <trkpt lat="50.480746859684587" lon="6.341860257089138">
        <ele>475.50999999999999</ele>
        <time>2019-04-25T08:53:54Z</time>
      </trkpt>
      <trkpt lat="50.480775693431497" lon="6.341832596808672">
        <ele>475.47000000000003</ele>
        <time>2019-04-25T08:53:56Z</time>
      </trkpt>
      <trkpt lat="50.480981050059199" lon="6.341770235449076">
        <ele>475.39999999999998</ele>
        <time>2019-04-25T08:54:09Z</time>
      </trkpt>
      <trkpt lat="50.481154974550009" lon="6.341789178550243">
        <ele>474.52999999999997</ele>
        <time>2019-04-25T08:54:22Z</time>
      </trkpt>
      <trkpt lat="50.481284139677882" lon="6.341766882687807">
        <ele>474.47000000000003</ele>
        <time>2019-04-25T08:54:31Z</time>
      </trkpt>
      <trkpt lat="50.481337951496243" lon="6.341768307611346">
        <ele>474.47000000000003</ele>
        <time>2019-04-25T08:54:35Z</time>
      </trkpt>
      <trkpt lat="50.481532830744982" lon="6.341795045882464">
        <ele>473.50999999999999</ele>
        <time>2019-04-25T08:54:49Z</time>
      </trkpt>
      <trkpt lat="50.481720417737961" lon="6.341827148571611">
        <ele>473.39999999999998</ele>
        <time>2019-04-25T08:55:00Z</time>
      </trkpt>
      <trkpt lat="50.481960643082857" lon="6.341740479692817">
        <ele>473.24000000000001</ele>
        <time>2019-04-25T08:55:17Z</time>
      </trkpt>
      <trkpt lat="50.482180835679173" lon="6.341573260724545">
        <ele>472.31999999999999</ele>
        <time>2019-04-25T08:55:30Z</time>
      </trkpt>
      <trkpt lat="50.482209753245115" lon="6.34157451801002">
        <ele>472.31</ele>
        <time>2019-04-25T08:55:32Z</time>
      </trkpt>
      <trkpt lat="50.48242692835629" lon="6.341335047036409">
        <ele>472.19</ele>
        <time>2019-04-25T08:55:50Z</time>
      </trkpt>
      <trkpt lat="50.482689198106527" lon="6.341397324576974">
        <ele>472.11000000000001</ele>
        <time>2019-04-25T08:56:07Z</time>
      </trkpt>
      <trkpt lat="50.482816100120544" lon="6.34148851968348">
        <ele>471.31999999999999</ele>
        <time>2019-04-25T08:56:17Z</time>
      </trkpt>
      <trkpt lat="50.483095301315188" lon="6.341709801927209">
        <ele>471.26999999999998</ele>
        <time>2019-04-25T08:56:37Z</time>
      </trkpt>
      <trkpt lat="50.483198398724198" lon="6.341776605695486">
        <ele>471.26999999999998</ele>
        <time>2019-04-25T08:56:43Z</time>
      </trkpt>
      <trkpt lat="50.483230417594314" lon="6.341834357008338">
        <ele>471.26999999999998</ele>
        <time>2019-04-25T08:56:47Z</time>
      </trkpt>
      <trkpt lat="50.483343489468098" lon="6.341961594298482">
        <ele>470.47000000000003</ele>
        <time>2019-04-25T08:56:56Z</time>
      </trkpt>
      <trkpt lat="50.483363606035709" lon="6.341994618996978">
        <ele>470.45999999999998</ele>
        <time>2019-04-25T08:56:58Z</time>
      </trkpt>
      <trkpt lat="50.483400570228696" lon="6.342064859345555">
        <ele>470.47000000000003</ele>
        <time>2019-04-25T08:57:02Z</time>
      </trkpt>
      <trkpt lat="50.483441976830363" lon="6.342150438576937">
        <ele>470.47000000000003</ele>
        <time>2019-04-25T08:57:07Z</time>
      </trkpt>
      <trkpt lat="50.483465027064085" lon="6.342211123555899">
        <ele>470.47000000000003</ele>
        <time>2019-04-25T08:57:10Z</time>
      </trkpt>
      <trkpt lat="50.483531579375267" lon="6.342311790212989">
        <ele>470.47000000000003</ele>
        <time>2019-04-25T08:57:15Z</time>
      </trkpt>
      <trkpt lat="50.483690835535526" lon="6.342479093000293">
        <ele>470.49000000000001</ele>
        <time>2019-04-25T08:57:26Z</time>
      </trkpt>
      <trkpt lat="50.483709862455726" lon="6.342489151284099">
        <ele>470.49000000000001</ele>
        <time>2019-04-25T08:57:27Z</time>
      </trkpt>
      <trkpt lat="50.483804075047374" lon="6.342645389959216">
        <ele>470.50999999999999</ele>
        <time>2019-04-25T08:57:36Z</time>
      </trkpt>
      <trkpt lat="50.483967941254377" lon="6.342893410474062">
        <ele>470.42000000000002</ele>
        <time>2019-04-25T08:57:51Z</time>
      </trkpt>
      <trkpt lat="50.484074223786592" lon="6.343063730746508">
        <ele>466.82999999999998</ele>
        <time>2019-04-25T08:58:01Z</time>
      </trkpt>
      <trkpt lat="50.484079252928495" lon="6.343083260580897">
        <ele>471.01999999999998</ele>
        <time>2019-04-25T08:58:02Z</time>
      </trkpt>
      <trkpt lat="50.484087551012635" lon="6.343101533129811">
        <ele>466.88999999999999</ele>
        <time>2019-04-25T08:58:03Z</time>
      </trkpt>
      <trkpt lat="50.484094424173236" lon="6.343119721859694">
        <ele>470.31</ele>
        <time>2019-04-25T08:58:04Z</time>
      </trkpt>
      <trkpt lat="50.484112780541182" lon="6.343157105147839">
        <ele>466.93000000000001</ele>
        <time>2019-04-25T08:58:06Z</time>
      </trkpt>
      <trkpt lat="50.484133651480079" lon="6.343185771256685">
        <ele>470.54000000000002</ele>
        <time>2019-04-25T08:58:08Z</time>
      </trkpt>
      <trkpt lat="50.48414790071547" lon="6.343193482607603">
        <ele>470.5</ele>
        <time>2019-04-25T08:58:09Z</time>
      </trkpt>
      <trkpt lat="50.484250914305449" lon="6.343439659103751">
        <ele>470.32999999999998</ele>
        <time>2019-04-25T08:58:22Z</time>
      </trkpt>
      <trkpt lat="50.484423665329814" lon="6.343682147562504">
        <ele>470.18000000000001</ele>
        <time>2019-04-25T08:58:37Z</time>
      </trkpt>
      <trkpt lat="50.484503041952848" lon="6.343857413157821">
        <ele>467.12</ele>
        <time>2019-04-25T08:58:46Z</time>
      </trkpt>
      <trkpt lat="50.484541933983564" lon="6.343988925218582">
        <ele>469.61000000000001</ele>
        <time>2019-04-25T08:58:53Z</time>
      </trkpt>
      <trkpt lat="50.484546208754182" lon="6.344008287414908">
        <ele>469.60000000000002</ele>
        <time>2019-04-25T08:58:54Z</time>
      </trkpt>
      <trkpt lat="50.484588705003262" lon="6.344106858596206">
        <ele>469.50999999999999</ele>
        <time>2019-04-25T08:58:59Z</time>
      </trkpt>
      <trkpt lat="50.484752906486392" lon="6.344429897144437">
        <ele>469.22000000000003</ele>
        <time>2019-04-25T08:59:15Z</time>
      </trkpt>
      <trkpt lat="50.484862457960844" lon="6.344552021473646">
        <ele>466.68000000000001</ele>
        <time>2019-04-25T08:59:27Z</time>
      </trkpt>
      <trkpt lat="50.485054487362504" lon="6.344752348959446">
        <ele>465.66000000000003</ele>
        <time>2019-04-25T08:59:42Z</time>
      </trkpt>
      <trkpt lat="50.485146269202232" lon="6.344874557107687">
        <ele>465.55000000000001</ele>
        <time>2019-04-25T08:59:49Z</time>
      </trkpt>
      <trkpt lat="50.48517300747335" lon="6.344909006729722">
        <ele>465.5</ele>
        <time>2019-04-25T08:59:51Z</time>
      </trkpt>
      <trkpt lat="50.485236626118422" lon="6.34498804807663">
        <ele>465.41000000000003</ele>
        <time>2019-04-25T08:59:55Z</time>
      </trkpt>
      <trkpt lat="50.48536260612309" lon="6.345190890133381">
        <ele>465.19999999999999</ele>
        <time>2019-04-25T09:00:06Z</time>
      </trkpt>
      <trkpt lat="50.48562303185463" lon="6.345446705818176">
        <ele>464.02999999999997</ele>
        <time>2019-04-25T09:00:24Z</time>
      </trkpt>
      <trkpt lat="50.485757309943438" lon="6.345659103244543">
        <ele>462.83999999999997</ele>
        <time>2019-04-25T09:00:43Z</time>
      </trkpt>
      <trkpt lat="50.485905166715384" lon="6.345976023003459">
        <ele>461.80000000000001</ele>
        <time>2019-04-25T09:01:02Z</time>
      </trkpt>
      <trkpt lat="50.48597733490169" lon="6.346103427931666">
        <ele>462.13</ele>
        <time>2019-04-25T09:01:11Z</time>
      </trkpt>
      <trkpt lat="50.486082192510366" lon="6.346319178119302">
        <ele>461.88999999999999</ele>
        <time>2019-04-25T09:01:23Z</time>
      </trkpt>
      <trkpt lat="50.486238598823547" lon="6.346742631867528">
        <ele>461.68000000000001</ele>
        <time>2019-04-25T09:01:43Z</time>
      </trkpt>
      <trkpt lat="50.486385282129049" lon="6.34717664681375">
        <ele>461.43000000000001</ele>
        <time>2019-04-25T09:02:02Z</time>
      </trkpt>
      <trkpt lat="50.486506735906005" lon="6.347475126385689">
        <ele>461.19999999999999</ele>
        <time>2019-04-25T09:02:19Z</time>
      </trkpt>
      <trkpt lat="50.486652497202158" lon="6.347869662567973">
        <ele>460.94</ele>
        <time>2019-04-25T09:02:39Z</time>
      </trkpt>
      <trkpt lat="50.48675274476409" lon="6.348039396107197">
        <ele>460.76999999999998</ele>
        <time>2019-04-25T09:02:50Z</time>
      </trkpt>
      <trkpt lat="50.486865229904652" lon="6.348338294774294">
        <ele>460.55000000000001</ele>
        <time>2019-04-25T09:03:03Z</time>
      </trkpt>
      <trkpt lat="50.486922478303313" lon="6.348551195114851">
        <ele>458</ele>
        <time>2019-04-25T09:03:13Z</time>
      </trkpt>
      <trkpt lat="50.4871148429811" lon="6.348960231989622">
        <ele>456.81999999999999</ele>
        <time>2019-04-25T09:03:33Z</time>
      </trkpt>
      <trkpt lat="50.487155662849545" lon="6.349055198952556">
        <ele>453.50999999999999</ele>
        <time>2019-04-25T09:03:37Z</time>
      </trkpt>
      <trkpt lat="50.487162033095956" lon="6.349087385460734">
        <ele>457.41000000000003</ele>
        <time>2019-04-25T09:03:38Z</time>
      </trkpt>
      <trkpt lat="50.487172929570079" lon="6.349159553647041">
        <ele>457.36000000000001</ele>
        <time>2019-04-25T09:03:40Z</time>
      </trkpt>
      <trkpt lat="50.487186005339026" lon="6.349230632185936">
        <ele>457.32999999999998</ele>
        <time>2019-04-25T09:03:43Z</time>
      </trkpt>
      <trkpt lat="50.48722137697041" lon="6.349519891664386">
        <ele>457.88999999999999</ele>
        <time>2019-04-25T09:03:57Z</time>
      </trkpt>
      <trkpt lat="50.487249623984098" lon="6.349784340709448">
        <ele>457.67000000000002</ele>
        <time>2019-04-25T09:04:09Z</time>
      </trkpt>
      <trkpt lat="50.487235374748707" lon="6.349903615191579">
        <ele>457.58999999999997</ele>
        <time>2019-04-25T09:04:14Z</time>
      </trkpt>
      <trkpt lat="50.487269572913647" lon="6.350020207464695">
        <ele>452.69</ele>
        <time>2019-04-25T09:04:18Z</time>
      </trkpt>
      <trkpt lat="50.487280553206801" lon="6.35004342533648">
        <ele>460.44999999999999</ele>
        <time>2019-04-25T09:04:19Z</time>
      </trkpt>
      <trkpt lat="50.487286252900958" lon="6.350065972656012">
        <ele>460.44</ele>
        <time>2019-04-25T09:04:20Z</time>
      </trkpt>
      <trkpt lat="50.487301759421825" lon="6.350098662078381">
        <ele>457.36000000000001</ele>
        <time>2019-04-25T09:04:21Z</time>
      </trkpt>
      <trkpt lat="50.487305531278253" lon="6.350122718140483">
        <ele>457.33999999999997</ele>
        <time>2019-04-25T09:04:22Z</time>
      </trkpt>
      <trkpt lat="50.487344171851873" lon="6.350212739780545">
        <ele>457.29000000000002</ele>
        <time>2019-04-25T09:04:26Z</time>
      </trkpt>
      <trkpt lat="50.487362779676914" lon="6.350323799997568">
        <ele>457.23000000000002</ele>
        <time>2019-04-25T09:04:31Z</time>
      </trkpt>
      <trkpt lat="50.487428745254874" lon="6.35058531537652">
        <ele>457.06999999999999</ele>
        <time>2019-04-25T09:04:46Z</time>
      </trkpt>
      <trkpt lat="50.487560927867889" lon="6.351010948419571">
        <ele>456.82999999999998</ele>
        <time>2019-04-25T09:05:07Z</time>
      </trkpt>
      <trkpt lat="50.487599233165383" lon="6.351105496287346">
        <ele>456.79000000000002</ele>
        <time>2019-04-25T09:05:12Z</time>
      </trkpt>
      <trkpt lat="50.487679867073894" lon="6.351478910073638">
        <ele>456.66000000000003</ele>
        <time>2019-04-25T09:05:28Z</time>
      </trkpt>
      <trkpt lat="50.487732086330652" lon="6.351741598919034">
        <ele>456.57999999999998</ele>
        <time>2019-04-25T09:05:39Z</time>
      </trkpt>
      <trkpt lat="50.487735187634826" lon="6.351799685508013">
        <ele>456.56</ele>
        <time>2019-04-25T09:05:42Z</time>
      </trkpt>
      <trkpt lat="50.487744575366378" lon="6.351982243359089">
        <ele>456.49000000000001</ele>
        <time>2019-04-25T09:05:52Z</time>
      </trkpt>
      <trkpt lat="50.487732589244843" lon="6.352364290505648">
        <ele>456.39999999999998</ele>
        <time>2019-04-25T09:06:09Z</time>
      </trkpt>
      <trkpt lat="50.487777180969715" lon="6.35257157497108">
        <ele>456.38999999999999</ele>
        <time>2019-04-25T09:06:19Z</time>
      </trkpt>
      <trkpt lat="50.487808110192418" lon="6.352829989045858">
        <ele>456.30000000000001</ele>
        <time>2019-04-25T09:06:30Z</time>
      </trkpt>
      <trkpt lat="50.487819761037827" lon="6.352902576327324">
        <ele>456.26999999999998</ele>
        <time>2019-04-25T09:06:33Z</time>
      </trkpt>
      <trkpt lat="50.487846834585071" lon="6.353263417258859">
        <ele>456.16000000000003</ele>
        <time>2019-04-25T09:06:47Z</time>
      </trkpt>
      <trkpt lat="50.487860916182399" lon="6.353336423635483">
        <ele>456.13</ele>
        <time>2019-04-25T09:06:50Z</time>
      </trkpt>
      <trkpt lat="50.487862676382065" lon="6.353771779686213">
        <ele>456.00999999999999</ele>
        <time>2019-04-25T09:07:08Z</time>
      </trkpt>
      <trkpt lat="50.487961750477552" lon="6.354040252044797">
        <ele>455.95999999999998</ele>
        <time>2019-04-25T09:07:21Z</time>
      </trkpt>
      <trkpt lat="50.487989829853177" lon="6.354396985843778">
        <ele>455.85000000000002</ele>
        <time>2019-04-25T09:07:38Z</time>
      </trkpt>
      <trkpt lat="50.487991673871875" lon="6.354411318898201">
        <ele>455.83999999999997</ele>
        <time>2019-04-25T09:07:39Z</time>
      </trkpt>
      <trkpt lat="50.48808672465384" lon="6.35486570186913">
        <ele>455.74000000000001</ele>
        <time>2019-04-25T09:08:01Z</time>
      </trkpt>
      <trkpt lat="50.488183116540313" lon="6.355243809521198">
        <ele>455.58999999999997</ele>
        <time>2019-04-25T09:08:20Z</time>
      </trkpt>
      <trkpt lat="50.488401465117931" lon="6.355570033192635">
        <ele>454.57999999999998</ele>
        <time>2019-04-25T09:08:40Z</time>
      </trkpt>
      <trkpt lat="50.488513028249145" lon="6.355723170563579">
        <ele>453.66000000000003</ele>
        <time>2019-04-25T09:08:49Z</time>
      </trkpt>
      <trkpt lat="50.488679325208068" lon="6.355976304039359">
        <ele>453.54000000000002</ele>
        <time>2019-04-25T09:09:04Z</time>
      </trkpt>
      <trkpt lat="50.488848891109228" lon="6.356265563517809">
        <ele>451.33999999999997</ele>
        <time>2019-04-25T09:09:24Z</time>
      </trkpt>
      <trkpt lat="50.488900942727923" lon="6.356311747804284">
        <ele>451.27999999999997</ele>
        <time>2019-04-25T09:09:27Z</time>
      </trkpt>
      <trkpt lat="50.48913387581706" lon="6.356510818004608">
        <ele>449.25999999999999</ele>
        <time>2019-04-25T09:09:46Z</time>
      </trkpt>
      <trkpt lat="50.489158099517226" lon="6.356544094160199">
        <ele>443.77999999999997</ele>
        <time>2019-04-25T09:09:49Z</time>
      </trkpt>
      <trkpt lat="50.489172516390681" lon="6.356546860188246">
        <ele>449.56</ele>
        <time>2019-04-25T09:09:50Z</time>
      </trkpt>
      <trkpt lat="50.489301262423396" lon="6.356684826314449">
        <ele>449.13999999999999</ele>
        <time>2019-04-25T09:10:01Z</time>
      </trkpt>
      <trkpt lat="50.489409388974309" lon="6.356836287304759">
        <ele>446.69</ele>
        <time>2019-04-25T09:10:12Z</time>
      </trkpt>
      <trkpt lat="50.489432942122221" lon="6.356887416914105">
        <ele>446.62</ele>
        <time>2019-04-25T09:10:18Z</time>
      </trkpt>
      <trkpt lat="50.489472420886159" lon="6.356958663091064">
        <ele>445.29000000000002</ele>
        <time>2019-04-25T09:10:24Z</time>
      </trkpt>
      <trkpt lat="50.48960686661303" lon="6.356858247891069">
        <ele>445.19999999999999</ele>
        <time>2019-04-25T09:10:31Z</time>
      </trkpt>
      <trkpt lat="50.489682303741574" lon="6.356612909585238">
        <ele>445.06</ele>
        <time>2019-04-25T09:10:45Z</time>
      </trkpt>
      <trkpt lat="50.489726392552257" lon="6.356562282890081">
        <ele>447.17000000000002</ele>
        <time>2019-04-25T09:11:00Z</time>
      </trkpt>
      <trkpt lat="50.489751035347581" lon="6.356346281245351">
        <ele>446.94999999999999</ele>
        <time>2019-04-25T09:11:13Z</time>
      </trkpt>
      <trkpt lat="50.489769391715527" lon="6.356021650135517">
        <ele>446.82999999999998</ele>
        <time>2019-04-25T09:11:24Z</time>
      </trkpt>
      <trkpt lat="50.489765284582973" lon="6.355991810560226">
        <ele>446.81999999999999</ele>
        <time>2019-04-25T09:11:25Z</time>
      </trkpt>
      <trkpt lat="50.48966989852488" lon="6.355492752045393">
        <ele>448.10000000000002</ele>
        <time>2019-04-25T09:11:44Z</time>
      </trkpt>
      <trkpt lat="50.489569902420044" lon="6.355077093467116">
        <ele>449.42000000000002</ele>
        <time>2019-04-25T09:12:01Z</time>
      </trkpt>
      <trkpt lat="50.489521035924554" lon="6.354674426838756">
        <ele>451.00999999999999</ele>
        <time>2019-04-25T09:12:19Z</time>
      </trkpt>
      <trkpt lat="50.48947929404676" lon="6.354449037462473">
        <ele>454.06999999999999</ele>
        <time>2019-04-25T09:12:32Z</time>
      </trkpt>
      <trkpt lat="50.489471163600683" lon="6.354429172351956">
        <ele>450.91000000000003</ele>
        <time>2019-04-25T09:12:33Z</time>
      </trkpt>
      <trkpt lat="50.489466637372971" lon="6.354409139603376">
        <ele>455.11000000000001</ele>
        <time>2019-04-25T09:12:34Z</time>
      </trkpt>
      <trkpt lat="50.489417100325227" lon="6.35394218377769">
        <ele>454.63999999999999</ele>
        <time>2019-04-25T09:12:54Z</time>
      </trkpt>
      <trkpt lat="50.48946269787848" lon="6.353928856551647">
        <ele>456.41000000000003</ele>
        <time>2019-04-25T09:13:06Z</time>
      </trkpt>
      <trkpt lat="50.489493291825056" lon="6.353998174890876">
        <ele>456.26999999999998</ele>
        <time>2019-04-25T09:13:13Z</time>
      </trkpt>
      <trkpt lat="50.489560263231397" lon="6.354138739407063">
        <ele>456.01999999999998</ele>
        <time>2019-04-25T09:13:25Z</time>
      </trkpt>
      <trkpt lat="50.489636706188321" lon="6.354311238974333">
        <ele>457.25999999999999</ele>
        <time>2019-04-25T09:13:45Z</time>
      </trkpt>
      <trkpt lat="50.48975246027112" lon="6.354563869535923">
        <ele>458.45999999999998</ele>
        <time>2019-04-25T09:14:03Z</time>
      </trkpt>
      <trkpt lat="50.489936610683799" lon="6.354934517294169">
        <ele>459.62</ele>
        <time>2019-04-25T09:14:19Z</time>
      </trkpt>
      <trkpt lat="50.489989165216684" lon="6.355107184499502">
        <ele>460.30000000000001</ele>
        <time>2019-04-25T09:14:24Z</time>
      </trkpt>
      <trkpt lat="50.490043396130204" lon="6.355228973552585">
        <ele>461.16000000000003</ele>
        <time>2019-04-25T09:14:28Z</time>
      </trkpt>
      <trkpt lat="50.490161078050733" lon="6.355497613549233">
        <ele>463.58999999999997</ele>
        <time>2019-04-25T09:14:42Z</time>
      </trkpt>
      <trkpt lat="50.490291584283113" lon="6.355783101171255">
        <ele>466.00999999999999</ele>
        <time>2019-04-25T09:14:56Z</time>
      </trkpt>
      <trkpt lat="50.490398453548551" lon="6.355987954884768">
        <ele>467.52999999999997</ele>
        <time>2019-04-25T09:15:06Z</time>
      </trkpt>
      <trkpt lat="50.49045268446207" lon="6.356131955981255">
        <ele>468.48000000000002</ele>
        <time>2019-04-25T09:15:13Z</time>
      </trkpt>
      <trkpt lat="50.490629291161895" lon="6.356406630948186">
        <ele>470.93000000000001</ele>
        <time>2019-04-25T09:15:29Z</time>
      </trkpt>
      <trkpt lat="50.490646976977587" lon="6.35644007474184">
        <ele>470.94</ele>
        <time>2019-04-25T09:15:31Z</time>
      </trkpt>
      <trkpt lat="50.490712272003293" lon="6.356576699763537">
        <ele>471.72000000000003</ele>
        <time>2019-04-25T09:15:37Z</time>
      </trkpt>
      <trkpt lat="50.490770861506462" lon="6.356654400005937">
        <ele>474.80000000000001</ele>
        <time>2019-04-25T09:15:42Z</time>
      </trkpt>
      <trkpt lat="50.490782260894775" lon="6.356678539887071">
        <ele>474.75</ele>
        <time>2019-04-25T09:15:43Z</time>
      </trkpt>
      <trkpt lat="50.490813022479415" lon="6.356733106076717">
        <ele>472.51999999999998</ele>
        <time>2019-04-25T09:15:47Z</time>
      </trkpt>
      <trkpt lat="50.490861050784588" lon="6.356748025864363">
        <ele>472.48000000000002</ele>
        <time>2019-04-25T09:15:52Z</time>
      </trkpt>
      <trkpt lat="50.490981163457036" lon="6.356651466339827">
        <ele>472.47000000000003</ele>
        <time>2019-04-25T09:16:01Z</time>
      </trkpt>
      <trkpt lat="50.491008572280407" lon="6.356577789410949">
        <ele>474.72000000000003</ele>
        <time>2019-04-25T09:16:06Z</time>
      </trkpt>
      <trkpt lat="50.490963058546185" lon="6.356324572116137">
        <ele>476.26999999999998</ele>
        <time>2019-04-25T09:16:19Z</time>
      </trkpt>
      <trkpt lat="50.490882005542517" lon="6.356121730059385">
        <ele>478.08999999999997</ele>
        <time>2019-04-25T09:16:31Z</time>
      </trkpt>
      <trkpt lat="50.49083674326539" lon="6.355967503041029">
        <ele>478.87</ele>
        <time>2019-04-25T09:16:39Z</time>
      </trkpt>
      <trkpt lat="50.490770610049367" lon="6.355773294344544">
        <ele>479.61000000000001</ele>
        <time>2019-04-25T09:16:49Z</time>
      </trkpt>
      <trkpt lat="50.490701710805297" lon="6.355510437861085">
        <ele>481.13</ele>
        <time>2019-04-25T09:17:06Z</time>
      </trkpt>
      <trkpt lat="50.490700285881758" lon="6.355117494240403">
        <ele>481.81</ele>
        <time>2019-04-25T09:17:24Z</time>
      </trkpt>
      <trkpt lat="50.490626441314816" lon="6.354730166494846">
        <ele>483.20999999999998</ele>
        <time>2019-04-25T09:17:43Z</time>
      </trkpt>
      <trkpt lat="50.490536503493786" lon="6.354259354993701">
        <ele>484.50999999999999</ele>
        <time>2019-04-25T09:18:03Z</time>
      </trkpt>
      <trkpt lat="50.490506831556559" lon="6.353907901793718">
        <ele>485.77999999999997</ele>
        <time>2019-04-25T09:18:21Z</time>
      </trkpt>
      <trkpt lat="50.490502221509814" lon="6.353668430820108">
        <ele>485.61000000000001</ele>
        <time>2019-04-25T09:18:31Z</time>
      </trkpt>
      <trkpt lat="50.490506496280432" lon="6.353374309837818">
        <ele>489.11000000000001</ele>
        <time>2019-04-25T09:18:46Z</time>
      </trkpt>
      <trkpt lat="50.490610348060727" lon="6.353012211620808">
        <ele>488.08999999999997</ele>
        <time>2019-04-25T09:19:05Z</time>
      </trkpt>
      <trkpt lat="50.490640522912145" lon="6.352901235222817">
        <ele>490.58999999999997</ele>
        <time>2019-04-25T09:19:11Z</time>
      </trkpt>
      <trkpt lat="50.490756276994944" lon="6.352678444236517">
        <ele>492.93000000000001</ele>
        <time>2019-04-25T09:19:26Z</time>
      </trkpt>
      <trkpt lat="50.490906648337841" lon="6.352530000731349">
        <ele>493.25999999999999</ele>
        <time>2019-04-25T09:19:44Z</time>
      </trkpt>
      <trkpt lat="50.491014355793595" lon="6.3523805513978">
        <ele>493.73000000000002</ele>
        <time>2019-04-25T09:20:02Z</time>
      </trkpt>
      <trkpt lat="50.491041010245681" lon="6.352295558899641">
        <ele>495.92000000000002</ele>
        <time>2019-04-25T09:20:08Z</time>
      </trkpt>
      <trkpt lat="50.491124494001269" lon="6.352142840623856">
        <ele>495.70999999999998</ele>
        <time>2019-04-25T09:20:25Z</time>
      </trkpt>
      <trkpt lat="50.491262711584568" lon="6.352068744599819">
        <ele>497.20999999999998</ele>
        <time>2019-04-25T09:20:35Z</time>
      </trkpt>
      <trkpt lat="50.491320881992579" lon="6.352015854790807">
        <ele>498</ele>
        <time>2019-04-25T09:20:41Z</time>
      </trkpt>
      <trkpt lat="50.49135709181428" lon="6.351867746561766">
        <ele>497.98000000000002</ele>
        <time>2019-04-25T09:20:45Z</time>
      </trkpt>
      <trkpt lat="50.491475276648998" lon="6.351446304470301">
        <ele>500.76999999999998</ele>
        <time>2019-04-25T09:21:00Z</time>
      </trkpt>
      <trkpt lat="50.491591952741146" lon="6.351069873198867">
        <ele>497.25</ele>
        <time>2019-04-25T09:21:17Z</time>
      </trkpt>
      <trkpt lat="50.491599915549159" lon="6.351039614528418">
        <ele>502.69</ele>
        <time>2019-04-25T09:21:18Z</time>
      </trkpt>
      <trkpt lat="50.491605782881379" lon="6.351025952026248">
        <ele>502.69</ele>
        <time>2019-04-25T09:21:19Z</time>
      </trkpt>
      <trkpt lat="50.491655822843313" lon="6.350948670879006">
        <ele>498.94999999999999</ele>
        <time>2019-04-25T09:21:23Z</time>
      </trkpt>
      <trkpt lat="50.491664791479707" lon="6.350916987285018">
        <ele>503.27999999999997</ele>
        <time>2019-04-25T09:21:24Z</time>
      </trkpt>
      <trkpt lat="50.49179881811142" lon="6.35040108114481">
        <ele>503.14999999999998</ele>
        <time>2019-04-25T09:21:42Z</time>
      </trkpt>
      <trkpt lat="50.491968132555485" lon="6.349885426461697">
        <ele>504.67000000000002</ele>
        <time>2019-04-25T09:21:58Z</time>
      </trkpt>
      <trkpt lat="50.491970982402563" lon="6.34960513561964">
        <ele>505.26999999999998</ele>
        <time>2019-04-25T09:22:10Z</time>
      </trkpt>
      <trkpt lat="50.491980286315084" lon="6.349551659077406">
        <ele>505.25</ele>
        <time>2019-04-25T09:22:12Z</time>
      </trkpt>
      <trkpt lat="50.49200551584363" lon="6.349232560023665">
        <ele>506.62</ele>
        <time>2019-04-25T09:22:28Z</time>
      </trkpt>
      <trkpt lat="50.492076678201556" lon="6.348859230056405">
        <ele>509.64999999999998</ele>
        <time>2019-04-25T09:22:46Z</time>
      </trkpt>
      <trkpt lat="50.492147337645292" lon="6.348484978079796">
        <ele>511.75</ele>
        <time>2019-04-25T09:23:02Z</time>
      </trkpt>
      <trkpt lat="50.492219254374504" lon="6.348121371120215">
        <ele>512.27999999999997</ele>
        <time>2019-04-25T09:23:16Z</time>
      </trkpt>
      <trkpt lat="50.492284297943115" lon="6.347879385575652">
        <ele>513.03999999999996</ele>
        <time>2019-04-25T09:23:28Z</time>
      </trkpt>
      <trkpt lat="50.492322938516736" lon="6.34762566536665">
        <ele>513.64999999999998</ele>
        <time>2019-04-25T09:23:41Z</time>
      </trkpt>
      <trkpt lat="50.492363842204213" lon="6.34707598015666">
        <ele>514.89999999999998</ele>
        <time>2019-04-25T09:24:03Z</time>
      </trkpt>
      <trkpt lat="50.492416061460972" lon="6.346687227487564">
        <ele>516.40999999999997</ele>
        <time>2019-04-25T09:24:17Z</time>
      </trkpt>
      <trkpt lat="50.492441458627582" lon="6.346624447032809">
        <ele>517.08000000000004</ele>
        <time>2019-04-25T09:24:21Z</time>
      </trkpt>
      <trkpt lat="50.492549333721399" lon="6.346336277201772">
        <ele>520.25</ele>
        <time>2019-04-25T09:24:35Z</time>
      </trkpt>
      <trkpt lat="50.492639020085335" lon="6.346067301928997">
        <ele>524.25</ele>
        <time>2019-04-25T09:24:53Z</time>
      </trkpt>
      <trkpt lat="50.492704398930073" lon="6.345897819846869">
        <ele>525.17999999999995</ele>
        <time>2019-04-25T09:25:02Z</time>
      </trkpt>
      <trkpt lat="50.492781009525061" lon="6.345692044124007">
        <ele>524.87</ele>
        <time>2019-04-25T09:25:13Z</time>
      </trkpt>
      <trkpt lat="50.49297689460218" lon="6.345317205414176">
        <ele>526.94000000000005</ele>
        <time>2019-04-25T09:25:29Z</time>
      </trkpt>
      <trkpt lat="50.493033891543746" lon="6.345138335600495">
        <ele>529.24000000000001</ele>
        <time>2019-04-25T09:25:40Z</time>
      </trkpt>
      <trkpt lat="50.49321485683322" lon="6.344806998968124">
        <ele>530.5</ele>
        <time>2019-04-25T09:25:58Z</time>
      </trkpt>
      <trkpt lat="50.493597742170095" lon="6.344488067552447">
        <ele>533.51999999999998</ele>
        <time>2019-04-25T09:26:16Z</time>
      </trkpt>
      <trkpt lat="50.493802847340703" lon="6.344267288222909">
        <ele>535.66999999999996</ele>
        <time>2019-04-25T09:26:35Z</time>
      </trkpt>
      <trkpt lat="50.494080539792776" lon="6.344235017895699">
        <ele>537.85000000000002</ele>
        <time>2019-04-25T09:26:55Z</time>
      </trkpt>
      <trkpt lat="50.494249351322651" lon="6.344186570495367">
        <ele>539.17999999999995</ele>
        <time>2019-04-25T09:27:10Z</time>
      </trkpt>
      <trkpt lat="50.494414558634162" lon="6.344122448936105">
        <ele>542.70000000000005</ele>
        <time>2019-04-25T09:27:25Z</time>
      </trkpt>
      <trkpt lat="50.494480608031154" lon="6.344054555520415">
        <ele>542.60000000000002</ele>
        <time>2019-04-25T09:27:29Z</time>
      </trkpt>
      <trkpt lat="50.494734579697251" lon="6.343749286606908">
        <ele>545.71000000000004</ele>
        <time>2019-04-25T09:27:47Z</time>
      </trkpt>
      <trkpt lat="50.495009422302246" lon="6.343571422621608">
        <ele>547.96000000000004</ele>
        <time>2019-04-25T09:28:09Z</time>
      </trkpt>
      <trkpt lat="50.495159542188048" lon="6.343433037400246">
        <ele>549.50999999999999</ele>
        <time>2019-04-25T09:28:24Z</time>
      </trkpt>
      <trkpt lat="50.495281163603067" lon="6.343293562531471">
        <ele>551.09000000000003</ele>
        <time>2019-04-25T09:28:36Z</time>
      </trkpt>
      <trkpt lat="50.495435390621424" lon="6.34313615038991">
        <ele>552.57000000000005</ele>
        <time>2019-04-25T09:28:49Z</time>
      </trkpt>
      <trkpt lat="50.495576793327928" lon="6.342951413244009">
        <ele>555.23000000000002</ele>
        <time>2019-04-25T09:29:03Z</time>
      </trkpt>
      <trkpt lat="50.495662540197372" lon="6.342871114611626">
        <ele>556.17999999999995</ele>
        <time>2019-04-25T09:29:11Z</time>
      </trkpt>
      <trkpt lat="50.495782652869821" lon="6.342763658612967">
        <ele>557.75</ele>
        <time>2019-04-25T09:29:21Z</time>
      </trkpt>
      <trkpt lat="50.495983064174652" lon="6.342572383582592">
        <ele>559.27999999999997</ele>
        <time>2019-04-25T09:29:39Z</time>
      </trkpt>
      <trkpt lat="50.496173333376646" lon="6.342405248433352">
        <ele>560.96000000000004</ele>
        <time>2019-04-25T09:29:56Z</time>
      </trkpt>
      <trkpt lat="50.496372571215034" lon="6.342168543487787">
        <ele>563.60000000000002</ele>
        <time>2019-04-25T09:30:14Z</time>
      </trkpt>
      <trkpt lat="50.496596368029714" lon="6.341965449973941">
        <ele>565.96000000000004</ele>
        <time>2019-04-25T09:30:34Z</time>
      </trkpt>
      <trkpt lat="50.49680239520967" lon="6.341753890737891">
        <ele>567.71000000000004</ele>
        <time>2019-04-25T09:30:54Z</time>
      </trkpt>
      <trkpt lat="50.49706525169313" lon="6.341510899364948">
        <ele>570.13</ele>
        <time>2019-04-25T09:31:15Z</time>
      </trkpt>
      <trkpt lat="50.497303381562233" lon="6.341317780315876">
        <ele>570.91999999999996</ele>
        <time>2019-04-25T09:31:32Z</time>
      </trkpt>
      <trkpt lat="50.497520640492439" lon="6.341094821691513">
        <ele>572.57000000000005</ele>
        <time>2019-04-25T09:31:50Z</time>
      </trkpt>
      <trkpt lat="50.497646452859044" lon="6.340957609936595">
        <ele>572.58000000000004</ele>
        <time>2019-04-25T09:31:59Z</time>
      </trkpt>
      <trkpt lat="50.497789867222309" lon="6.340778740122914">
        <ele>573.42999999999995</ele>
        <time>2019-04-25T09:32:13Z</time>
      </trkpt>
      <trkpt lat="50.49784854054451" lon="6.34071059525013">
        <ele>569.91999999999996</ele>
        <time>2019-04-25T09:32:21Z</time>
      </trkpt>
      <trkpt lat="50.497857257723808" lon="6.340701123699546">
        <ele>575.60000000000002</ele>
        <time>2019-04-25T09:32:22Z</time>
      </trkpt>
      <trkpt lat="50.497878799214959" lon="6.340689556673169">
        <ele>571.80999999999995</ele>
        <time>2019-04-25T09:32:24Z</time>
      </trkpt>
      <trkpt lat="50.497891204431653" lon="6.3406827673316">
        <ele>574.88</ele>
        <time>2019-04-25T09:32:25Z</time>
      </trkpt>
      <trkpt lat="50.498168226331472" lon="6.340423263609409">
        <ele>574.92999999999995</ele>
        <time>2019-04-25T09:32:47Z</time>
      </trkpt>
      <trkpt lat="50.498461592942476" lon="6.34015110321343">
        <ele>575.75</ele>
        <time>2019-04-25T09:33:08Z</time>
      </trkpt>
      <trkpt lat="50.498791001737118" lon="6.33989897556603">
        <ele>575.77999999999997</ele>
        <time>2019-04-25T09:33:31Z</time>
      </trkpt>
      <trkpt lat="50.498986048623919" lon="6.33980275131762">
        <ele>576.78999999999996</ele>
        <time>2019-04-25T09:33:52Z</time>
      </trkpt>
      <trkpt lat="50.499111777171493" lon="6.339703928679228">
        <ele>577</ele>
        <time>2019-04-25T09:34:06Z</time>
      </trkpt>
      <trkpt lat="50.499262232333422" lon="6.339567555114627">
        <ele>577.99000000000001</ele>
        <time>2019-04-25T09:34:19Z</time>
      </trkpt>
      <trkpt lat="50.499357366934419" lon="6.339449621737003">
        <ele>578.14999999999998</ele>
        <time>2019-04-25T09:34:27Z</time>
      </trkpt>
      <trkpt lat="50.499490303918719" lon="6.339264716953039">
        <ele>578.40999999999997</ele>
        <time>2019-04-25T09:34:41Z</time>
      </trkpt>
      <trkpt lat="50.499657690525055" lon="6.339091965928674">
        <ele>579.52999999999997</ele>
        <time>2019-04-25T09:34:57Z</time>
      </trkpt>
      <trkpt lat="50.499761961400509" lon="6.339013678953052">
        <ele>583.40999999999997</ele>
        <time>2019-04-25T09:35:05Z</time>
      </trkpt>
      <trkpt lat="50.499774282798171" lon="6.339000687003136">
        <ele>583.40999999999997</ele>
        <time>2019-04-25T09:35:06Z</time>
      </trkpt>
      <trkpt lat="50.499800266698003" lon="6.338965902104974">
        <ele>581.01999999999998</ele>
        <time>2019-04-25T09:35:08Z</time>
      </trkpt>
      <trkpt lat="50.499832537025213" lon="6.338933715596795">
        <ele>581.05999999999995</ele>
        <time>2019-04-25T09:35:10Z</time>
      </trkpt>
      <trkpt lat="50.499882744625211" lon="6.338901361450553">
        <ele>581.08000000000004</ele>
        <time>2019-04-25T09:35:13Z</time>
      </trkpt>
      <trkpt lat="50.499986009672284" lon="6.338771777227521">
        <ele>580.61000000000001</ele>
        <time>2019-04-25T09:35:29Z</time>
      </trkpt>
      <trkpt lat="50.499986261129379" lon="6.33875316940248">
        <ele>581.13</ele>
        <time>2019-04-25T09:35:55Z</time>
      </trkpt>
      <trkpt lat="50.500174183398485" lon="6.338524343445897">
        <ele>581.53999999999996</ele>
        <time>2019-04-25T09:36:15Z</time>
      </trkpt>
      <trkpt lat="50.500430334359407" lon="6.338302306830883">
        <ele>581.91999999999996</ele>
        <time>2019-04-25T09:36:35Z</time>
      </trkpt>
      <trkpt lat="50.50046662800014" lon="6.338251428678632">
        <ele>582.02999999999997</ele>
        <time>2019-04-25T09:36:39Z</time>
      </trkpt>
      <trkpt lat="50.500522200018167" lon="6.338183451443911">
        <ele>584.41999999999996</ele>
        <time>2019-04-25T09:36:44Z</time>
      </trkpt>
      <trkpt lat="50.500763431191444" lon="6.337922271341085">
        <ele>584.73000000000002</ele>
        <time>2019-04-25T09:37:03Z</time>
      </trkpt>
      <trkpt lat="50.500980354845524" lon="6.337725715711713">
        <ele>584.95000000000005</ele>
        <time>2019-04-25T09:37:18Z</time>
      </trkpt>
      <trkpt lat="50.501091666519642" lon="6.337604681029916">
        <ele>582.70000000000005</ele>
        <time>2019-04-25T09:37:27Z</time>
      </trkpt>
      <trkpt lat="50.501103568822145" lon="6.337456908077002">
        <ele>582.80999999999995</ele>
        <time>2019-04-25T09:37:33Z</time>
      </trkpt>
      <trkpt lat="50.50106911920011" lon="6.337039573118091">
        <ele>583.16999999999996</ele>
        <time>2019-04-25T09:37:51Z</time>
      </trkpt>
      <trkpt lat="50.501083871349692" lon="6.336877131834626">
        <ele>582.33000000000004</ele>
        <time>2019-04-25T09:37:58Z</time>
      </trkpt>
      <trkpt lat="50.501092337071896" lon="6.33683823980391">
        <ele>582.38</ele>
        <time>2019-04-25T09:38:00Z</time>
      </trkpt>
      <trkpt lat="50.501127121970057" lon="6.336744781583548">
        <ele>582.54999999999995</ele>
        <time>2019-04-25T09:38:08Z</time>
      </trkpt>
      <trkpt lat="50.501155033707619" lon="6.336598349735141">
        <ele>582.79999999999995</ele>
        <time>2019-04-25T09:38:18Z</time>
      </trkpt>
      <trkpt lat="50.501185543835163" lon="6.336330715566874">
        <ele>582.03999999999996</ele>
        <time>2019-04-25T09:38:30Z</time>
      </trkpt>
      <trkpt lat="50.501266680657864" lon="6.335988063365221">
        <ele>581.45000000000005</ele>
        <time>2019-04-25T09:38:46Z</time>
      </trkpt>
      <trkpt lat="50.50126844085753" lon="6.335925282910466">
        <ele>581.50999999999999</ele>
        <time>2019-04-25T09:38:49Z</time>
      </trkpt>
      <trkpt lat="50.501318480819464" lon="6.335609536617994">
        <ele>580.13</ele>
        <time>2019-04-25T09:39:01Z</time>
      </trkpt>
      <trkpt lat="50.501348823308945" lon="6.335510294884443">
        <ele>581.38999999999999</ele>
        <time>2019-04-25T09:39:05Z</time>
      </trkpt>
      <trkpt lat="50.501351924613118" lon="6.335481377318502">
        <ele>581.37</ele>
        <time>2019-04-25T09:39:06Z</time>
      </trkpt>
      <trkpt lat="50.501362821087241" lon="6.335341231897473">
        <ele>577.60000000000002</ele>
        <time>2019-04-25T09:39:12Z</time>
      </trkpt>
      <trkpt lat="50.50136617384851" lon="6.335300412029028">
        <ele>582.13999999999999</ele>
        <time>2019-04-25T09:39:14Z</time>
      </trkpt>
      <trkpt lat="50.501364916563034" lon="6.335281636565924">
        <ele>575.65999999999997</ele>
        <time>2019-04-25T09:39:15Z</time>
      </trkpt>
      <trkpt lat="50.501362318173051" lon="6.335263112559915">
        <ele>581.39999999999998</ele>
        <time>2019-04-25T09:39:16Z</time>
      </trkpt>
      <trkpt lat="50.501363324001431" lon="6.335244001820684">
        <ele>581.36000000000001</ele>
        <time>2019-04-25T09:39:17Z</time>
      </trkpt>
      <trkpt lat="50.501378327608109" lon="6.335105868056417">
        <ele>578.94000000000005</ele>
        <time>2019-04-25T09:39:22Z</time>
      </trkpt>
      <trkpt lat="50.501423254609108" lon="6.334640588611364">
        <ele>577.47000000000003</ele>
        <time>2019-04-25T09:39:40Z</time>
      </trkpt>
      <trkpt lat="50.501484777778387" lon="6.334444787353277">
        <ele>576.71000000000004</ele>
        <time>2019-04-25T09:39:50Z</time>
      </trkpt>
      <trkpt lat="50.501595083624125" lon="6.334155611693859">
        <ele>576.04999999999995</ele>
        <time>2019-04-25T09:40:03Z</time>
      </trkpt>
      <trkpt lat="50.501613523811102" lon="6.334115210920572">
        <ele>576.11000000000001</ele>
        <time>2019-04-25T09:40:05Z</time>
      </trkpt>
      <trkpt lat="50.501628778874874" lon="6.334047988057137">
        <ele>571.14999999999998</ele>
        <time>2019-04-25T09:40:08Z</time>
      </trkpt>
      <trkpt lat="50.501634394749999" lon="6.334029380232096">
        <ele>576.13999999999999</ele>
        <time>2019-04-25T09:40:09Z</time>
      </trkpt>
      <trkpt lat="50.501634310930967" lon="6.334004569798708">
        <ele>577.02999999999997</ele>
        <time>2019-04-25T09:40:11Z</time>
      </trkpt>
      <trkpt lat="50.501664988696575" lon="6.333919242024422">
        <ele>577.30999999999995</ele>
        <time>2019-04-25T09:40:36Z</time>
      </trkpt>
      <trkpt lat="50.501740174368024" lon="6.333730816841126">
        <ele>577.49000000000001</ele>
        <time>2019-04-25T09:40:54Z</time>
      </trkpt>
      <trkpt lat="50.501772696152329" lon="6.333659738302231">
        <ele>577.57000000000005</ele>
        <time>2019-04-25T09:40:58Z</time>
      </trkpt>
      <trkpt lat="50.501862214878201" lon="6.333486819639802">
        <ele>575.37</ele>
        <time>2019-04-25T09:41:10Z</time>
      </trkpt>
      <trkpt lat="50.50190219655633" lon="6.333359833806753">
        <ele>575.73000000000002</ele>
        <time>2019-04-25T09:41:31Z</time>
      </trkpt>
      <trkpt lat="50.502036139369011" lon="6.333141652867198">
        <ele>575.98000000000002</ele>
        <time>2019-04-25T09:41:48Z</time>
      </trkpt>
      <trkpt lat="50.50209129229188" lon="6.33310854434967">
        <ele>574.60000000000002</ele>
        <time>2019-04-25T09:42:08Z</time>
      </trkpt>
      <trkpt lat="50.502112749963999" lon="6.333094798028469">
        <ele>574.65999999999997</ele>
        <time>2019-04-25T09:42:11Z</time>
      </trkpt>
      <trkpt lat="50.502171088010073" lon="6.333019277080894">
        <ele>574.78999999999996</ele>
        <time>2019-04-25T09:42:18Z</time>
      </trkpt>
      <trkpt lat="50.502264630049467" lon="6.332851219922304">
        <ele>575.03999999999996</ele>
        <time>2019-04-25T09:42:30Z</time>
      </trkpt>
      <trkpt lat="50.502395555377007" lon="6.332660866901279">
        <ele>574.33000000000004</ele>
        <time>2019-04-25T09:42:46Z</time>
      </trkpt>
      <trkpt lat="50.502427155151963" lon="6.332624237984419">
        <ele>574.45000000000005</ele>
        <time>2019-04-25T09:42:49Z</time>
      </trkpt>
      <trkpt lat="50.502448109909892" lon="6.33261258713901">
        <ele>574.46000000000004</ele>
        <time>2019-04-25T09:42:51Z</time>
      </trkpt>
      <trkpt lat="50.502696800976992" lon="6.332436399534345">
        <ele>574.73000000000002</ele>
        <time>2019-04-25T09:43:08Z</time>
      </trkpt>
      <trkpt lat="50.502952532842755" lon="6.332284603267908">
        <ele>571.33000000000004</ele>
        <time>2019-04-25T09:43:28Z</time>
      </trkpt>
      <trkpt lat="50.503176162019372" lon="6.332191983237863">
        <ele>570.86000000000001</ele>
        <time>2019-04-25T09:43:45Z</time>
      </trkpt>
      <trkpt lat="50.503410268574953" lon="6.332082012668252">
        <ele>569.34000000000003</ele>
        <time>2019-04-25T09:44:02Z</time>
      </trkpt>
      <trkpt lat="50.503428876399994" lon="6.332075810059905">
        <ele>569.35000000000002</ele>
        <time>2019-04-25T09:44:03Z</time>
      </trkpt>
      <trkpt lat="50.503558209165931" lon="6.332019316032529">
        <ele>568.60000000000002</ele>
        <time>2019-04-25T09:44:12Z</time>
      </trkpt>
      <trkpt lat="50.503589473664761" lon="6.331995259970427">
        <ele>567.84000000000003</ele>
        <time>2019-04-25T09:44:16Z</time>
      </trkpt>
      <trkpt lat="50.503849061205983" lon="6.331911021843553">
        <ele>565.57000000000005</ele>
        <time>2019-04-25T09:44:38Z</time>
      </trkpt>
      <trkpt lat="50.504148714244366" lon="6.33178973570466">
        <ele>564.96000000000004</ele>
        <time>2019-04-25T09:44:53Z</time>
      </trkpt>
      <trkpt lat="50.504443002864718" lon="6.331776659935713">
        <ele>565.28999999999996</ele>
        <time>2019-04-25T09:45:12Z</time>
      </trkpt>
      <trkpt lat="50.504475357010961" lon="6.331782694905996">
        <ele>565.33000000000004</ele>
        <time>2019-04-25T09:45:15Z</time>
      </trkpt>
      <trkpt lat="50.504812141880393" lon="6.331779677420855">
        <ele>565.51999999999998</ele>
        <time>2019-04-25T09:45:33Z</time>
      </trkpt>
      <trkpt lat="50.505054546520114" lon="6.33180876262486">
        <ele>564.90999999999997</ele>
        <time>2019-04-25T09:45:50Z</time>
      </trkpt>
      <trkpt lat="50.505358306691051" lon="6.331838937476277">
        <ele>565.12</ele>
        <time>2019-04-25T09:46:08Z</time>
      </trkpt>
      <trkpt lat="50.505655193701386" lon="6.331938430666924">
        <ele>564.53999999999996</ele>
        <time>2019-04-25T09:46:30Z</time>
      </trkpt>
      <trkpt lat="50.505770025774837" lon="6.331959385424852">
        <ele>563.82000000000005</ele>
        <time>2019-04-25T09:46:37Z</time>
      </trkpt>
      <trkpt lat="50.50582249648869" lon="6.331916134804487">
        <ele>563.89999999999998</ele>
        <time>2019-04-25T09:46:41Z</time>
      </trkpt>
      <trkpt lat="50.505843199789524" lon="6.331632155925036">
        <ele>564.13999999999999</ele>
        <time>2019-04-25T09:46:54Z</time>
      </trkpt>
      <trkpt lat="50.50584252923727" lon="6.331584211438894">
        <ele>566.5</ele>
        <time>2019-04-25T09:46:57Z</time>
      </trkpt>
      <trkpt lat="50.505844624713063" lon="6.331510283052921">
        <ele>567.34000000000003</ele>
        <time>2019-04-25T09:47:02Z</time>
      </trkpt>
      <trkpt lat="50.505816461518407" lon="6.331154135987163">
        <ele>569.29999999999995</ele>
        <time>2019-04-25T09:47:17Z</time>
      </trkpt>
      <trkpt lat="50.505736833438277" lon="6.330736633390188">
        <ele>572.88</ele>
        <time>2019-04-25T09:47:35Z</time>
      </trkpt>
      <trkpt lat="50.505650164559484" lon="6.33036682382226">
        <ele>576.59000000000003</ele>
        <time>2019-04-25T09:47:52Z</time>
      </trkpt>
      <trkpt lat="50.505511779338121" lon="6.330016292631626">
        <ele>579.28999999999996</ele>
        <time>2019-04-25T09:48:11Z</time>
      </trkpt>
      <trkpt lat="50.505371801555157" lon="6.329643130302429">
        <ele>581.22000000000003</ele>
        <time>2019-04-25T09:48:30Z</time>
      </trkpt>
      <trkpt lat="50.505264680832624" lon="6.329374825581908">
        <ele>583.23000000000002</ele>
        <time>2019-04-25T09:48:43Z</time>
      </trkpt>
      <trkpt lat="50.505130235105753" lon="6.329203248023987">
        <ele>583.27999999999997</ele>
        <time>2019-04-25T09:48:57Z</time>
      </trkpt>
      <trkpt lat="50.504992688074708" lon="6.329007195308805">
        <ele>586.38</ele>
        <time>2019-04-25T09:49:10Z</time>
      </trkpt>
      <trkpt lat="50.504804849624634" lon="6.32878658361733">
        <ele>586.50999999999999</ele>
        <time>2019-04-25T09:49:25Z</time>
      </trkpt>
      <trkpt lat="50.504677277058363" lon="6.328669572249055">
        <ele>586.61000000000001</ele>
        <time>2019-04-25T09:49:35Z</time>
      </trkpt>
      <trkpt lat="50.504481811076403" lon="6.328570749610663">
        <ele>587.60000000000002</ele>
        <time>2019-04-25T09:49:49Z</time>
      </trkpt>
      <trkpt lat="50.504452558234334" lon="6.328535294160247">
        <ele>587.62</ele>
        <time>2019-04-25T09:49:51Z</time>
      </trkpt>
      <trkpt lat="50.504273772239685" lon="6.328199934214354">
        <ele>587.85000000000002</ele>
        <time>2019-04-25T09:50:11Z</time>
      </trkpt>
      <trkpt lat="50.504012424498796" lon="6.327923750504851">
        <ele>589.88</ele>
        <time>2019-04-25T09:50:35Z</time>
      </trkpt>
      <trkpt lat="50.503735486418009" lon="6.327693834900856">
        <ele>590.77999999999997</ele>
        <time>2019-04-25T09:50:56Z</time>
      </trkpt>
      <trkpt lat="50.503491992130876" lon="6.32750197313726">
        <ele>590.85000000000002</ele>
        <time>2019-04-25T09:51:15Z</time>
      </trkpt>
      <trkpt lat="50.503401970490813" lon="6.327343052253127">
        <ele>591.72000000000003</ele>
        <time>2019-04-25T09:51:28Z</time>
      </trkpt>
      <trkpt lat="50.503517389297485" lon="6.327033173292875">
        <ele>591.69000000000005</ele>
        <time>2019-04-25T09:51:47Z</time>
      </trkpt>
      <trkpt lat="50.503575643524528" lon="6.326864529401064">
        <ele>591.70000000000005</ele>
        <time>2019-04-25T09:52:05Z</time>
      </trkpt>
      <trkpt lat="50.503592155873775" lon="6.326816584914923">
        <ele>591.71000000000004</ele>
        <time>2019-04-25T09:52:08Z</time>
      </trkpt>
      <trkpt lat="50.503637166693807" lon="6.326695969328284">
        <ele>591.71000000000004</ele>
        <time>2019-04-25T09:52:13Z</time>
      </trkpt>
      <trkpt lat="50.503655858337879" lon="6.326321046799421">
        <ele>591.80999999999995</ele>
        <time>2019-04-25T09:52:30Z</time>
      </trkpt>
      <trkpt lat="50.50357379950583" lon="6.326008653268218">
        <ele>592.78999999999996</ele>
        <time>2019-04-25T09:52:45Z</time>
      </trkpt>
      <trkpt lat="50.503573715686798" lon="6.325952243059874">
        <ele>592.82000000000005</ele>
        <time>2019-04-25T09:52:47Z</time>
      </trkpt>
      <trkpt lat="50.503580588847399" lon="6.325947549194098">
        <ele>622.79999999999995</ele>
        <time>2019-04-25T10:33:52Z</time>
      </trkpt>
      <trkpt lat="50.503569776192307" lon="6.325962385162711">
        <ele>625.85000000000002</ele>
        <time>2019-04-25T10:47:43Z</time>
      </trkpt>
      <trkpt lat="50.503598107025027" lon="6.325952494516969">
        <ele>625.99000000000001</ele>
        <time>2019-04-25T10:48:16Z</time>
      </trkpt>
      <trkpt lat="50.503647224977612" lon="6.325868424028158">
        <ele>638.71000000000004</ele>
        <time>2019-04-25T11:06:47Z</time>
      </trkpt>
      <trkpt lat="50.503707155585289" lon="6.325837578624487">
        <ele>638.79999999999995</ele>
        <time>2019-04-25T11:07:02Z</time>
      </trkpt>
      <trkpt lat="50.503692151978612" lon="6.325868172571063">
        <ele>638.14999999999998</ele>
        <time>2019-04-25T11:09:38Z</time>
      </trkpt>
      <trkpt lat="50.503648817539215" lon="6.325892060995102">
        <ele>637.98000000000002</ele>
        <time>2019-04-25T11:10:40Z</time>
      </trkpt>
      <trkpt lat="50.503695756196976" lon="6.325861215591431">
        <ele>637.94000000000005</ele>
        <time>2019-04-25T11:11:06Z</time>
      </trkpt>
      <trkpt lat="50.503782760351896" lon="6.325571704655886">
        <ele>636.98000000000002</ele>
        <time>2019-04-25T11:11:26Z</time>
      </trkpt>
      <trkpt lat="50.503829196095467" lon="6.325285965576768">
        <ele>636.85000000000002</ele>
        <time>2019-04-25T11:11:44Z</time>
      </trkpt>
      <trkpt lat="50.503796506673098" lon="6.324932333081961">
        <ele>636.63999999999999</ele>
        <time>2019-04-25T11:12:01Z</time>
      </trkpt>
      <trkpt lat="50.503730708733201" lon="6.324597978964448">
        <ele>636.37</ele>
        <time>2019-04-25T11:12:19Z</time>
      </trkpt>
      <trkpt lat="50.503721572458744" lon="6.324243173003197">
        <ele>636.04999999999995</ele>
        <time>2019-04-25T11:12:38Z</time>
      </trkpt>
      <trkpt lat="50.503596933558583" lon="6.323141120374203">
        <ele>635.67999999999995</ele>
        <time>2019-04-25T11:14:08Z</time>
      </trkpt>
      <trkpt lat="50.503285629674792" lon="6.320832157507539">
        <ele>630.33000000000004</ele>
        <time>2019-04-25T11:16:05Z</time>
      </trkpt>
      <trkpt lat="50.503154452890158" lon="6.320421108976007">
        <ele>630.05999999999995</ele>
        <time>2019-04-25T11:16:23Z</time>
      </trkpt>
      <trkpt lat="50.503087900578976" lon="6.32005725055933">
        <ele>629.87</ele>
        <time>2019-04-25T11:16:41Z</time>
      </trkpt>
      <trkpt lat="50.503044985234737" lon="6.319745108485222">
        <ele>629.71000000000004</ele>
        <time>2019-04-25T11:16:56Z</time>
      </trkpt>
      <trkpt lat="50.502992263063788" lon="6.319402791559696">
        <ele>629.51999999999998</ele>
        <time>2019-04-25T11:17:14Z</time>
      </trkpt>
      <trkpt lat="50.502955717965961" lon="6.319149155169725">
        <ele>629.38999999999999</ele>
        <time>2019-04-25T11:17:27Z</time>
      </trkpt>
      <trkpt lat="50.50291808322072" lon="6.318851262331009">
        <ele>629.17999999999995</ele>
        <time>2019-04-25T11:17:44Z</time>
      </trkpt>
      <trkpt lat="50.502899810671806" lon="6.31857817992568">
        <ele>629</ele>
        <time>2019-04-25T11:17:58Z</time>
      </trkpt>
      <trkpt lat="50.502841388806701" lon="6.318212728947401">
        <ele>627.85000000000002</ele>
        <time>2019-04-25T11:18:16Z</time>
      </trkpt>
      <trkpt lat="50.502790175378323" lon="6.317879380658269">
        <ele>627.66999999999996</ele>
        <time>2019-04-25T11:18:33Z</time>
      </trkpt>
      <trkpt lat="50.502773327752948" lon="6.317649884149432">
        <ele>626.57000000000005</ele>
        <time>2019-04-25T11:18:45Z</time>
      </trkpt>
      <trkpt lat="50.502750109881163" lon="6.317320307716727">
        <ele>626.38999999999999</ele>
        <time>2019-04-25T11:19:02Z</time>
      </trkpt>
      <trkpt lat="50.50269621424377" lon="6.316981846466661">
        <ele>626.22000000000003</ele>
        <time>2019-04-25T11:19:19Z</time>
      </trkpt>
      <trkpt lat="50.502659752964973" lon="6.316819237545133">
        <ele>628.35000000000002</ele>
        <time>2019-04-25T11:19:27Z</time>
      </trkpt>
      <trkpt lat="50.502644246444106" lon="6.316714128479362">
        <ele>628.27999999999997</ele>
        <time>2019-04-25T11:19:32Z</time>
      </trkpt>
      <trkpt lat="50.502600576728582" lon="6.31636954843998">
        <ele>628.01999999999998</ele>
        <time>2019-04-25T11:19:49Z</time>
      </trkpt>
      <trkpt lat="50.502559002488852" lon="6.316079869866371">
        <ele>627.88</ele>
        <time>2019-04-25T11:20:04Z</time>
      </trkpt>
      <trkpt lat="50.502547770738602" lon="6.31595958955586">
        <ele>627.79999999999995</ele>
        <time>2019-04-25T11:20:11Z</time>
      </trkpt>
      <trkpt lat="50.50254818983376" lon="6.315881218761206">
        <ele>627.74000000000001</ele>
        <time>2019-04-25T11:20:15Z</time>
      </trkpt>
      <trkpt lat="50.502525558695197" lon="6.315698325634003">
        <ele>625.25999999999999</ele>
        <time>2019-04-25T11:20:24Z</time>
      </trkpt>
      <trkpt lat="50.502471998333931" lon="6.315349135547876">
        <ele>625.11000000000001</ele>
        <time>2019-04-25T11:20:40Z</time>
      </trkpt>
      <trkpt lat="50.502454563975334" lon="6.315292557701469">
        <ele>625.08000000000004</ele>
        <time>2019-04-25T11:20:43Z</time>
      </trkpt>
      <trkpt lat="50.502405278384686" lon="6.314949737861753">
        <ele>624.88999999999999</ele>
        <time>2019-04-25T11:20:59Z</time>
      </trkpt>
      <trkpt lat="50.502359764650464" lon="6.314622256904841">
        <ele>624.65999999999997</ele>
        <time>2019-04-25T11:21:16Z</time>
      </trkpt>
      <trkpt lat="50.502332020550966" lon="6.314329393208027">
        <ele>624.51999999999998</ele>
        <time>2019-04-25T11:21:31Z</time>
      </trkpt>
      <trkpt lat="50.502294553443789" lon="6.314058238640428">
        <ele>624.32000000000005</ele>
        <time>2019-04-25T11:21:46Z</time>
      </trkpt>
      <trkpt lat="50.502223977819085" lon="6.313677867874503">
        <ele>624.13999999999999</ele>
        <time>2019-04-25T11:22:03Z</time>
      </trkpt>
      <trkpt lat="50.502179218456149" lon="6.313353907316923">
        <ele>623.88999999999999</ele>
        <time>2019-04-25T11:22:19Z</time>
      </trkpt>
      <trkpt lat="50.502167986705899" lon="6.313254497945309">
        <ele>623.83000000000004</ele>
        <time>2019-04-25T11:22:24Z</time>
      </trkpt>
      <trkpt lat="50.502134542912245" lon="6.312954341992736">
        <ele>622.79999999999995</ele>
        <time>2019-04-25T11:22:38Z</time>
      </trkpt>
      <trkpt lat="50.502081820741296" lon="6.312636500224471">
        <ele>622.60000000000002</ele>
        <time>2019-04-25T11:22:55Z</time>
      </trkpt>
      <trkpt lat="50.502053825184703" lon="6.312272725626826">
        <ele>622.37</ele>
        <time>2019-04-25T11:23:13Z</time>
      </trkpt>
      <trkpt lat="50.502010406926274" lon="6.311906185001135">
        <ele>622.17999999999995</ele>
        <time>2019-04-25T11:23:30Z</time>
      </trkpt>
      <trkpt lat="50.501965479925275" lon="6.311612231656909">
        <ele>621.99000000000001</ele>
        <time>2019-04-25T11:23:46Z</time>
      </trkpt>
      <trkpt lat="50.501926252618432" lon="6.311360020190477">
        <ele>621.87</ele>
        <time>2019-04-25T11:23:57Z</time>
      </trkpt>
      <trkpt lat="50.501857521012425" lon="6.310987193137407">
        <ele>620.13</ele>
        <time>2019-04-25T11:24:16Z</time>
      </trkpt>
      <trkpt lat="50.501836482435465" lon="6.310835229232907">
        <ele>620.08000000000004</ele>
        <time>2019-04-25T11:24:23Z</time>
      </trkpt>
      <trkpt lat="50.501800188794732" lon="6.310610510408878">
        <ele>619.91999999999996</ele>
        <time>2019-04-25T11:24:37Z</time>
      </trkpt>
      <trkpt lat="50.501791639253497" lon="6.310507580637932">
        <ele>619.01999999999998</ele>
        <time>2019-04-25T11:24:42Z</time>
      </trkpt>
      <trkpt lat="50.501780239865184" lon="6.310426443815231">
        <ele>618.96000000000004</ele>
        <time>2019-04-25T11:24:46Z</time>
      </trkpt>
      <trkpt lat="50.501772025600076" lon="6.310280850157142">
        <ele>618.87</ele>
        <time>2019-04-25T11:24:54Z</time>
      </trkpt>
      <trkpt lat="50.501743527129292" lon="6.309975162148476">
        <ele>618.64999999999998</ele>
        <time>2019-04-25T11:25:12Z</time>
      </trkpt>
      <trkpt lat="50.501717291772366" lon="6.30942857824266">
        <ele>617.48000000000002</ele>
        <time>2019-04-25T11:25:35Z</time>
      </trkpt>
      <trkpt lat="50.501681920140982" lon="6.309091122820973">
        <ele>616.11000000000001</ele>
        <time>2019-04-25T11:25:53Z</time>
      </trkpt>
      <trkpt lat="50.501822987571359" lon="6.308860201388598">
        <ele>614.13</ele>
        <time>2019-04-25T11:26:12Z</time>
      </trkpt>
      <trkpt lat="50.501848300918937" lon="6.308807311579585">
        <ele>613.15999999999997</ele>
        <time>2019-04-25T11:26:16Z</time>
      </trkpt>
      <trkpt lat="50.50191686488688" lon="6.308485697954893">
        <ele>612.88999999999999</ele>
        <time>2019-04-25T11:26:30Z</time>
      </trkpt>
      <trkpt lat="50.50204393453896" lon="6.308363657444716">
        <ele>612.71000000000004</ele>
        <time>2019-04-25T11:26:41Z</time>
      </trkpt>
      <trkpt lat="50.502107972279191" lon="6.308229379355907">
        <ele>612.60000000000002</ele>
        <time>2019-04-25T11:26:49Z</time>
      </trkpt>
      <trkpt lat="50.502251219004393" lon="6.307945484295487">
        <ele>612.29999999999995</ele>
        <time>2019-04-25T11:27:08Z</time>
      </trkpt>
      <trkpt lat="50.502408128231764" lon="6.307704588398337">
        <ele>611.12</ele>
        <time>2019-04-25T11:27:25Z</time>
      </trkpt>
      <trkpt lat="50.502586159855127" lon="6.307515995576978">
        <ele>609.16999999999996</ele>
        <time>2019-04-25T11:27:41Z</time>
      </trkpt>
      <trkpt lat="50.502732088789344" lon="6.307263029739261">
        <ele>608.95000000000005</ele>
        <time>2019-04-25T11:27:57Z</time>
      </trkpt>
      <trkpt lat="50.50286821089685" lon="6.307021463289857">
        <ele>607.92999999999995</ele>
        <time>2019-04-25T11:28:12Z</time>
      </trkpt>
      <trkpt lat="50.50298597663641" lon="6.306880982592702">
        <ele>606.10000000000002</ele>
        <time>2019-04-25T11:28:23Z</time>
      </trkpt>
      <trkpt lat="50.503120506182313" lon="6.306712087243795">
        <ele>605.11000000000001</ele>
        <time>2019-04-25T11:28:36Z</time>
      </trkpt>
      <trkpt lat="50.503299040719867" lon="6.306423498317599">
        <ele>604.83000000000004</ele>
        <time>2019-04-25T11:28:55Z</time>
      </trkpt>
      <trkpt lat="50.50349710509181" lon="6.306051425635815">
        <ele>604.58000000000004</ele>
        <time>2019-04-25T11:29:17Z</time>
      </trkpt>
      <trkpt lat="50.503642531111836" lon="6.305809859186411">
        <ele>603.55999999999995</ele>
        <time>2019-04-25T11:29:34Z</time>
      </trkpt>
      <trkpt lat="50.503793405368924" lon="6.305576590821147">
        <ele>603.38999999999999</ele>
        <time>2019-04-25T11:29:50Z</time>
      </trkpt>
      <trkpt lat="50.503914440050721" lon="6.305406102910638">
        <ele>603.24000000000001</ele>
        <time>2019-04-25T11:30:02Z</time>
      </trkpt>
      <trkpt lat="50.504083419218659" lon="6.305233854800463">
        <ele>602.20000000000005</ele>
        <time>2019-04-25T11:30:18Z</time>
      </trkpt>
      <trkpt lat="50.504316100850701" lon="6.304869074374437">
        <ele>601</ele>
        <time>2019-04-25T11:30:41Z</time>
      </trkpt>
      <trkpt lat="50.504502095282078" lon="6.304565984755755">
        <ele>599.92999999999995</ele>
        <time>2019-04-25T11:31:02Z</time>
      </trkpt>
      <trkpt lat="50.504683814942837" lon="6.304267840459943">
        <ele>598.82000000000005</ele>
        <time>2019-04-25T11:31:20Z</time>
      </trkpt>
      <trkpt lat="50.504782218486071" lon="6.304150158539414">
        <ele>598.66999999999996</ele>
        <time>2019-04-25T11:31:30Z</time>
      </trkpt>
      <trkpt lat="50.504932170733809" lon="6.303922506049275">
        <ele>597.42999999999995</ele>
        <time>2019-04-25T11:31:45Z</time>
      </trkpt>
      <trkpt lat="50.505087738856673" lon="6.303696529939771">
        <ele>597.17999999999995</ele>
        <time>2019-04-25T11:32:00Z</time>
      </trkpt>
      <trkpt lat="50.505200726911426" lon="6.303580859676004">
        <ele>596.04999999999995</ele>
        <time>2019-04-25T11:32:10Z</time>
      </trkpt>
      <trkpt lat="50.505374651402235" lon="6.303351782262325">
        <ele>594.66999999999996</ele>
        <time>2019-04-25T11:32:27Z</time>
      </trkpt>
      <trkpt lat="50.505492920055985" lon="6.303192861378193">
        <ele>593.67999999999995</ele>
        <time>2019-04-25T11:32:39Z</time>
      </trkpt>
      <trkpt lat="50.505620576441288" lon="6.302993539720774">
        <ele>593.42999999999995</ele>
        <time>2019-04-25T11:32:52Z</time>
      </trkpt>
      <trkpt lat="50.505644045770168" lon="6.302939811721444">
        <ele>592.50999999999999</ele>
        <time>2019-04-25T11:32:55Z</time>
      </trkpt>
      <trkpt lat="50.505792992189527" lon="6.302733700722456">
        <ele>590.39999999999998</ele>
        <time>2019-04-25T11:33:11Z</time>
      </trkpt>
      <trkpt lat="50.50581612624228" lon="6.302680391818285">
        <ele>590.34000000000003</ele>
        <time>2019-04-25T11:33:14Z</time>
      </trkpt>
      <trkpt lat="50.505920900031924" lon="6.302533373236656">
        <ele>589.20000000000005</ele>
        <time>2019-04-25T11:33:23Z</time>
      </trkpt>
      <trkpt lat="50.506071019917727" lon="6.302355593070388">
        <ele>587.14999999999998</ele>
        <time>2019-04-25T11:33:36Z</time>
      </trkpt>
      <trkpt lat="50.506080323830247" lon="6.30233614705503">
        <ele>587.13999999999999</ele>
        <time>2019-04-25T11:33:37Z</time>
      </trkpt>
      <trkpt lat="50.506105218082666" lon="6.302314857020974">
        <ele>587.08000000000004</ele>
        <time>2019-04-25T11:33:39Z</time>
      </trkpt>
      <trkpt lat="50.506134303286672" lon="6.302260290831327">
        <ele>586.13</ele>
        <time>2019-04-25T11:33:42Z</time>
      </trkpt>
      <trkpt lat="50.506183253601193" lon="6.302183009684086">
        <ele>586.04999999999995</ele>
        <time>2019-04-25T11:33:47Z</time>
      </trkpt>
      <trkpt lat="50.506252152845263" lon="6.302042780444026">
        <ele>585.01999999999998</ele>
        <time>2019-04-25T11:33:56Z</time>
      </trkpt>
      <trkpt lat="50.506360614672303" lon="6.301850499585271">
        <ele>583.50999999999999</ele>
        <time>2019-04-25T11:34:08Z</time>
      </trkpt>
      <trkpt lat="50.506385341286659" lon="6.301797945052385">
        <ele>583.45000000000005</ele>
        <time>2019-04-25T11:34:11Z</time>
      </trkpt>
      <trkpt lat="50.506456503644586" lon="6.301672970876098">
        <ele>581.49000000000001</ele>
        <time>2019-04-25T11:34:20Z</time>
      </trkpt>
      <trkpt lat="50.506525570526719" lon="6.301541291177273">
        <ele>579.36000000000001</ele>
        <time>2019-04-25T11:34:29Z</time>
      </trkpt>
      <trkpt lat="50.506585668772459" lon="6.301458729431033">
        <ele>575.45000000000005</ele>
        <time>2019-04-25T11:34:35Z</time>
      </trkpt>
      <trkpt lat="50.50659891217947" lon="6.30144976079464">
        <ele>578.73000000000002</ele>
        <time>2019-04-25T11:34:36Z</time>
      </trkpt>
      <trkpt lat="50.506611736491323" lon="6.301437355577946">
        <ele>579.48000000000002</ele>
        <time>2019-04-25T11:34:37Z</time>
      </trkpt>
      <trkpt lat="50.506629757583141" lon="6.301408689469099">
        <ele>580.59000000000003</ele>
        <time>2019-04-25T11:34:39Z</time>
      </trkpt>
      <trkpt lat="50.506657753139734" lon="6.30136669613421">
        <ele>580.54999999999995</ele>
        <time>2019-04-25T11:34:42Z</time>
      </trkpt>
      <trkpt lat="50.50671567209065" lon="6.301253288984299">
        <ele>580.45000000000005</ele>
        <time>2019-04-25T11:34:50Z</time>
      </trkpt>
      <trkpt lat="50.506724137812853" lon="6.30122160539031">
        <ele>580.42999999999995</ele>
        <time>2019-04-25T11:34:52Z</time>
      </trkpt>
      <trkpt lat="50.506798317655921" lon="6.301144994795322">
        <ele>577.90999999999997</ele>
        <time>2019-04-25T11:34:58Z</time>
      </trkpt>
      <trkpt lat="50.506918346509337" lon="6.301017925143242">
        <ele>577.78999999999996</ele>
        <time>2019-04-25T11:35:09Z</time>
      </trkpt>
      <trkpt lat="50.507002165541053" lon="6.300745010375977">
        <ele>577.62</ele>
        <time>2019-04-25T11:35:25Z</time>
      </trkpt>
      <trkpt lat="50.50703376531601" lon="6.300710225477815">
        <ele>579.96000000000004</ele>
        <time>2019-04-25T11:35:28Z</time>
      </trkpt>
      <trkpt lat="50.507251359522343" lon="6.300326837226749">
        <ele>580.46000000000004</ele>
        <time>2019-04-25T11:35:50Z</time>
      </trkpt>
      <trkpt lat="50.507368789985776" lon="6.300060376524925">
        <ele>580.17999999999995</ele>
        <time>2019-04-25T11:36:09Z</time>
      </trkpt>
      <trkpt lat="50.507547743618488" lon="6.299820989370346">
        <ele>579.92999999999995</ele>
        <time>2019-04-25T11:36:28Z</time>
      </trkpt>
      <trkpt lat="50.5076904874295" lon="6.299549750983715">
        <ele>579.58000000000004</ele>
        <time>2019-04-25T11:36:48Z</time>
      </trkpt>
      <trkpt lat="50.507875811308622" lon="6.299261329695582">
        <ele>579.28999999999996</ele>
        <time>2019-04-25T11:37:09Z</time>
      </trkpt>
      <trkpt lat="50.508037665858865" lon="6.299088159576058">
        <ele>576.72000000000003</ele>
        <time>2019-04-25T11:37:22Z</time>
      </trkpt>
      <trkpt lat="50.508254002779722" lon="6.298835864290595">
        <ele>574.72000000000003</ele>
        <time>2019-04-25T11:37:42Z</time>
      </trkpt>
      <trkpt lat="50.508471429347992" lon="6.298496145755053">
        <ele>572.72000000000003</ele>
        <time>2019-04-25T11:38:05Z</time>
      </trkpt>
      <trkpt lat="50.508667901158333" lon="6.298235217109323">
        <ele>571.63999999999999</ele>
        <time>2019-04-25T11:38:23Z</time>
      </trkpt>
      <trkpt lat="50.508825816214085" lon="6.298138154670596">
        <ele>570.67999999999995</ele>
        <time>2019-04-25T11:38:37Z</time>
      </trkpt>
      <trkpt lat="50.509025473147631" lon="6.29794143140316">
        <ele>568</ele>
        <time>2019-04-25T11:38:56Z</time>
      </trkpt>
      <trkpt lat="50.509223788976669" lon="6.297775888815522">
        <ele>565.25999999999999</ele>
        <time>2019-04-25T11:39:16Z</time>
      </trkpt>
      <trkpt lat="50.509470468387008" lon="6.297619147226214">
        <ele>562.27999999999997</ele>
        <time>2019-04-25T11:39:36Z</time>
      </trkpt>
      <trkpt lat="50.50969828851521" lon="6.297467686235905">
        <ele>558.64999999999998</ele>
        <time>2019-04-25T11:39:52Z</time>
      </trkpt>
      <trkpt lat="50.50991621799767" lon="6.297324690967798">
        <ele>556.92999999999995</ele>
        <time>2019-04-25T11:40:08Z</time>
      </trkpt>
      <trkpt lat="50.510037755593657" lon="6.297164680436254">
        <ele>553.91999999999996</ele>
        <time>2019-04-25T11:40:23Z</time>
      </trkpt>
      <trkpt lat="50.510041862726212" lon="6.296973656862974">
        <ele>553.05999999999995</ele>
        <time>2019-04-25T11:40:29Z</time>
      </trkpt>
      <trkpt lat="50.510038090869784" lon="6.296912636607885">
        <ele>553.04999999999995</ele>
        <time>2019-04-25T11:40:32Z</time>
      </trkpt>
      <trkpt lat="50.51003297790885" lon="6.296597477048636">
        <ele>552.13</ele>
        <time>2019-04-25T11:40:44Z</time>
      </trkpt>
      <trkpt lat="50.510078491643071" lon="6.296508377417922">
        <ele>551.32000000000005</ele>
        <time>2019-04-25T11:40:49Z</time>
      </trkpt>
      <trkpt lat="50.51006231456995" lon="6.296363789588213">
        <ele>550.38</ele>
        <time>2019-04-25T11:40:56Z</time>
      </trkpt>
      <trkpt lat="50.510073713958263" lon="6.295986184850335">
        <ele>549.42999999999995</ele>
        <time>2019-04-25T11:41:11Z</time>
      </trkpt>
      <trkpt lat="50.510088801383972" lon="6.295714108273387">
        <ele>548.66999999999996</ele>
        <time>2019-04-25T11:41:24Z</time>
      </trkpt>
      <trkpt lat="50.510065332055092" lon="6.295457370579243">
        <ele>546.95000000000005</ele>
        <time>2019-04-25T11:41:40Z</time>
      </trkpt>
      <trkpt lat="50.510022584348917" lon="6.295393081381917">
        <ele>546.99000000000001</ele>
        <time>2019-04-25T11:41:45Z</time>
      </trkpt>
      <trkpt lat="50.509800799190998" lon="6.295286128297448">
        <ele>546.92999999999995</ele>
        <time>2019-04-25T11:42:01Z</time>
      </trkpt>
      <trkpt lat="50.509711364284158" lon="6.295287888497114">
        <ele>546.03999999999996</ele>
        <time>2019-04-25T11:42:08Z</time>
      </trkpt>
      <trkpt lat="50.509626287966967" lon="6.295340778306127">
        <ele>546</ele>
        <time>2019-04-25T11:42:16Z</time>
      </trkpt>
      <trkpt lat="50.50956392660737" lon="6.295386292040348">
        <ele>544.51999999999998</ele>
        <time>2019-04-25T11:42:21Z</time>
      </trkpt>
      <trkpt lat="50.509552527219057" lon="6.295396015048027">
        <ele>537.99000000000001</ele>
        <time>2019-04-25T11:42:22Z</time>
      </trkpt>
      <trkpt lat="50.509535511955619" lon="6.295402888208628">
        <ele>545.09000000000003</ele>
        <time>2019-04-25T11:42:23Z</time>
      </trkpt>
      <trkpt lat="50.509508522227407" lon="6.295420490205288">
        <ele>546.17999999999995</ele>
        <time>2019-04-25T11:42:25Z</time>
      </trkpt>
      <trkpt lat="50.509427553042769" lon="6.295458627864718">
        <ele>546.13999999999999</ele>
        <time>2019-04-25T11:42:31Z</time>
      </trkpt>
      <trkpt lat="50.509387319907546" lon="6.295441528782249">
        <ele>546.13</ele>
        <time>2019-04-25T11:42:34Z</time>
      </trkpt>
      <trkpt lat="50.509229488670826" lon="6.295041460543871">
        <ele>546.97000000000003</ele>
        <time>2019-04-25T11:42:53Z</time>
      </trkpt>
      <trkpt lat="50.509210461750627" lon="6.294942051172257">
        <ele>546.95000000000005</ele>
        <time>2019-04-25T11:42:58Z</time>
      </trkpt>
      <trkpt lat="50.509209288284183" lon="6.294800732284784">
        <ele>546.92999999999995</ele>
        <time>2019-04-25T11:43:05Z</time>
      </trkpt>
      <trkpt lat="50.509233847260475" lon="6.294676931574941">
        <ele>546.89999999999998</ele>
        <time>2019-04-25T11:43:11Z</time>
      </trkpt>
      <trkpt lat="50.509243234992027" lon="6.294580791145563">
        <ele>547.82000000000005</ele>
        <time>2019-04-25T11:43:15Z</time>
      </trkpt>
      <trkpt lat="50.509294532239437" lon="6.294543072581291">
        <ele>547.83000000000004</ele>
        <time>2019-04-25T11:43:19Z</time>
      </trkpt>
      <trkpt lat="50.50939729437232" lon="6.294295471161604">
        <ele>549.38</ele>
        <time>2019-04-25T11:43:34Z</time>
      </trkpt>
      <trkpt lat="50.509390253573656" lon="6.294171335175633">
        <ele>549.33000000000004</ele>
        <time>2019-04-25T11:43:39Z</time>
      </trkpt>
      <trkpt lat="50.509404335170984" lon="6.294042421504855">
        <ele>549.25999999999999</ele>
        <time>2019-04-25T11:43:45Z</time>
      </trkpt>
      <trkpt lat="50.50945202820003" lon="6.293867910280824">
        <ele>550.60000000000002</ele>
        <time>2019-04-25T11:43:53Z</time>
      </trkpt>
      <trkpt lat="50.509567363187671" lon="6.293577728793025">
        <ele>551.39999999999998</ele>
        <time>2019-04-25T11:44:08Z</time>
      </trkpt>
      <trkpt lat="50.509611368179321" lon="6.293459543958306">
        <ele>551.35000000000002</ele>
        <time>2019-04-25T11:44:14Z</time>
      </trkpt>
      <trkpt lat="50.509662078693509" lon="6.293317135423422">
        <ele>551.32000000000005</ele>
        <time>2019-04-25T11:44:23Z</time>
      </trkpt>
      <trkpt lat="50.509776324033737" lon="6.293084369972348">
        <ele>551.28999999999996</ele>
        <time>2019-04-25T11:44:37Z</time>
      </trkpt>
      <trkpt lat="50.509877409785986" lon="6.29286359064281">
        <ele>551.23000000000002</ele>
        <time>2019-04-25T11:44:49Z</time>
      </trkpt>
      <trkpt lat="50.509924767538905" lon="6.292737191542983">
        <ele>548.84000000000003</ele>
        <time>2019-04-25T11:44:56Z</time>
      </trkpt>
      <trkpt lat="50.5099440459162" lon="6.292599057778716">
        <ele>547.76999999999998</ele>
        <time>2019-04-25T11:45:04Z</time>
      </trkpt>
      <trkpt lat="50.509959049522877" lon="6.29241700284183">
        <ele>550.53999999999996</ele>
        <time>2019-04-25T11:45:13Z</time>
      </trkpt>
      <trkpt lat="50.509974556043744" lon="6.292339386418462">
        <ele>551.64999999999998</ele>
        <time>2019-04-25T11:45:18Z</time>
      </trkpt>
      <trkpt lat="50.510022332891822" lon="6.292114332318306">
        <ele>551.32000000000005</ele>
        <time>2019-04-25T11:45:31Z</time>
      </trkpt>
      <trkpt lat="50.510023590177298" lon="6.292055826634169">
        <ele>551.28999999999996</ele>
        <time>2019-04-25T11:45:34Z</time>
      </trkpt>
      <trkpt lat="50.510026691481471" lon="6.291995393112302">
        <ele>548.96000000000004</ele>
        <time>2019-04-25T11:45:37Z</time>
      </trkpt>
      <trkpt lat="50.510015124455094" lon="6.29196303896606">
        <ele>548.97000000000003</ele>
        <time>2019-04-25T11:45:39Z</time>
      </trkpt>
      <trkpt lat="50.51003398373723" lon="6.291820798069239">
        <ele>548.19000000000005</ele>
        <time>2019-04-25T11:45:46Z</time>
      </trkpt>
      <trkpt lat="50.5100510828197" lon="6.291623571887612">
        <ele>548.26999999999998</ele>
        <time>2019-04-25T11:45:54Z</time>
      </trkpt>
      <trkpt lat="50.510074552148581" lon="6.291394326835871">
        <ele>548.23000000000002</ele>
        <time>2019-04-25T11:46:07Z</time>
      </trkpt>
      <trkpt lat="50.510078659281135" lon="6.291076820343733">
        <ele>548.04999999999995</ele>
        <time>2019-04-25T11:46:22Z</time>
      </trkpt>
      <trkpt lat="50.51008285023272" lon="6.29102292470634">
        <ele>548.04999999999995</ele>
        <time>2019-04-25T11:46:24Z</time>
      </trkpt>
      <trkpt lat="50.510083017870784" lon="6.290907924994826">
        <ele>544.95000000000005</ele>
        <time>2019-04-25T11:46:29Z</time>
      </trkpt>
      <trkpt lat="50.510091232135892" lon="6.290857633575797">
        <ele>550.86000000000001</ele>
        <time>2019-04-25T11:46:31Z</time>
      </trkpt>
      <trkpt lat="50.510097099468112" lon="6.290833242237568">
        <ele>550.83000000000004</ele>
        <time>2019-04-25T11:46:32Z</time>
      </trkpt>
      <trkpt lat="50.510100284591317" lon="6.290787979960442">
        <ele>550.78999999999996</ele>
        <time>2019-04-25T11:46:34Z</time>
      </trkpt>
      <trkpt lat="50.510100703686476" lon="6.290377601981163">
        <ele>550.71000000000004</ele>
        <time>2019-04-25T11:46:49Z</time>
      </trkpt>
      <trkpt lat="50.510184019804001" lon="6.289966972544789">
        <ele>548.36000000000001</ele>
        <time>2019-04-25T11:47:06Z</time>
      </trkpt>
      <trkpt lat="50.510191479697824" lon="6.28994450904429">
        <ele>548.33000000000004</ele>
        <time>2019-04-25T11:47:07Z</time>
      </trkpt>
      <trkpt lat="50.510321231558919" lon="6.28965231589973">
        <ele>547.46000000000004</ele>
        <time>2019-04-25T11:47:23Z</time>
      </trkpt>
      <trkpt lat="50.510513428598642" lon="6.28929516300559">
        <ele>546.58000000000004</ele>
        <time>2019-04-25T11:47:45Z</time>
      </trkpt>
      <trkpt lat="50.510558104142547" lon="6.289232885465026">
        <ele>545.67999999999995</ele>
        <time>2019-04-25T11:47:49Z</time>
      </trkpt>
      <trkpt lat="50.510734291747212" lon="6.288896854966879">
        <ele>543.08000000000004</ele>
        <time>2019-04-25T11:48:09Z</time>
      </trkpt>
      <trkpt lat="50.510927410796285" lon="6.288566021248698">
        <ele>543.20000000000005</ele>
        <time>2019-04-25T11:48:29Z</time>
      </trkpt>
      <trkpt lat="50.511133437976241" lon="6.288303080946207">
        <ele>540.47000000000003</ele>
        <time>2019-04-25T11:48:50Z</time>
      </trkpt>
      <trkpt lat="50.511327562853694" lon="6.288085402920842">
        <ele>538.95000000000005</ele>
        <time>2019-04-25T11:49:08Z</time>
      </trkpt>
      <trkpt lat="50.511541804298759" lon="6.28784098662436">
        <ele>535.46000000000004</ele>
        <time>2019-04-25T11:49:26Z</time>
      </trkpt>
      <trkpt lat="50.511684380471706" lon="6.287636384367943">
        <ele>535.49000000000001</ele>
        <time>2019-04-25T11:49:40Z</time>
      </trkpt>
      <trkpt lat="50.51181354559958" lon="6.287504704669118">
        <ele>533.75</ele>
        <time>2019-04-25T11:49:54Z</time>
      </trkpt>
      <trkpt lat="50.511959474533796" lon="6.287337066605687">
        <ele>532.72000000000003</ele>
        <time>2019-04-25T11:50:11Z</time>
      </trkpt>
      <trkpt lat="50.511960815638304" lon="6.287326756864786">
        <ele>535.67999999999995</ele>
        <time>2019-04-25T11:50:12Z</time>
      </trkpt>
      <trkpt lat="50.512030133977532" lon="6.287245284765959">
        <ele>535.64999999999998</ele>
        <time>2019-04-25T11:50:17Z</time>
      </trkpt>
      <trkpt lat="50.512250326573849" lon="6.287125758826733">
        <ele>535.58000000000004</ele>
        <time>2019-04-25T11:50:33Z</time>
      </trkpt>
      <trkpt lat="50.512448642402887" lon="6.287116706371307">
        <ele>535.55999999999995</ele>
        <time>2019-04-25T11:50:49Z</time>
      </trkpt>
      <trkpt lat="50.512667410075665" lon="6.28704403527081">
        <ele>535.40999999999997</ele>
        <time>2019-04-25T11:51:06Z</time>
      </trkpt>
      <trkpt lat="50.512923309579492" lon="6.286894669756293">
        <ele>535.23000000000002</ele>
        <time>2019-04-25T11:51:28Z</time>
      </trkpt>
      <trkpt lat="50.51304878666997" lon="6.286808839067817">
        <ele>532.87</ele>
        <time>2019-04-25T11:51:36Z</time>
      </trkpt>
      <trkpt lat="50.51329948939383" lon="6.286642542108893">
        <ele>532.73000000000002</ele>
        <time>2019-04-25T11:51:51Z</time>
      </trkpt>
      <trkpt lat="50.513475341722369" lon="6.286690402776003">
        <ele>531.74000000000001</ele>
        <time>2019-04-25T11:52:03Z</time>
      </trkpt>
      <trkpt lat="50.513845821842551" lon="6.287206308916211">
        <ele>530.73000000000002</ele>
        <time>2019-04-25T11:52:38Z</time>
      </trkpt>
      <trkpt lat="50.513898292556405" lon="6.287347292527556">
        <ele>530.70000000000005</ele>
        <time>2019-04-25T11:52:47Z</time>
      </trkpt>
      <trkpt lat="50.513912877067924" lon="6.287438319995999">
        <ele>530.66999999999996</ele>
        <time>2019-04-25T11:52:52Z</time>
      </trkpt>
      <trkpt lat="50.513953948393464" lon="6.287561031058431">
        <ele>530.62</ele>
        <time>2019-04-25T11:52:59Z</time>
      </trkpt>
      <trkpt lat="50.513980938121676" lon="6.287622721865773">
        <ele>530.59000000000003</ele>
        <time>2019-04-25T11:53:03Z</time>
      </trkpt>
      <trkpt lat="50.513921426609159" lon="6.287777032703161">
        <ele>530.57000000000005</ele>
        <time>2019-04-25T11:53:15Z</time>
      </trkpt>
      <trkpt lat="50.513880020007491" lon="6.287809638306499">
        <ele>530.61000000000001</ele>
        <time>2019-04-25T11:53:19Z</time>
      </trkpt>
      <trkpt lat="50.513843391090631" lon="6.287783654406667">
        <ele>532.88999999999999</ele>
        <time>2019-04-25T11:53:23Z</time>
      </trkpt>
      <trkpt lat="50.513708861544728" lon="6.28784341737628">
        <ele>534.67999999999995</ele>
        <time>2019-04-25T11:53:38Z</time>
      </trkpt>
      <trkpt lat="50.5135203525424" lon="6.28820744343102">
        <ele>539.80999999999995</ele>
        <time>2019-04-25T11:55:49Z</time>
      </trkpt>
      <trkpt lat="50.513516832143068" lon="6.288278354331851">
        <ele>540.70000000000005</ele>
        <time>2019-04-25T11:55:53Z</time>
      </trkpt>
      <trkpt lat="50.5135134793818" lon="6.288566943258047">
        <ele>543.19000000000005</ele>
        <time>2019-04-25T11:56:09Z</time>
      </trkpt>
      <trkpt lat="50.513520603999496" lon="6.288684876635671">
        <ele>543.96000000000004</ele>
        <time>2019-04-25T11:56:14Z</time>
      </trkpt>
      <trkpt lat="50.513595035299659" lon="6.289468752220273">
        <ele>547.47000000000003</ele>
        <time>2019-04-25T11:56:52Z</time>
      </trkpt>
      <trkpt lat="50.513707101345062" lon="6.289718365296722">
        <ele>549.80999999999995</ele>
        <time>2019-04-25T11:57:07Z</time>
      </trkpt>
      <trkpt lat="50.513781029731035" lon="6.289967643097043">
        <ele>550.48000000000002</ele>
        <time>2019-04-25T11:57:20Z</time>
      </trkpt>
      <trkpt lat="50.513870967552066" lon="6.29021130502224">
        <ele>550.49000000000001</ele>
        <time>2019-04-25T11:57:34Z</time>
      </trkpt>
      <trkpt lat="50.513898208737373" lon="6.2902548070997">
        <ele>550.49000000000001</ele>
        <time>2019-04-25T11:57:37Z</time>
      </trkpt>
      <trkpt lat="50.513978088274598" lon="6.290504336357117">
        <ele>550.39999999999998</ele>
        <time>2019-04-25T11:57:52Z</time>
      </trkpt>
      <trkpt lat="50.51420004107058" lon="6.290775993838906">
        <ele>551.08000000000004</ele>
        <time>2019-04-25T11:58:11Z</time>
      </trkpt>
      <trkpt lat="50.514248907566071" lon="6.290849503129721">
        <ele>551.80999999999995</ele>
        <time>2019-04-25T11:58:37Z</time>
      </trkpt>
      <trkpt lat="50.514363907277584" lon="6.29099115729332">
        <ele>554.97000000000003</ele>
        <time>2019-04-25T11:59:47Z</time>
      </trkpt>
      <trkpt lat="50.514375055208802" lon="6.291018901392818">
        <ele>552.5</ele>
        <time>2019-04-25T11:59:49Z</time>
      </trkpt>
      <trkpt lat="50.51438570022583" lon="6.291051842272282">
        <ele>552.49000000000001</ele>
        <time>2019-04-25T11:59:51Z</time>
      </trkpt>
      <trkpt lat="50.514404308050871" lon="6.291095092892647">
        <ele>552.48000000000002</ele>
        <time>2019-04-25T11:59:54Z</time>
      </trkpt>
      <trkpt lat="50.514484690502286" lon="6.291227526962757">
        <ele>552.46000000000004</ele>
        <time>2019-04-25T12:00:03Z</time>
      </trkpt>
      <trkpt lat="50.514540430158377" lon="6.291326014325023">
        <ele>552.49000000000001</ele>
        <time>2019-04-25T12:00:10Z</time>
      </trkpt>
      <trkpt lat="50.514658363536" lon="6.291545704007149">
        <ele>552.49000000000001</ele>
        <time>2019-04-25T12:00:25Z</time>
      </trkpt>
      <trkpt lat="50.514886435121298" lon="6.291824653744698">
        <ele>552.47000000000003</ele>
        <time>2019-04-25T12:00:44Z</time>
      </trkpt>
      <trkpt lat="50.515056252479553" lon="6.29209597595036">
        <ele>551.63</ele>
        <time>2019-04-25T12:01:01Z</time>
      </trkpt>
      <trkpt lat="50.515149878337979" lon="6.292192284017801">
        <ele>551.63</ele>
        <time>2019-04-25T12:01:09Z</time>
      </trkpt>
      <trkpt lat="50.515250628814101" lon="6.292373752221465">
        <ele>551.63999999999999</ele>
        <time>2019-04-25T12:01:22Z</time>
      </trkpt>
      <trkpt lat="50.515473671257496" lon="6.292657312005758">
        <ele>551.57000000000005</ele>
        <time>2019-04-25T12:01:43Z</time>
      </trkpt>
      <trkpt lat="50.515705430880189" lon="6.29294028505683">
        <ele>551.60000000000002</ele>
        <time>2019-04-25T12:02:03Z</time>
      </trkpt>
      <trkpt lat="50.515903411433101" lon="6.293214121833444">
        <ele>551.58000000000004</ele>
        <time>2019-04-25T12:02:22Z</time>
      </trkpt>
      <trkpt lat="50.516004413366318" lon="6.293341275304556">
        <ele>554.00999999999999</ele>
        <time>2019-04-25T12:02:31Z</time>
      </trkpt>
      <trkpt lat="50.516206417232752" lon="6.293607484549284">
        <ele>553.96000000000004</ele>
        <time>2019-04-25T12:02:50Z</time>
      </trkpt>
      <trkpt lat="50.516406241804361" lon="6.293857181444764">
        <ele>554.73000000000002</ele>
        <time>2019-04-25T12:03:07Z</time>
      </trkpt>
      <trkpt lat="50.516566839069128" lon="6.294088941067457">
        <ele>555.53999999999996</ele>
        <time>2019-04-25T12:03:23Z</time>
      </trkpt>
      <trkpt lat="50.516709918156266" lon="6.294295052066445">
        <ele>557.35000000000002</ele>
        <time>2019-04-25T12:03:39Z</time>
      </trkpt>
      <trkpt lat="50.516947461292148" lon="6.294473502784967">
        <ele>558.20000000000005</ele>
        <time>2019-04-25T12:03:57Z</time>
      </trkpt>
      <trkpt lat="50.517173772677779" lon="6.29464365541935">
        <ele>558.14999999999998</ele>
        <time>2019-04-25T12:04:15Z</time>
      </trkpt>
      <trkpt lat="50.517337890341878" lon="6.294881952926517">
        <ele>558.15999999999997</ele>
        <time>2019-04-25T12:04:33Z</time>
      </trkpt>
      <trkpt lat="50.517485998570919" lon="6.295112958177924">
        <ele>558.13999999999999</ele>
        <time>2019-04-25T12:04:49Z</time>
      </trkpt>
      <trkpt lat="50.51752757281065" lon="6.295175654813647">
        <ele>558.13999999999999</ele>
        <time>2019-04-25T12:04:53Z</time>
      </trkpt>
      <trkpt lat="50.517677022144198" lon="6.295403894037008">
        <ele>558.11000000000001</ele>
        <time>2019-04-25T12:05:10Z</time>
      </trkpt>
      <trkpt lat="50.517908614128828" lon="6.295666247606278">
        <ele>558.79999999999995</ele>
        <time>2019-04-25T12:05:30Z</time>
      </trkpt>
      <trkpt lat="50.518169961869717" lon="6.29594880156219">
        <ele>559.74000000000001</ele>
        <time>2019-04-25T12:05:52Z</time>
      </trkpt>
      <trkpt lat="50.518379090353847" lon="6.296192547306418">
        <ele>559.70000000000005</ele>
        <time>2019-04-25T12:06:10Z</time>
      </trkpt>
      <trkpt lat="50.518407840281725" lon="6.296219201758504">
        <ele>559.71000000000004</ele>
        <time>2019-04-25T12:06:24Z</time>
      </trkpt>
      <trkpt lat="50.518484367057681" lon="6.296326825395227">
        <ele>559.74000000000001</ele>
        <time>2019-04-25T12:06:38Z</time>
      </trkpt>
      <trkpt lat="50.518693495541811" lon="6.296585742384195">
        <ele>560.50999999999999</ele>
        <time>2019-04-25T12:06:56Z</time>
      </trkpt>
      <trkpt lat="50.518787205219269" lon="6.296810042113066">
        <ele>563.23000000000002</ele>
        <time>2019-04-25T12:07:11Z</time>
      </trkpt>
      <trkpt lat="50.518784187734127" lon="6.296976841986179">
        <ele>564.13999999999999</ele>
        <time>2019-04-25T12:07:25Z</time>
      </trkpt>
      <trkpt lat="50.518750408664346" lon="6.297272052615881">
        <ele>567.20000000000005</ele>
        <time>2019-04-25T12:07:44Z</time>
      </trkpt>
      <trkpt lat="50.518644126132131" lon="6.29768393933773">
        <ele>569.41999999999996</ele>
        <time>2019-04-25T12:08:05Z</time>
      </trkpt>
      <trkpt lat="50.518635157495737" lon="6.297705480828881">
        <ele>569.40999999999997</ele>
        <time>2019-04-25T12:08:06Z</time>
      </trkpt>
      <trkpt lat="50.518554607406259" lon="6.29807822406292">
        <ele>569.12</ele>
        <time>2019-04-25T12:08:25Z</time>
      </trkpt>
      <trkpt lat="50.518495598807931" lon="6.298381062224507">
        <ele>570.75999999999999</ele>
        <time>2019-04-25T12:08:41Z</time>
      </trkpt>
      <trkpt lat="50.518465926870704" lon="6.29850679077208">
        <ele>571.63</ele>
        <time>2019-04-25T12:08:47Z</time>
      </trkpt>
      <trkpt lat="50.518445139750838" lon="6.298552555963397">
        <ele>572.40999999999997</ele>
        <time>2019-04-25T12:08:49Z</time>
      </trkpt>
      <trkpt lat="50.518384203314781" lon="6.298755062744021">
        <ele>572.26999999999998</ele>
        <time>2019-04-25T12:08:59Z</time>
      </trkpt>
      <trkpt lat="50.518298540264368" lon="6.299105761572719">
        <ele>573.99000000000001</ele>
        <time>2019-04-25T12:09:15Z</time>
      </trkpt>
      <trkpt lat="50.518227461725473" lon="6.299396026879549">
        <ele>574.64999999999998</ele>
        <time>2019-04-25T12:09:30Z</time>
      </trkpt>
      <trkpt lat="50.518172392621636" lon="6.299727112054825">
        <ele>575.35000000000002</ele>
        <time>2019-04-25T12:09:44Z</time>
      </trkpt>
      <trkpt lat="50.518131656572223" lon="6.299922745674849">
        <ele>576.01999999999998</ele>
        <time>2019-04-25T12:09:58Z</time>
      </trkpt>
      <trkpt lat="50.518049681559205" lon="6.300241509452462">
        <ele>576.72000000000003</ele>
        <time>2019-04-25T12:10:12Z</time>
      </trkpt>
      <trkpt lat="50.517957732081413" lon="6.3005590159446">
        <ele>578.40999999999997</ele>
        <time>2019-04-25T12:10:28Z</time>
      </trkpt>
      <trkpt lat="50.517892185598612" lon="6.300847353413701">
        <ele>580.14999999999998</ele>
        <time>2019-04-25T12:10:42Z</time>
      </trkpt>
      <trkpt lat="50.517870979383588" lon="6.301022870466113">
        <ele>581.25999999999999</ele>
        <time>2019-04-25T12:10:52Z</time>
      </trkpt>
      <trkpt lat="50.517876511439681" lon="6.301066288724542">
        <ele>584.34000000000003</ele>
        <time>2019-04-25T12:10:55Z</time>
      </trkpt>
      <trkpt lat="50.517873158678412" lon="6.301073664799333">
        <ele>584.32000000000005</ele>
        <time>2019-04-25T12:10:56Z</time>
      </trkpt>
      <trkpt lat="50.517867961898446" lon="6.30108674056828">
        <ele>581.49000000000001</ele>
        <time>2019-04-25T12:10:58Z</time>
      </trkpt>
      <trkpt lat="50.517866285517812" lon="6.30109797231853">
        <ele>580.67999999999995</ele>
        <time>2019-04-25T12:10:59Z</time>
      </trkpt>
      <trkpt lat="50.517852623015642" lon="6.301219593733549">
        <ele>581.77999999999997</ele>
        <time>2019-04-25T12:11:09Z</time>
      </trkpt>
      <trkpt lat="50.517720691859722" lon="6.301686633378267">
        <ele>581.20000000000005</ele>
        <time>2019-04-25T12:11:30Z</time>
      </trkpt>
      <trkpt lat="50.517724212259054" lon="6.301739607006311">
        <ele>581.16999999999996</ele>
        <time>2019-04-25T12:11:32Z</time>
      </trkpt>
      <trkpt lat="50.517810210585594" lon="6.301878830417991">
        <ele>581.07000000000005</ele>
        <time>2019-04-25T12:11:41Z</time>
      </trkpt>
      <trkpt lat="50.51798639819026" lon="6.302131963893771">
        <ele>579.90999999999997</ele>
        <time>2019-04-25T12:11:55Z</time>
      </trkpt>
      <trkpt lat="50.518086142838001" lon="6.302270852029324">
        <ele>579.84000000000003</ele>
        <time>2019-04-25T12:12:04Z</time>
      </trkpt>
      <trkpt lat="50.518165519461036" lon="6.302362801507115">
        <ele>583</ele>
        <time>2019-04-25T12:12:11Z</time>
      </trkpt>
      <trkpt lat="50.518165854737163" lon="6.30237671546638">
        <ele>582.97000000000003</ele>
        <time>2019-04-25T12:12:12Z</time>
      </trkpt>
      <trkpt lat="50.518294852226973" lon="6.302591124549508">
        <ele>582.76999999999998</ele>
        <time>2019-04-25T12:12:29Z</time>
      </trkpt>
      <trkpt lat="50.518306838348508" lon="6.302620712667704">
        <ele>580.34000000000003</ele>
        <time>2019-04-25T12:12:31Z</time>
      </trkpt>
      <trkpt lat="50.518495263531804" lon="6.302734455093741">
        <ele>580.13</ele>
        <time>2019-04-25T12:12:52Z</time>
      </trkpt>
      <trkpt lat="50.518669439479709" lon="6.302792122587562">
        <ele>579.96000000000004</ele>
        <time>2019-04-25T12:13:07Z</time>
      </trkpt>
      <trkpt lat="50.518893487751484" lon="6.30290444009006">
        <ele>579.82000000000005</ele>
        <time>2019-04-25T12:13:21Z</time>
      </trkpt>
      <trkpt lat="50.519047379493713" lon="6.30299236625433">
        <ele>579.69000000000005</ele>
        <time>2019-04-25T12:13:34Z</time>
      </trkpt>
      <trkpt lat="50.519505199044943" lon="6.303181378170848">
        <ele>579.32000000000005</ele>
        <time>2019-04-25T12:14:10Z</time>
      </trkpt>
      <trkpt lat="50.519562195986509" lon="6.30320250056684">
        <ele>579.25999999999999</ele>
        <time>2019-04-25T12:14:15Z</time>
      </trkpt>
      <trkpt lat="50.519755315035582" lon="6.303146257996559">
        <ele>578.99000000000001</ele>
        <time>2019-04-25T12:14:36Z</time>
      </trkpt>
      <trkpt lat="50.519997384399176" lon="6.302954396232963">
        <ele>578.01999999999998</ele>
        <time>2019-04-25T12:14:50Z</time>
      </trkpt>
      <trkpt lat="50.520138451829553" lon="6.302712578326464">
        <ele>577.78999999999996</ele>
        <time>2019-04-25T12:15:04Z</time>
      </trkpt>
      <trkpt lat="50.520282369107008" lon="6.302429353818297">
        <ele>577.5</ele>
        <time>2019-04-25T12:15:24Z</time>
      </trkpt>
      <trkpt lat="50.520378844812512" lon="6.302423570305109">
        <ele>577.38999999999999</ele>
        <time>2019-04-25T12:15:34Z</time>
      </trkpt>
      <trkpt lat="50.520481858402491" lon="6.302508730441332">
        <ele>577.21000000000004</ele>
        <time>2019-04-25T12:15:46Z</time>
      </trkpt>
      <trkpt lat="50.520580178126693" lon="6.302711740136147">
        <ele>577.09000000000003</ele>
        <time>2019-04-25T12:15:57Z</time>
      </trkpt>
      <trkpt lat="50.52062208764255" lon="6.302827913314104">
        <ele>579.33000000000004</ele>
        <time>2019-04-25T12:16:02Z</time>
      </trkpt>
      <trkpt lat="50.520635414868593" lon="6.302848197519779">
        <ele>579.32000000000005</ele>
        <time>2019-04-25T12:16:03Z</time>
      </trkpt>
      <trkpt lat="50.520704565569758" lon="6.302959928289056">
        <ele>579.25</ele>
        <time>2019-04-25T12:16:10Z</time>
      </trkpt>
      <trkpt lat="50.520730633288622" lon="6.303048860281706">
        <ele>579.19000000000005</ele>
        <time>2019-04-25T12:16:16Z</time>
      </trkpt>
      <trkpt lat="50.520831635221839" lon="6.303256312385202">
        <ele>579.83000000000004</ele>
        <time>2019-04-25T12:16:30Z</time>
      </trkpt>
      <trkpt lat="50.520992232486606" lon="6.303546326234937">
        <ele>579.72000000000003</ele>
        <time>2019-04-25T12:16:49Z</time>
      </trkpt>
      <trkpt lat="50.521132797002792" lon="6.303799962624908">
        <ele>579.58000000000004</ele>
        <time>2019-04-25T12:17:05Z</time>
      </trkpt>
      <trkpt lat="50.521148722618818" lon="6.303814798593521">
        <ele>579.54999999999995</ele>
        <time>2019-04-25T12:17:06Z</time>
      </trkpt>
      <trkpt lat="50.521257519721985" lon="6.303982939571142">
        <ele>580.34000000000003</ele>
        <time>2019-04-25T12:17:18Z</time>
      </trkpt>
      <trkpt lat="50.5213413387537" lon="6.304214280098677">
        <ele>581.17999999999995</ele>
        <time>2019-04-25T12:17:33Z</time>
      </trkpt>
      <trkpt lat="50.521470587700605" lon="6.304437909275293">
        <ele>581.03999999999996</ele>
        <time>2019-04-25T12:17:48Z</time>
      </trkpt>
      <trkpt lat="50.521600339561701" lon="6.304639577865601">
        <ele>582.72000000000003</ele>
        <time>2019-04-25T12:18:02Z</time>
      </trkpt>
      <trkpt lat="50.5216193664819" lon="6.304727168753743">
        <ele>582.67999999999995</ele>
        <time>2019-04-25T12:18:07Z</time>
      </trkpt>
      <trkpt lat="50.521642751991749" lon="6.304806210100651">
        <ele>580.38</ele>
        <time>2019-04-25T12:18:12Z</time>
      </trkpt>
      <trkpt lat="50.521794967353344" lon="6.305061941966415">
        <ele>584.03999999999996</ele>
        <time>2019-04-25T12:18:30Z</time>
      </trkpt>
      <trkpt lat="50.522188162431121" lon="6.305766776204109">
        <ele>585.50999999999999</ele>
        <time>2019-04-25T12:19:13Z</time>
      </trkpt>
      <trkpt lat="50.522395195439458" lon="6.30603214725852">
        <ele>580.94000000000005</ele>
        <time>2019-04-25T12:19:31Z</time>
      </trkpt>
      <trkpt lat="50.522400978952646" lon="6.306046480312944">
        <ele>580.90999999999997</ele>
        <time>2019-04-25T12:19:32Z</time>
      </trkpt>
      <trkpt lat="50.522405840456486" lon="6.306061400100589">
        <ele>587</ele>
        <time>2019-04-25T12:19:33Z</time>
      </trkpt>
      <trkpt lat="50.522412294521928" lon="6.306075397878885">
        <ele>586.97000000000003</ele>
        <time>2019-04-25T12:19:34Z</time>
      </trkpt>
      <trkpt lat="50.522444061934948" lon="6.306136753410101">
        <ele>588.22000000000003</ele>
        <time>2019-04-25T12:19:38Z</time>
      </trkpt>
      <trkpt lat="50.522531736642122" lon="6.306303972378373">
        <ele>585.30999999999995</ele>
        <time>2019-04-25T12:19:50Z</time>
      </trkpt>
      <trkpt lat="50.522622596472502" lon="6.306511759757996">
        <ele>585.51999999999998</ele>
        <time>2019-04-25T12:20:05Z</time>
      </trkpt>
      <trkpt lat="50.522755952551961" lon="6.306763887405396">
        <ele>585.46000000000004</ele>
        <time>2019-04-25T12:20:22Z</time>
      </trkpt>
      <trkpt lat="50.522847818210721" lon="6.307057840749621">
        <ele>587.72000000000003</ele>
        <time>2019-04-25T12:20:41Z</time>
      </trkpt>
      <trkpt lat="50.522997602820396" lon="6.3073455914855">
        <ele>587.54999999999995</ele>
        <time>2019-04-25T12:21:00Z</time>
      </trkpt>
      <trkpt lat="50.523103130981326" lon="6.307513061910868">
        <ele>587.46000000000004</ele>
        <time>2019-04-25T12:21:16Z</time>
      </trkpt>
      <trkpt lat="50.523280408233404" lon="6.307842889800668">
        <ele>588.32000000000005</ele>
        <time>2019-04-25T12:21:36Z</time>
      </trkpt>
      <trkpt lat="50.523430360481143" lon="6.308069452643395">
        <ele>590.04999999999995</ele>
        <time>2019-04-25T12:21:53Z</time>
      </trkpt>
      <trkpt lat="50.523472772911191" lon="6.308160731568933">
        <ele>589.89999999999998</ele>
        <time>2019-04-25T12:22:00Z</time>
      </trkpt>
      <trkpt lat="50.523526500910521" lon="6.308257794007659">
        <ele>589.84000000000003</ele>
        <time>2019-04-25T12:22:05Z</time>
      </trkpt>
      <trkpt lat="50.523621300235391" lon="6.308465916663408">
        <ele>589.75</ele>
        <time>2019-04-25T12:22:16Z</time>
      </trkpt>
      <trkpt lat="50.523738982155919" lon="6.308686695992947">
        <ele>590.60000000000002</ele>
        <time>2019-04-25T12:22:30Z</time>
      </trkpt>
      <trkpt lat="50.523890946060419" lon="6.308911330997944">
        <ele>590.44000000000005</ele>
        <time>2019-04-25T12:22:45Z</time>
      </trkpt>
      <trkpt lat="50.523992534726858" lon="6.309128757566214">
        <ele>591.33000000000004</ele>
        <time>2019-04-25T12:22:58Z</time>
      </trkpt>
      <trkpt lat="50.524108624085784" lon="6.30932841449976">
        <ele>591.11000000000001</ele>
        <time>2019-04-25T12:23:12Z</time>
      </trkpt>
      <trkpt lat="50.524236699566245" lon="6.309574842453003">
        <ele>591.09000000000003</ele>
        <time>2019-04-25T12:23:28Z</time>
      </trkpt>
      <trkpt lat="50.524241644889116" lon="6.309587331488729">
        <ele>591.09000000000003</ele>
        <time>2019-04-25T12:23:29Z</time>
      </trkpt>
      <trkpt lat="50.524270310997963" lon="6.30968707613647">
        <ele>591.08000000000004</ele>
        <time>2019-04-25T12:23:34Z</time>
      </trkpt>
      <trkpt lat="50.524285398423672" lon="6.309709120541811">
        <ele>591.09000000000003</ele>
        <time>2019-04-25T12:23:40Z</time>
      </trkpt>
      <trkpt lat="50.524378269910812" lon="6.309767374768853">
        <ele>590.97000000000003</ele>
        <time>2019-04-25T12:23:51Z</time>
      </trkpt>
      <trkpt lat="50.524541046470404" lon="6.310033919289708">
        <ele>591.88</ele>
        <time>2019-04-25T12:24:08Z</time>
      </trkpt>
      <trkpt lat="50.524635091423988" lon="6.310235001146793">
        <ele>591.78999999999996</ele>
        <time>2019-04-25T12:24:21Z</time>
      </trkpt>
      <trkpt lat="50.524748917669058" lon="6.310488218441606">
        <ele>591.83000000000004</ele>
        <time>2019-04-25T12:24:37Z</time>
      </trkpt>
      <trkpt lat="50.524898786097765" lon="6.31070589646697">
        <ele>591.76999999999998</ele>
        <time>2019-04-25T12:24:49Z</time>
      </trkpt>
      <trkpt lat="50.524960728362203" lon="6.310835732147098">
        <ele>586.82000000000005</ele>
        <time>2019-04-25T12:24:58Z</time>
      </trkpt>
      <trkpt lat="50.524962823837996" lon="6.310848388820887">
        <ele>590.97000000000003</ele>
        <time>2019-04-25T12:24:59Z</time>
      </trkpt>
      <trkpt lat="50.524967182427645" lon="6.310863560065627">
        <ele>587.74000000000001</ele>
        <time>2019-04-25T12:25:00Z</time>
      </trkpt>
      <trkpt lat="50.524972714483738" lon="6.310874791815877">
        <ele>591.41999999999996</ele>
        <time>2019-04-25T12:25:01Z</time>
      </trkpt>
      <trkpt lat="50.525145716965199" lon="6.311049219220877">
        <ele>591.29999999999995</ele>
        <time>2019-04-25T12:25:17Z</time>
      </trkpt>
      <trkpt lat="50.525342021137476" lon="6.311260024085641">
        <ele>591.23000000000002</ele>
        <time>2019-04-25T12:25:32Z</time>
      </trkpt>
      <trkpt lat="50.525460373610258" lon="6.311433613300324">
        <ele>591.15999999999997</ele>
        <time>2019-04-25T12:25:47Z</time>
      </trkpt>
      <trkpt lat="50.525490213185549" lon="6.311463201418519">
        <ele>591.17999999999995</ele>
        <time>2019-04-25T12:25:50Z</time>
      </trkpt>
      <trkpt lat="50.525662209838629" lon="6.311680125072599">
        <ele>591.09000000000003</ele>
        <time>2019-04-25T12:26:07Z</time>
      </trkpt>
      <trkpt lat="50.525718200951815" lon="6.311732763424516">
        <ele>588.72000000000003</ele>
        <time>2019-04-25T12:26:12Z</time>
      </trkpt>
      <trkpt lat="50.525782825425267" lon="6.311802417039871">
        <ele>588.67999999999995</ele>
        <time>2019-04-25T12:26:18Z</time>
      </trkpt>
      <trkpt lat="50.525951720774174" lon="6.312002073973417">
        <ele>588.60000000000002</ele>
        <time>2019-04-25T12:26:34Z</time>
      </trkpt>
      <trkpt lat="50.52608055062592" lon="6.312155965715647">
        <ele>588.45000000000005</ele>
        <time>2019-04-25T12:26:47Z</time>
      </trkpt>
      <trkpt lat="50.5261489469558" lon="6.312211789190769">
        <ele>588.40999999999997</ele>
        <time>2019-04-25T12:26:53Z</time>
      </trkpt>
      <trkpt lat="50.526225809007883" lon="6.312213549390435">
        <ele>587.48000000000002</ele>
        <time>2019-04-25T12:27:12Z</time>
      </trkpt>
      <trkpt lat="50.526245757937431" lon="6.31224405951798">
        <ele>587.49000000000001</ele>
        <time>2019-04-25T12:27:16Z</time>
      </trkpt>
      <trkpt lat="50.526341227814555" lon="6.312381187453866">
        <ele>587.52999999999997</ele>
        <time>2019-04-25T12:27:27Z</time>
      </trkpt>
      <trkpt lat="50.52647240459919" lon="6.312572630122304">
        <ele>587.52999999999997</ele>
        <time>2019-04-25T12:27:43Z</time>
      </trkpt>
      <trkpt lat="50.526744313538074" lon="6.312849400565028">
        <ele>587.50999999999999</ele>
        <time>2019-04-25T12:28:07Z</time>
      </trkpt>
      <trkpt lat="50.526769626885653" lon="6.312867337837815">
        <ele>589.78999999999996</ele>
        <time>2019-04-25T12:28:09Z</time>
      </trkpt>
      <trkpt lat="50.526975989341736" lon="6.312722750008106">
        <ele>587.35000000000002</ele>
        <time>2019-04-25T12:28:26Z</time>
      </trkpt>
      <trkpt lat="50.526985293254256" lon="6.312703974545002">
        <ele>587.35000000000002</ele>
        <time>2019-04-25T12:28:27Z</time>
      </trkpt>
      <trkpt lat="50.527178831398487" lon="6.312274569645524">
        <ele>587.49000000000001</ele>
        <time>2019-04-25T12:28:49Z</time>
      </trkpt>
      <trkpt lat="50.527377566322684" lon="6.311798142269254">
        <ele>583.91999999999996</ele>
        <time>2019-04-25T12:29:15Z</time>
      </trkpt>
      <trkpt lat="50.527545958757401" lon="6.311346357688308">
        <ele>582.47000000000003</ele>
        <time>2019-04-25T12:29:40Z</time>
      </trkpt>
      <trkpt lat="50.527745196595788" lon="6.310856435447931">
        <ele>582.63999999999999</ele>
        <time>2019-04-25T12:30:06Z</time>
      </trkpt>
      <trkpt lat="50.527929598465562" lon="6.310386210680008">
        <ele>582.69000000000005</ele>
        <time>2019-04-25T12:30:33Z</time>
      </trkpt>
      <trkpt lat="50.528030348941684" lon="6.310112960636616">
        <ele>582.03999999999996</ele>
        <time>2019-04-25T12:30:50Z</time>
      </trkpt>
      <trkpt lat="50.528231514617801" lon="6.30961918272078">
        <ele>579.01999999999998</ele>
        <time>2019-04-25T12:31:17Z</time>
      </trkpt>
      <trkpt lat="50.528466794639826" lon="6.309047788381577">
        <ele>578.49000000000001</ele>
        <time>2019-04-25T12:31:48Z</time>
      </trkpt>
      <trkpt lat="50.528644323348999" lon="6.30859985947609">
        <ele>575.99000000000001</ele>
        <time>2019-04-25T12:32:14Z</time>
      </trkpt>
      <trkpt lat="50.528824031352997" lon="6.308153523132205">
        <ele>571.54999999999995</ele>
        <time>2019-04-25T12:32:39Z</time>
      </trkpt>
      <trkpt lat="50.528832832351327" lon="6.308136004954577">
        <ele>575.32000000000005</ele>
        <time>2019-04-25T12:32:40Z</time>
      </trkpt>
      <trkpt lat="50.528858983889222" lon="6.308081271126866">
        <ele>571.57000000000005</ele>
        <time>2019-04-25T12:32:43Z</time>
      </trkpt>
      <trkpt lat="50.529393078759313" lon="6.306563643738627">
        <ele>571.12</ele>
        <time>2019-04-25T12:33:03Z</time>
      </trkpt>
      <trkpt lat="50.529096610844135" lon="6.306205233559012">
        <ele>571.22000000000003</ele>
        <time>2019-04-25T12:33:04Z</time>
      </trkpt>
      <trkpt lat="50.526662170886993" lon="6.302349055185914">
        <ele>556.34000000000003</ele>
        <time>2019-04-25T12:36:53Z</time>
      </trkpt>
      <trkpt lat="50.526222037151456" lon="6.301101911813021">
        <ele>550.63999999999999</ele>
        <time>2019-04-25T12:38:37Z</time>
      </trkpt>
      <trkpt lat="50.526734841987491" lon="6.298995288088918">
        <ele>550.98000000000002</ele>
        <time>2019-04-25T12:42:15Z</time>
      </trkpt>
      <trkpt lat="50.528773237019777" lon="6.296658078208566">
        <ele>522.96000000000004</ele>
        <time>2019-04-25T12:47:32Z</time>
      </trkpt>
      <trkpt lat="50.529529452323914" lon="6.294749267399311">
        <ele>523.79999999999995</ele>
        <time>2019-04-25T12:48:07Z</time>
      </trkpt>
      <trkpt lat="50.529578318819404" lon="6.294479705393314">
        <ele>521.32000000000005</ele>
        <time>2019-04-25T12:48:18Z</time>
      </trkpt>
      <trkpt lat="50.529610840603709" lon="6.294364370405674">
        <ele>520.34000000000003</ele>
        <time>2019-04-25T12:48:25Z</time>
      </trkpt>
      <trkpt lat="50.529771018773317" lon="6.293994812294841">
        <ele>514.41999999999996</ele>
        <time>2019-04-25T12:48:44Z</time>
      </trkpt>
      <trkpt lat="50.529776467010379" lon="6.293974611908197">
        <ele>520.24000000000001</ele>
        <time>2019-04-25T12:48:45Z</time>
      </trkpt>
      <trkpt lat="50.529784932732582" lon="6.293955584987998">
        <ele>520.23000000000002</ele>
        <time>2019-04-25T12:48:46Z</time>
      </trkpt>
      <trkpt lat="50.52999104373157" lon="6.29300625063479">
        <ele>521.14999999999998</ele>
        <time>2019-04-25T12:49:21Z</time>
      </trkpt>
      <trkpt lat="50.530141331255436" lon="6.29257190041244">
        <ele>521.15999999999997</ele>
        <time>2019-04-25T12:49:42Z</time>
      </trkpt>
      <trkpt lat="50.53020796738565" lon="6.292367968708277">
        <ele>521.23000000000002</ele>
        <time>2019-04-25T12:49:56Z</time>
      </trkpt>
      <trkpt lat="50.530212493613362" lon="6.292347349226475">
        <ele>521.24000000000001</ele>
        <time>2019-04-25T12:49:57Z</time>
      </trkpt>
      <trkpt lat="50.530201261863112" lon="6.292239809408784">
        <ele>521.26999999999998</ele>
        <time>2019-04-25T12:50:03Z</time>
      </trkpt>
      <trkpt lat="50.530193634331226" lon="6.292203599587083">
        <ele>521.26999999999998</ele>
        <time>2019-04-25T12:50:05Z</time>
      </trkpt>
      <trkpt lat="50.530251050367951" lon="6.291910903528333">
        <ele>522.16999999999996</ele>
        <time>2019-04-25T12:50:19Z</time>
      </trkpt>
      <trkpt lat="50.530300084501505" lon="6.291609741747379">
        <ele>522.21000000000004</ele>
        <time>2019-04-25T12:50:31Z</time>
      </trkpt>
      <trkpt lat="50.530543075874448" lon="6.290994761511684">
        <ele>522.41999999999996</ele>
        <time>2019-04-25T12:50:57Z</time>
      </trkpt>
      <trkpt lat="50.530599234625697" lon="6.29073559306562">
        <ele>520.27999999999997</ele>
        <time>2019-04-25T12:51:13Z</time>
      </trkpt>
      <trkpt lat="50.530611472204328" lon="6.29049620591104">
        <ele>520.46000000000004</ele>
        <time>2019-04-25T12:51:30Z</time>
      </trkpt>
      <trkpt lat="50.530623709782958" lon="6.290006618946791">
        <ele>520.75999999999999</ele>
        <time>2019-04-25T12:51:51Z</time>
      </trkpt>
      <trkpt lat="50.530623709782958" lon="6.289519211277366">
        <ele>523.32000000000005</ele>
        <time>2019-04-25T12:52:01Z</time>
      </trkpt>
      <trkpt lat="50.530444085597992" lon="6.289132134988904">
        <ele>523.59000000000003</ele>
        <time>2019-04-25T12:52:24Z</time>
      </trkpt>
      <trkpt lat="50.530269322916865" lon="6.288949241861701">
        <ele>525.72000000000003</ele>
        <time>2019-04-25T12:52:42Z</time>
      </trkpt>
      <trkpt lat="50.530256079509854" lon="6.288906158879399">
        <ele>523.49000000000001</ele>
        <time>2019-04-25T12:52:44Z</time>
      </trkpt>
      <trkpt lat="50.530191622674465" lon="6.288485806435347">
        <ele>523.74000000000001</ele>
        <time>2019-04-25T12:53:02Z</time>
      </trkpt>
      <trkpt lat="50.530190365388989" lon="6.288120187819004">
        <ele>522.29999999999995</ele>
        <time>2019-04-25T12:53:19Z</time>
      </trkpt>
      <trkpt lat="50.530333612114191" lon="6.287716012448072">
        <ele>524.82000000000005</ele>
        <time>2019-04-25T12:53:38Z</time>
      </trkpt>
      <trkpt lat="50.530542405322194" lon="6.287425747141242">
        <ele>525.10000000000002</ele>
        <time>2019-04-25T12:53:56Z</time>
      </trkpt>
      <trkpt lat="50.530938114970922" lon="6.287512248381972">
        <ele>530.41999999999996</ele>
        <time>2019-04-25T12:54:45Z</time>
      </trkpt>
      <trkpt lat="50.531090833246708" lon="6.287598246708512">
        <ele>532.15999999999997</ele>
        <time>2019-04-25T12:54:52Z</time>
      </trkpt>
      <trkpt lat="50.531468186527491" lon="6.287856325507164">
        <ele>533.20000000000005</ele>
        <time>2019-04-25T12:55:10Z</time>
      </trkpt>
      <trkpt lat="50.531694665551186" lon="6.286705574020743">
        <ele>534.21000000000004</ele>
        <time>2019-04-25T12:55:27Z</time>
      </trkpt>
      <trkpt lat="50.531839840114117" lon="6.286305086687207">
        <ele>535.37</ele>
        <time>2019-04-25T12:55:45Z</time>
      </trkpt>
      <trkpt lat="50.531975543126464" lon="6.286068549379706">
        <ele>535.58000000000004</ele>
        <time>2019-04-25T12:56:00Z</time>
      </trkpt>
      <trkpt lat="50.532064223662019" lon="6.285650124773383">
        <ele>536.86000000000001</ele>
        <time>2019-04-25T12:56:19Z</time>
      </trkpt>
      <trkpt lat="50.532153407111764" lon="6.285225246101618">
        <ele>541.13</ele>
        <time>2019-04-25T12:56:38Z</time>
      </trkpt>
      <trkpt lat="50.53224116563797" lon="6.284812605008483">
        <ele>538.86000000000001</ele>
        <time>2019-04-25T12:56:57Z</time>
      </trkpt>
      <trkpt lat="50.53232716396451" lon="6.284396108239889">
        <ele>538.33000000000004</ele>
        <time>2019-04-25T12:57:16Z</time>
      </trkpt>
      <trkpt lat="50.532412827014923" lon="6.284028142690659">
        <ele>538.55999999999995</ele>
        <time>2019-04-25T12:57:32Z</time>
      </trkpt>
      <trkpt lat="50.532478038221598" lon="6.283863689750433">
        <ele>537.37</ele>
        <time>2019-04-25T12:57:42Z</time>
      </trkpt>
      <trkpt lat="50.532480301335454" lon="6.283859079703689">
        <ele>541.12</ele>
        <time>2019-04-25T12:57:43Z</time>
      </trkpt>
      <trkpt lat="50.532480552792549" lon="6.283861510455608">
        <ele>541.13</ele>
        <time>2019-04-25T12:57:44Z</time>
      </trkpt>
      <trkpt lat="50.532481977716088" lon="6.283860085532069">
        <ele>537.86000000000001</ele>
        <time>2019-04-25T12:57:47Z</time>
      </trkpt>
      <trkpt lat="50.532484743744135" lon="6.283861510455608">
        <ele>537.87</ele>
        <time>2019-04-25T12:57:48Z</time>
      </trkpt>
      <trkpt lat="50.532473679631948" lon="6.283863941207528">
        <ele>540.44000000000005</ele>
        <time>2019-04-25T12:58:05Z</time>
      </trkpt>
      <trkpt lat="50.53247376345098" lon="6.283869724720717">
        <ele>537.40999999999997</ele>
        <time>2019-04-25T12:58:08Z</time>
      </trkpt>
      <trkpt lat="50.53247133269906" lon="6.283870311453939">
        <ele>540.62</ele>
        <time>2019-04-25T12:58:09Z</time>
      </trkpt>
      <trkpt lat="50.53247912786901" lon="6.283786995336413">
        <ele>538.13</ele>
        <time>2019-04-25T12:58:34Z</time>
      </trkpt>
      <trkpt lat="50.532592786476016" lon="6.283524474129081">
        <ele>538.35000000000002</ele>
        <time>2019-04-25T12:58:49Z</time>
      </trkpt>
      <trkpt lat="50.53269756026566" lon="6.283242171630263">
        <ele>534.94000000000005</ele>
        <time>2019-04-25T12:59:04Z</time>
      </trkpt>
      <trkpt lat="50.532705020159483" lon="6.283221719786525">
        <ele>534.95000000000005</ele>
        <time>2019-04-25T12:59:05Z</time>
      </trkpt>
      <trkpt lat="50.532720945775509" lon="6.283185007050633">
        <ele>538</ele>
        <time>2019-04-25T12:59:07Z</time>
      </trkpt>
      <trkpt lat="50.532729914411902" lon="6.283166985958815">
        <ele>538.02999999999997</ele>
        <time>2019-04-25T12:59:08Z</time>
      </trkpt>
      <trkpt lat="50.532747432589531" lon="6.283129351213574">
        <ele>535.79999999999995</ele>
        <time>2019-04-25T12:59:10Z</time>
      </trkpt>
      <trkpt lat="50.532772829756141" lon="6.283056428655982">
        <ele>535.85000000000002</ele>
        <time>2019-04-25T12:59:14Z</time>
      </trkpt>
      <trkpt lat="50.532796801999211" lon="6.282975543290377">
        <ele>535.90999999999997</ele>
        <time>2019-04-25T12:59:18Z</time>
      </trkpt>
      <trkpt lat="50.532843908295035" lon="6.282812347635627">
        <ele>534.40999999999997</ele>
        <time>2019-04-25T12:59:26Z</time>
      </trkpt>
      <trkpt lat="50.532961171120405" lon="6.282521579414606">
        <ele>532.73000000000002</ele>
        <time>2019-04-25T12:59:40Z</time>
      </trkpt>
      <trkpt lat="50.532998889684677" lon="6.282328376546502">
        <ele>535.63999999999999</ele>
        <time>2019-04-25T12:59:48Z</time>
      </trkpt>
      <trkpt lat="50.533041385933757" lon="6.282165432348847">
        <ele>533.36000000000001</ele>
        <time>2019-04-25T12:59:55Z</time>
      </trkpt>
      <trkpt lat="50.533195193856955" lon="6.281627062708139">
        <ele>533.69000000000005</ele>
        <time>2019-04-25T13:00:20Z</time>
      </trkpt>
      <trkpt lat="50.533271888270974" lon="6.281307125464082">
        <ele>536.35000000000002</ele>
        <time>2019-04-25T13:00:36Z</time>
      </trkpt>
      <trkpt lat="50.533352605998516" lon="6.280957935377955">
        <ele>538.41999999999996</ele>
        <time>2019-04-25T13:00:53Z</time>
      </trkpt>
      <trkpt lat="50.533438855782151" lon="6.280400287359953">
        <ele>541.22000000000003</ele>
        <time>2019-04-25T13:01:18Z</time>
      </trkpt>
      <trkpt lat="50.53345737978816" lon="6.280172299593687">
        <ele>545.36000000000001</ele>
        <time>2019-04-25T13:01:28Z</time>
      </trkpt>
      <trkpt lat="50.533457631245255" lon="6.280148411169648">
        <ele>545.37</ele>
        <time>2019-04-25T13:01:29Z</time>
      </trkpt>
      <trkpt lat="50.533461067825556" lon="6.280103735625744">
        <ele>542.82000000000005</ele>
        <time>2019-04-25T13:01:31Z</time>
      </trkpt>
      <trkpt lat="50.533565254881978" lon="6.279847584664822">
        <ele>541.91999999999996</ele>
        <time>2019-04-25T13:01:46Z</time>
      </trkpt>
      <trkpt lat="50.533589897677302" lon="6.27983383834362">
        <ele>544.66999999999996</ele>
        <time>2019-04-25T13:01:48Z</time>
      </trkpt>
      <trkpt lat="50.533729624003172" lon="6.2797727342695">
        <ele>544.80999999999995</ele>
        <time>2019-04-25T13:02:00Z</time>
      </trkpt>
      <trkpt lat="50.533960545435548" lon="6.279769297689199">
        <ele>542.59000000000003</ele>
        <time>2019-04-25T13:02:15Z</time>
      </trkpt>
      <trkpt lat="50.534193646162748" lon="6.279962500557303">
        <ele>542.80999999999995</ele>
        <time>2019-04-25T13:02:33Z</time>
      </trkpt>
      <trkpt lat="50.534423310309649" lon="6.280155284330249">
        <ele>542.13999999999999</ele>
        <time>2019-04-25T13:02:51Z</time>
      </trkpt>
      <trkpt lat="50.534732351079583" lon="6.280411519110203">
        <ele>540.69000000000005</ele>
        <time>2019-04-25T13:03:14Z</time>
      </trkpt>
      <trkpt lat="50.535005768761039" lon="6.28069625236094">
        <ele>540.94000000000005</ele>
        <time>2019-04-25T13:03:36Z</time>
      </trkpt>
      <trkpt lat="50.53523501381278" lon="6.280959527939558">
        <ele>541.11000000000001</ele>
        <time>2019-04-25T13:03:55Z</time>
      </trkpt>
      <trkpt lat="50.535445483401418" lon="6.281225318089128">
        <ele>541.25999999999999</ele>
        <time>2019-04-25T13:04:12Z</time>
      </trkpt>
      <trkpt lat="50.535687049850821" lon="6.281543914228678">
        <ele>541.49000000000001</ele>
        <time>2019-04-25T13:04:33Z</time>
      </trkpt>
      <trkpt lat="50.535910427570343" lon="6.281816242262721">
        <ele>540.88999999999999</ele>
        <time>2019-04-25T13:04:52Z</time>
      </trkpt>
      <trkpt lat="50.536185186356306" lon="6.282177669927478">
        <ele>541.09000000000003</ele>
        <time>2019-04-25T13:05:16Z</time>
      </trkpt>
      <trkpt lat="50.536435721442103" lon="6.282466426491737">
        <ele>540.51999999999998</ele>
        <time>2019-04-25T13:05:37Z</time>
      </trkpt>
      <trkpt lat="50.536658260971308" lon="6.282825171947479">
        <ele>540.72000000000003</ele>
        <time>2019-04-25T13:05:58Z</time>
      </trkpt>
      <trkpt lat="50.53677367977798" lon="6.283043185248971">
        <ele>537.96000000000004</ele>
        <time>2019-04-25T13:06:10Z</time>
      </trkpt>
      <trkpt lat="50.5368020106107" lon="6.283092806115747">
        <ele>540.74000000000001</ele>
        <time>2019-04-25T13:06:13Z</time>
      </trkpt>
      <trkpt lat="50.536962943151593" lon="6.283391956239939">
        <ele>540.86000000000001</ele>
        <time>2019-04-25T13:06:31Z</time>
      </trkpt>
      <trkpt lat="50.537199815735221" lon="6.283715162426233">
        <ele>540.96000000000004</ele>
        <time>2019-04-25T13:06:51Z</time>
      </trkpt>
      <trkpt lat="50.53747097030282" lon="6.283983215689659">
        <ele>541.01999999999998</ele>
        <time>2019-04-25T13:07:15Z</time>
      </trkpt>
      <trkpt lat="50.537533164024353" lon="6.284050941467285">
        <ele>538.80999999999995</ele>
        <time>2019-04-25T13:07:25Z</time>
      </trkpt>
      <trkpt lat="50.537789650261402" lon="6.284285802394152">
        <ele>539.07000000000005</ele>
        <time>2019-04-25T13:07:47Z</time>
      </trkpt>
      <trkpt lat="50.538121908903122" lon="6.284531056880951">
        <ele>538.26999999999998</ele>
        <time>2019-04-25T13:08:13Z</time>
      </trkpt>
      <trkpt lat="50.538382921367884" lon="6.284639770165086">
        <ele>537.64999999999998</ele>
        <time>2019-04-25T13:08:32Z</time>
      </trkpt>
      <trkpt lat="50.538635551929474" lon="6.284732054919004">
        <ele>537.75999999999999</ele>
        <time>2019-04-25T13:08:50Z</time>
      </trkpt>
      <trkpt lat="50.538936294615269" lon="6.284876139834523">
        <ele>537.97000000000003</ele>
        <time>2019-04-25T13:09:11Z</time>
      </trkpt>
      <trkpt lat="50.539235193282366" lon="6.285029528662562">
        <ele>536.29999999999995</ele>
        <time>2019-04-25T13:09:33Z</time>
      </trkpt>
      <trkpt lat="50.539533505216241" lon="6.285221558064222">
        <ele>536.49000000000001</ele>
        <time>2019-04-25T13:09:55Z</time>
      </trkpt>
      <trkpt lat="50.539829302579165" lon="6.285320799797773">
        <ele>536.64999999999998</ele>
        <time>2019-04-25T13:10:16Z</time>
      </trkpt>
      <trkpt lat="50.540064163506031" lon="6.285439571365714">
        <ele>535.64999999999998</ele>
        <time>2019-04-25T13:10:35Z</time>
      </trkpt>
      <trkpt lat="50.540338922291994" lon="6.285558259114623">
        <ele>533.07000000000005</ele>
        <time>2019-04-25T13:10:56Z</time>
      </trkpt>
      <trkpt lat="50.540363732725382" lon="6.28556932322681">
        <ele>535.65999999999997</ele>
        <time>2019-04-25T13:10:58Z</time>
      </trkpt>
      <trkpt lat="50.540389465168118" lon="6.285590277984738">
        <ele>532.66999999999996</ele>
        <time>2019-04-25T13:11:05Z</time>
      </trkpt>
      <trkpt lat="50.54056104272604" lon="6.285649789497256">
        <ele>535.28999999999996</ele>
        <time>2019-04-25T13:11:18Z</time>
      </trkpt>
      <trkpt lat="50.540825743228197" lon="6.285720113664866">
        <ele>535.83000000000004</ele>
        <time>2019-04-25T13:11:37Z</time>
      </trkpt>
      <trkpt lat="50.541037889197469" lon="6.285805189982057">
        <ele>536.03999999999996</ele>
        <time>2019-04-25T13:11:53Z</time>
      </trkpt>
      <trkpt lat="50.54127836599946" lon="6.285955896601081">
        <ele>536.14999999999998</ele>
        <time>2019-04-25T13:12:11Z</time>
      </trkpt>
      <trkpt lat="50.541452039033175" lon="6.286160498857498">
        <ele>536.26999999999998</ele>
        <time>2019-04-25T13:12:26Z</time>
      </trkpt>
      <trkpt lat="50.541533259674907" lon="6.286250939592719">
        <ele>533.78999999999996</ele>
        <time>2019-04-25T13:12:33Z</time>
      </trkpt>
      <trkpt lat="50.541742891073227" lon="6.286417404189706">
        <ele>533.96000000000004</ele>
        <time>2019-04-25T13:12:49Z</time>
      </trkpt>
      <trkpt lat="50.541784465312958" lon="6.286446154117584">
        <ele>534.05999999999995</ele>
        <time>2019-04-25T13:12:52Z</time>
      </trkpt>
      <trkpt lat="50.541844815015793" lon="6.286518992856145">
        <ele>534.04999999999995</ele>
        <time>2019-04-25T13:12:58Z</time>
      </trkpt>
      <trkpt lat="50.542076071724296" lon="6.286755362525582">
        <ele>534.13</ele>
        <time>2019-04-25T13:13:17Z</time>
      </trkpt>
      <trkpt lat="50.542281344532967" lon="6.28697220236063">
        <ele>534.29999999999995</ele>
        <time>2019-04-25T13:13:33Z</time>
      </trkpt>
      <trkpt lat="50.542436242103577" lon="6.287085777148604">
        <ele>536.64999999999998</ele>
        <time>2019-04-25T13:13:44Z</time>
      </trkpt>
      <trkpt lat="50.542618632316589" lon="6.287294486537576">
        <ele>536.75999999999999</ele>
        <time>2019-04-25T13:14:00Z</time>
      </trkpt>
      <trkpt lat="50.542818959802389" lon="6.287513002753258">
        <ele>536.92999999999995</ele>
        <time>2019-04-25T13:14:18Z</time>
      </trkpt>
      <trkpt lat="50.542983915656805" lon="6.287675192579627">
        <ele>537</ele>
        <time>2019-04-25T13:14:33Z</time>
      </trkpt>
      <trkpt lat="50.543149961158633" lon="6.287827994674444">
        <ele>537.02999999999997</ele>
        <time>2019-04-25T13:14:47Z</time>
      </trkpt>
      <trkpt lat="50.543265296146274" lon="6.287920782342553">
        <ele>534.65999999999997</ele>
        <time>2019-04-25T13:14:56Z</time>
      </trkpt>
      <trkpt lat="50.543469227850437" lon="6.288027064874768">
        <ele>534.78999999999996</ele>
        <time>2019-04-25T13:15:11Z</time>
      </trkpt>
      <trkpt lat="50.543636530637741" lon="6.28817031159997">
        <ele>534.85000000000002</ele>
        <time>2019-04-25T13:15:24Z</time>
      </trkpt>
      <trkpt lat="50.543797211721539" lon="6.28829880617559">
        <ele>534.86000000000001</ele>
        <time>2019-04-25T13:15:38Z</time>
      </trkpt>
      <trkpt lat="50.543951941654086" lon="6.288477843627334">
        <ele>534.92999999999995</ele>
        <time>2019-04-25T13:15:52Z</time>
      </trkpt>
      <trkpt lat="50.544167859479785" lon="6.288537606596947">
        <ele>535</ele>
        <time>2019-04-25T13:16:05Z</time>
      </trkpt>
      <trkpt lat="50.544264921918511" lon="6.288119601085782">
        <ele>528.82000000000005</ele>
        <time>2019-04-25T13:16:36Z</time>
      </trkpt>
      <trkpt lat="50.544263832271099" lon="6.288120606914163">
        <ele>538.02999999999997</ele>
        <time>2019-04-25T13:16:37Z</time>
      </trkpt>
      <trkpt lat="50.544263329356909" lon="6.288119181990624">
        <ele>542.65999999999997</ele>
        <time>2019-04-25T13:16:38Z</time>
      </trkpt>
      <trkpt lat="50.544261820614338" lon="6.288119768723846">
        <ele>537.73000000000002</ele>
        <time>2019-04-25T13:16:39Z</time>
      </trkpt>
      <trkpt lat="50.544259808957577" lon="6.288121026009321">
        <ele>536.30999999999995</ele>
        <time>2019-04-25T13:16:41Z</time>
      </trkpt>
      <trkpt lat="50.544230891391635" lon="6.288092862814665">
        <ele>534.80999999999995</ele>
        <time>2019-04-25T13:17:26Z</time>
      </trkpt>
      <trkpt lat="50.544246314093471" lon="6.288034189492464">
        <ele>534.94000000000005</ele>
        <time>2019-04-25T13:17:40Z</time>
      </trkpt>
      <trkpt lat="50.544263161718845" lon="6.287908293306828">
        <ele>537.52999999999997</ele>
        <time>2019-04-25T13:17:48Z</time>
      </trkpt>
      <trkpt lat="50.544308759272099" lon="6.287634121254087">
        <ele>537.61000000000001</ele>
        <time>2019-04-25T13:18:05Z</time>
      </trkpt>
      <trkpt lat="50.5444226693362" lon="6.287113437429071">
        <ele>541.15999999999997</ele>
        <time>2019-04-25T13:18:45Z</time>
      </trkpt>
      <trkpt lat="50.544429291039705" lon="6.287078903988004">
        <ele>538.76999999999998</ele>
        <time>2019-04-25T13:18:48Z</time>
      </trkpt>
      <trkpt lat="50.544436918571591" lon="6.286796852946281">
        <ele>538.08000000000004</ele>
        <time>2019-04-25T13:19:04Z</time>
      </trkpt>
      <trkpt lat="50.544476481154561" lon="6.286471970379353">
        <ele>540.80999999999995</ele>
        <time>2019-04-25T13:19:21Z</time>
      </trkpt>
      <trkpt lat="50.544519061222672" lon="6.286065028980374">
        <ele>538.61000000000001</ele>
        <time>2019-04-25T13:19:43Z</time>
      </trkpt>
      <trkpt lat="50.544531885534525" lon="6.285985484719276">
        <ele>541.48000000000002</ele>
        <time>2019-04-25T13:19:47Z</time>
      </trkpt>
      <trkpt lat="50.544550325721502" lon="6.285876519978046">
        <ele>541.49000000000001</ele>
        <time>2019-04-25T13:19:54Z</time>
      </trkpt>
      <trkpt lat="50.544567005708814" lon="6.285838969051838">
        <ele>542.65999999999997</ele>
        <time>2019-04-25T13:19:58Z</time>
      </trkpt>
      <trkpt lat="50.544569352641702" lon="6.285788845270872">
        <ele>539.83000000000004</ele>
        <time>2019-04-25T13:20:01Z</time>
      </trkpt>
      <trkpt lat="50.544594917446375" lon="6.285617519170046">
        <ele>542.62</ele>
        <time>2019-04-25T13:20:11Z</time>
      </trkpt>
      <trkpt lat="50.544602712616324" lon="6.285551302134991">
        <ele>544.36000000000001</ele>
        <time>2019-04-25T13:20:15Z</time>
      </trkpt>
      <trkpt lat="50.544611513614655" lon="6.285493802279234">
        <ele>542.11000000000001</ele>
        <time>2019-04-25T13:20:19Z</time>
      </trkpt>
      <trkpt lat="50.544659793376923" lon="6.285079317167401">
        <ele>540.40999999999997</ele>
        <time>2019-04-25T13:20:42Z</time>
      </trkpt>
      <trkpt lat="50.544691141694784" lon="6.284685702994466">
        <ele>540.63</ele>
        <time>2019-04-25T13:21:03Z</time>
      </trkpt>
      <trkpt lat="50.544729111716151" lon="6.284316061064601">
        <ele>540.74000000000001</ele>
        <time>2019-04-25T13:21:24Z</time>
      </trkpt>
      <trkpt lat="50.544771105051041" lon="6.284149764105678">
        <ele>540.89999999999998</ele>
        <time>2019-04-25T13:21:41Z</time>
      </trkpt>
      <trkpt lat="50.544865569099784" lon="6.284052282571793">
        <ele>541.03999999999996</ele>
        <time>2019-04-25T13:21:56Z</time>
      </trkpt>
      <trkpt lat="50.544959362596273" lon="6.284078182652593">
        <ele>544.25</ele>
        <time>2019-04-25T13:22:04Z</time>
      </trkpt>
      <trkpt lat="50.544972270727158" lon="6.284081032499671">
        <ele>544.24000000000001</ele>
        <time>2019-04-25T13:22:05Z</time>
      </trkpt>
      <trkpt lat="50.545020885765553" lon="6.284103160724044">
        <ele>541.66999999999996</ele>
        <time>2019-04-25T13:22:09Z</time>
      </trkpt>
      <trkpt lat="50.545231271535158" lon="6.284159068018198">
        <ele>541.83000000000004</ele>
        <time>2019-04-25T13:22:27Z</time>
      </trkpt>
      <trkpt lat="50.545262200757861" lon="6.284169126302004">
        <ele>541.85000000000002</ele>
        <time>2019-04-25T13:22:30Z</time>
      </trkpt>
      <trkpt lat="50.545464204624295" lon="6.284167030826211">
        <ele>541.01999999999998</ele>
        <time>2019-04-25T13:22:48Z</time>
      </trkpt>
      <trkpt lat="50.545667968690395" lon="6.28420315682888">
        <ele>541.04999999999995</ele>
        <time>2019-04-25T13:23:04Z</time>
      </trkpt>
      <trkpt lat="50.545872738584876" lon="6.284239869564772">
        <ele>540.94000000000005</ele>
        <time>2019-04-25T13:23:19Z</time>
      </trkpt>
      <trkpt lat="50.54601171053946" lon="6.284244731068611">
        <ele>539.99000000000001</ele>
        <time>2019-04-25T13:23:34Z</time>
      </trkpt>
      <trkpt lat="50.54620566777885" lon="6.284322096034885">
        <ele>539.02999999999997</ele>
        <time>2019-04-25T13:23:54Z</time>
      </trkpt>
      <trkpt lat="50.546321421861649" lon="6.284380350261927">
        <ele>538.95000000000005</ele>
        <time>2019-04-25T13:24:09Z</time>
      </trkpt>
      <trkpt lat="50.546384453773499" lon="6.284384457394481">
        <ele>538.90999999999997</ele>
        <time>2019-04-25T13:24:15Z</time>
      </trkpt>
      <trkpt lat="50.546471290290356" lon="6.28428814932704">
        <ele>538.01999999999998</ele>
        <time>2019-04-25T13:24:23Z</time>
      </trkpt>
      <trkpt lat="50.546520072966814" lon="6.284157391637564">
        <ele>537.14999999999998</ele>
        <time>2019-04-25T13:24:30Z</time>
      </trkpt>
      <trkpt lat="50.546543207019567" lon="6.284000901505351">
        <ele>537.10000000000002</ele>
        <time>2019-04-25T13:24:47Z</time>
      </trkpt>
      <trkpt lat="50.546546978875995" lon="6.28398958593607">
        <ele>537.03999999999996</ele>
        <time>2019-04-25T13:25:05Z</time>
      </trkpt>
      <trkpt lat="50.546561060473323" lon="6.284032836556435">
        <ele>537.01999999999998</ele>
        <time>2019-04-25T13:25:26Z</time>
      </trkpt>
      <trkpt lat="50.546525353565812" lon="6.284122355282307">
        <ele>537.00999999999999</ele>
        <time>2019-04-25T13:25:45Z</time>
      </trkpt>
      <trkpt lat="50.546483108773828" lon="6.284238444641233">
        <ele>536.90999999999997</ele>
        <time>2019-04-25T13:26:04Z</time>
      </trkpt>
      <trkpt lat="50.54649056866765" lon="6.284221345558763">
        <ele>536.15999999999997</ele>
        <time>2019-04-25T13:27:09Z</time>
      </trkpt>
      <trkpt lat="50.546489981934428" lon="6.284184213727713">
        <ele>538.97000000000003</ele>
        <time>2019-04-25T13:27:34Z</time>
      </trkpt>
      <trkpt lat="50.546550750732422" lon="6.284102322533727">
        <ele>537.75999999999999</ele>
        <time>2019-04-25T13:31:48Z</time>
      </trkpt>
      <trkpt lat="50.546577405184507" lon="6.284018503502011">
        <ele>537.80999999999995</ele>
        <time>2019-04-25T13:32:16Z</time>
      </trkpt>
      <trkpt lat="50.546561731025577" lon="6.284002577885985">
        <ele>535.48000000000002</ele>
        <time>2019-04-25T13:32:26Z</time>
      </trkpt>
      <trkpt lat="50.546523425728083" lon="6.284059574827552">
        <ele>535.49000000000001</ele>
        <time>2019-04-25T13:32:41Z</time>
      </trkpt>
      <trkpt lat="50.546546140685678" lon="6.284092012792826">
        <ele>537.76999999999998</ele>
        <time>2019-04-25T13:32:45Z</time>
      </trkpt>
    </trkseg>
  </trk>

</gpx>